[[{"header":{"parameterUnit":"m.s-1","parameterCategory":1,"la1":31.0,"la2":29.5877,"lo1":-88.7671,"lo2":-86.6584,"dy":0.0162,"dx":0.0185,"nx":115,"ny":88,"refTime":"2023-04-12T18:00:00:Z","depth":0,"parameterNumber":2,"parameterNumberName":"U-component_of_WINDS"},"data":[0.0,0.0,0.0,0.0,0.0,0.0,0.0,0.0,0.0,0.0,0.0,0.0,0.0,0.0,0.0,0.0,0.0,0.0,0.0,0.0,0.0,0.0,0.0,0.0,0.0,0.0,0.0,0.0,0.0,0.0,0.0,0.0,0.0,0.0,0.0,0.0,0.0,0.0,0.0,0.0,0.0,0.0,0.0,0.0,0.0,0.0,0.0,0.0,0.0,0.0,0.0,0.0,0.0,0.0,0.0,0.0,0.0,0.0,0.0,0.0,0.0,0.0,0.0,0.0,0.0,0.0,0.0,0.0,0.0,0.0,0.0,0.0,0.0,0.0,0.0,0.0,0.0,0.0,0.0,0.0,0.0,0.0,0.0,0.0,0.0,0.0,0.0,0.0,0.0,0.0,0.0,0.0,0.0,0.0,0.0,0.0,0.0,0.0,0.0,0.0,0.0,0.0,0.0,0.0,0.0,0.0,0.0,0.0,0.0,0.0,0.0,0.0,0.0,0.0,0.0,0.0,0.0,0.0,0.0,0.0,0.0,0.0,0.0,0.0,0.0,0.0,0.0,0.0,0.0,0.0,0.0,0.0,0.0,0.0,0.0,0.0,0.0,0.0,0.0,0.0,0.0,0.0,0.0,0.0,0.0,0.0,0.0,0.0,0.0,0.0,0.0,0.0,0.0,0.0,0.0,0.0,0.0,0.0,0.0,0.0,0.0,0.0,0.0,0.0,0.0,0.0,0.0,0.0,0.0,0.0,0.0,0.0,0.0,0.0,0.0,0.0,0.0,0.0,0.0,0.0,0.0,0.0,0.0,0.0,0.0,0.0,0.0,0.0,0.0,0.0,0.0,0.0,0.0,0.0,0.0,0.0,0.0,0.0,0.0,0.0,0.0,0.0,0.0,0.0,0.0,0.0,0.0,0.0,0.0,0.0,0.0,0.0,0.0,0.0,0.0,0.0,0.0,0.0,0.0,0.0,0.0,0.0,0.0,0.0,0.0,0.0,0.0,0.0,0.0,0.0,0.0,0.0,0.0,0.0,0.0,0.0,0.0,0.0,0.0,0.0,0.0,0.0,0.0,0.0,0.0,0.0,0.0,0.0,0.0,0.0,0.0,0.0,0.0,0.0,0.0,0.0,0.0,0.0,0.0,0.0,0.0,0.0,0.0,0.0,0.0,0.0,0.0,0.0,0.0,0.0,0.0,0.0,0.0,0.0,0.0,0.0,0.0,0.0,0.0,0.0,0.0,0.0,0.0,0.0,0.0,0.0,0.0,0.0,0.0,0.0,0.0,0.0,0.0,0.0,0.0,0.0,0.0,0.0,0.0,0.0,0.0,0.0,0.0,0.0,0.0,0.0,0.0,0.0,0.0,0.0,0.0,0.0,0.0,0.0,0.0,0.0,0.0,0.0,0.0,0.0,0.0,0.0,0.0,0.0,0.0,0.0,0.0,0.0,0.0,0.0,0.0,0.0,0.0,0.0,0.0,0.0,0.0,0.0,0.0,0.0,0.0,0.0,0.0,0.0,0.0,0.0,0.0,0.0,0.0,0.0,0.0,0.0,0.0,0.0,0.0,0.0,0.0,0.0,0.0,0.0,0.0,0.0,0.0,0.0,0.0,0.0,0.0,0.0,0.0,0.0,0.0,0.0,0.0,0.0,0.0,0.0,0.0,0.0,0.0,0.0,0.0,0.0,0.0,0.0,0.0,0.0,0.0,0.0,0.0,0.0,0.0,0.0,0.0,0.0,0.0,0.0,0.0,0.0,0.0,0.0,0.0,0.0,0.0,0.0,0.0,0.0,0.0,0.0,0.0,0.0,0.0,0.0,0.0,0.0,0.0,0.0,0.0,0.0,0.0,0.0,0.0,0.0,0.0,0.0,0.0,0.0,0.0,0.0,0.0,0.0,0.0,0.0,0.0,0.0,0.0,0.0,0.0,0.0,0.0,0.0,0.0,0.0,0.0,0.0,0.0,0.0,0.0,0.0,0.0,0.0,0.0,0.0,0.0,0.0,0.0,0.0,0.0,0.0,0.0,0.0,0.0,0.0,0.0,0.0,0.0,0.0,0.0,0.0,0.0,0.0,0.0,0.0,0.0,0.0,0.0,0.0,0.0,0.0,0.0,0.0,0.0,0.0,0.0,0.0,0.0,0.0,0.0,0.0,0.0,0.0,0.0,0.0,0.0,0.0,0.0,0.0,0.0,0.0,0.0,0.0,0.0,0.0,0.0,0.0,0.0,0.0,0.0,0.0,0.0,0.0,0.0,0.0,0.0,0.0,0.0,0.0,0.0,0.0,0.0,0.0,0.0,0.0,0.0,0.0,0.0,0.0,0.0,0.0,0.0,0.0,0.0,0.0,0.0,0.0,0.0,0.0,0.0,0.0,0.0,0.0,0.0,0.0,0.0,0.0,0.0,0.0,0.0,0.0,0.0,0.0,0.0,0.0,0.0,0.0,0.0,0.0,0.0,0.0,0.0,0.0,0.0,0.0,0.0,0.0,0.0,0.0,0.0,0.0,0.0,0.0,0.0,0.0,0.0,0.0,0.0,0.0,0.0,0.0,0.0,0.0,0.0,0.0,0.0,0.0,0.0,0.0,0.0,0.0,0.0,0.0,0.0,0.0,0.0,0.0,0.0,0.0,0.0,0.0,0.0,0.0,0.0,0.0,0.0,0.0,0.0,0.0,0.0,0.0,0.0,0.0,0.0,0.0,0.0,0.0,0.0,0.0,0.0,0.0,0.0,0.0,0.0,0.0,0.0,0.0,0.0,0.0,0.0,0.0,0.0,0.0,0.0,0.0,0.0,0.0,0.0,0.0,0.0,0.0,0.0,0.0,0.0,0.0,0.0,0.0,0.0,0.0,0.0,0.0,0.0,0.0,0.0,0.0,0.0,0.0,0.0,0.0,0.0,0.0,0.0,0.0,0.0,0.0,0.0,0.0,0.0,0.0,0.0,0.0,0.0,0.0,0.0,0.0,0.0,0.0,0.0,0.0,0.0,0.0,0.0,0.0,0.0,0.0,0.0,0.0,0.0,0.0,0.0,0.0,0.0,0.0,0.0,0.0,0.0,0.0,0.0,0.0,0.0,0.0,0.0,0.0,0.0,0.0,0.0,0.0,0.0,0.0,0.0,0.0,0.0,0.0,0.0,0.0,0.0,0.0,0.0,0.0,0.0,0.0,0.0,0.0,0.0,0.0,0.0,0.0,0.0,0.0,0.0,0.0,0.0,0.0,0.0,0.0,0.0,0.0,0.0,0.0,0.0,0.0,0.0,0.0,0.0,0.0,0.0,0.0,0.0,0.0,0.0,0.0,0.0,0.0,0.0,0.0,0.0,0.0,0.0,0.0,0.0,0.0,0.0,0.0,0.0,0.0,0.0,0.0,0.0,0.0,0.0,0.0,0.0,0.0,0.0,0.0,0.0,0.0,0.0,0.0,0.0,0.0,0.0,0.0,0.0,0.0,0.0,0.0,0.0,0.0,0.0,0.0,0.0,0.0,0.0,0.0,0.0,0.0,0.0,0.0,0.0,0.0,0.0,0.0,0.0,0.0,0.0,0.0,0.0,0.0,0.0,0.0,0.0,0.0,0.0,0.0,0.0,0.0,0.0,0.0,0.0,0.0,0.0,0.0,0.0,0.0,0.0,0.0,0.0,0.0,0.0,0.0,0.0,0.0,0.0,0.0,0.0,0.0,0.0,0.0,0.0,0.0,0.0,0.0,0.0,0.0,0.0,0.0,0.0,0.0,0.0,0.0,0.0,0.0,0.0,0.0,0.0,0.0,0.0,0.0,0.0,0.0,0.0,0.0,0.0,0.0,0.0,0.0,0.0,0.0,0.0,0.0,0.0,0.0,0.0,0.0,0.0,0.0,0.0,0.0,0.0,0.0,0.0,0.0,0.0,0.0,0.0,0.0,0.0,0.0,0.0,0.0,0.0,0.0,0.0,0.0,0.0,0.0,0.0,0.0,0.0,0.0,0.0,0.0,0.0,0.0,0.0,0.0,0.0,0.0,0.0,0.0,0.0,0.0,0.0,0.0,0.0,0.0,0.0,0.0,0.0,0.0,0.0,0.0,0.0,0.0,0.0,0.0,0.0,0.0,0.0,0.0,0.0,0.0,0.0,0.0,0.0,0.0,0.0,0.0,0.0,0.0,0.0,0.0,0.0,0.0,0.0,0.0,0.0,0.0,0.0,0.0,0.0,0.0,0.0,0.0,0.0,0.0,0.0,0.0,0.0,0.0,0.0,0.0,0.0,0.0,0.0,0.0,0.0,0.0,2.0117,0.0,0.0,0.0,0.0,0.0,0.0,0.0,0.0,0.0,0.0,0.0,0.0,0.0,0.0,0.0,0.0,0.0,0.0,0.0,0.0,0.0,0.0,0.0,0.0,0.0,0.0,0.0,0.0,0.0,0.0,0.0,0.0,0.0,0.0,0.0,0.0,0.0,0.0,0.0,0.0,0.0,0.0,0.0,0.0,0.0,0.0,0.0,0.0,0.0,0.0,0.0,0.0,0.0,0.0,0.0,0.0,0.0,0.0,0.0,0.0,0.0,0.0,0.0,0.0,0.0,0.0,0.0,0.0,0.0,0.0,0.0,0.0,0.0,0.0,0.0,0.0,0.0,0.0,0.0,0.0,0.0,0.0,0.0,0.0,0.0,0.0,0.0,0.0,0.0,0.0,0.0,0.0,0.0,0.0,0.0,0.0,0.0,0.0,0.0,0.0,0.0,0.0,0.0,0.0,0.0,0.0,0.0,0.0,0.0,0.0,2.3275,2.248,2.1328,2.0469,1.9883,0.0,0.0,0.0,0.0,0.0,0.0,0.0,0.0,0.0,0.0,0.0,0.0,0.0,0.0,0.0,0.0,0.0,0.0,0.0,0.0,0.0,0.0,0.0,0.0,0.0,0.0,0.0,0.0,0.0,0.0,0.0,0.0,0.0,0.0,0.0,0.0,0.0,0.0,0.0,0.0,0.0,0.0,0.0,0.0,0.0,0.0,0.0,0.0,0.0,0.0,0.0,0.0,0.0,0.0,0.0,0.0,0.0,0.0,0.0,0.0,0.0,0.0,0.0,0.0,0.0,0.0,0.0,0.0,0.0,0.0,0.0,0.0,0.0,0.0,0.0,0.0,0.0,0.0,0.0,0.0,0.0,0.0,0.0,0.0,0.0,0.0,0.0,0.0,0.0,0.0,0.0,0.0,0.0,0.0,0.0,0.0,0.0,0.0,0.0,0.0,0.0,0.0,0.0,0.0,0.0,0.0,0.0,0.0,0.0,0.0,0.0,0.0,2.1352,2.0312,1.9586,0.0,0.0,0.0,0.0,0.0,0.0,0.0,0.0,0.0,0.0,0.0,0.0,0.0,0.0,0.0,0.0,0.0,0.0,0.0,0.0,0.0,0.0,0.0,0.0,0.0,0.0,0.0,0.0,0.0,0.0,0.0,0.0,0.0,0.0,0.0,0.0,0.0,0.0,0.0,0.0,0.0,0.0,0.0,0.0,0.0,0.0,0.0,0.0,0.0,0.0,0.0,0.0,0.0,0.0,0.0,0.0,0.0,0.0,0.0,0.0,0.0,0.0,0.0,0.0,0.0,0.0,0.0,0.0,0.0,0.0,0.0,0.0,0.0,0.0,0.0,0.0,0.0,0.0,0.0,0.0,0.0,0.0,0.0,0.0,0.0,0.0,0.0,0.0,0.0,0.0,0.0,0.0,0.0,0.0,0.0,0.0,0.0,0.0,0.0,0.0,0.0,0.0,0.0,0.0,0.0,0.0,0.0,0.0,0.0,0.0,2.3556,2.3119,2.1644,0.0,1.8591,0.0,0.0,0.0,0.0,0.0,0.0,0.0,0.0,0.0,0.0,0.0,0.0,0.0,0.0,0.0,0.0,0.0,0.0,0.0,0.0,0.0,0.0,0.0,0.0,0.0,0.0,0.0,0.0,0.0,0.0,0.0,0.0,0.0,0.0,0.0,0.0,0.0,0.0,0.0,0.0,0.0,0.0,0.0,0.0,0.0,0.0,0.0,0.0,0.0,0.0,0.0,0.0,0.0,0.0,0.0,0.0,0.0,0.0,0.0,0.0,0.0,0.0,0.0,0.0,0.0,0.0,0.0,0.0,0.0,0.0,0.0,0.0,0.0,0.0,0.0,0.0,0.0,0.0,0.0,0.0,0.0,0.0,0.0,0.0,0.0,0.0,0.0,0.0,0.0,0.0,0.0,0.0,0.0,0.0,0.0,0.0,0.0,0.0,0.0,0.0,0.0,0.0,0.0,0.0,0.0,0.0,0.0,0.0,0.0,0.0,2.3491,2.3177,2.1495,2.0167,0.0,0.0,0.0,0.0,0.0,0.0,0.0,0.0,0.0,0.0,0.0,0.0,0.0,0.0,0.0,0.0,0.0,0.0,0.0,0.0,0.0,0.0,0.0,0.0,0.0,0.0,0.0,0.0,0.0,0.0,0.0,0.0,0.0,0.0,0.0,0.0,0.0,0.0,0.0,0.0,0.0,0.0,0.0,0.0,0.0,0.0,0.0,0.0,0.0,0.0,0.0,0.0,0.0,0.0,0.0,0.0,0.0,0.0,0.0,0.0,0.0,0.0,0.0,0.0,0.0,0.0,0.0,0.0,0.0,0.0,0.0,0.0,0.0,0.0,0.0,0.0,0.0,0.0,0.0,0.0,0.0,0.0,0.0,0.0,0.0,0.0,0.0,0.0,0.0,0.0,0.0,0.0,0.0,0.0,0.0,0.0,0.0,0.0,0.0,0.0,0.0,0.0,0.0,0.0,0.0,0.0,0.0,0.0,0.0,0.0,2.4191,2.3439,2.2881,2.152,2.0507,2.0018,0.0,0.0,0.0,0.0,0.0,0.0,0.0,0.0,0.0,0.0,0.0,0.0,0.0,0.0,0.0,0.0,0.0,0.0,0.0,0.0,0.0,0.0,0.0,0.0,0.0,0.0,0.0,0.0,0.0,0.0,0.0,0.0,0.0,0.0,0.0,0.0,0.0,0.0,0.0,0.0,0.0,0.0,0.0,0.0,0.0,0.0,0.0,0.0,0.0,0.0,0.0,0.0,0.0,0.0,0.0,0.0,0.0,0.0,0.0,0.0,0.0,0.0,0.0,0.0,0.0,0.0,0.0,0.0,0.0,0.0,0.0,0.0,0.0,0.0,0.0,0.0,0.0,0.0,0.0,0.0,0.0,0.0,0.0,0.0,0.0,0.0,0.0,0.0,0.0,0.0,0.0,0.0,0.0,0.0,0.0,0.0,0.0,0.0,0.0,0.0,0.0,0.0,0.0,0.0,0.0,0.0,0.0,0.0,2.5788,2.4688,2.3474,2.2343,2.1971,2.1294,0.0,0.0,0.0,0.0,0.0,0.0,0.0,0.0,0.0,0.0,0.0,0.0,0.0,0.0,0.0,0.0,0.0,0.0,0.0,0.0,0.0,0.0,0.0,0.0,0.0,0.0,0.0,0.0,0.0,0.0,0.0,0.0,0.0,0.0,0.0,0.0,0.0,0.0,0.0,0.0,0.0,0.0,0.0,0.0,0.0,0.0,0.0,0.0,0.0,0.0,0.0,0.0,0.0,0.0,0.0,0.0,0.0,0.0,0.0,0.0,0.0,0.0,0.0,0.0,0.0,0.0,0.0,0.0,0.0,0.0,0.0,0.0,0.0,0.0,0.0,0.0,0.0,0.0,0.0,0.0,0.0,0.0,0.0,0.0,0.0,0.0,0.0,0.0,0.0,0.0,0.0,0.0,0.0,0.0,0.0,0.0,0.0,0.0,0.0,0.0,0.0,0.0,0.0,0.0,0.0,0.0,0.0,0.0,0.0,2.5353,2.4846,2.4109,2.3271,2.2872,2.2334,0.0,0.0,0.0,0.0,0.0,0.0,0.0,0.0,0.0,0.0,0.0,0.0,0.0,0.0,0.0,0.0,0.0,0.0,0.0,0.0,0.0,0.0,0.0,0.0,0.0,0.0,0.0,0.0,0.0,0.0,0.0,0.0,0.0,0.0,0.0,0.0,0.0,0.0,0.0,0.0,0.0,0.0,0.0,0.0,0.0,0.0,0.0,0.0,0.0,0.0,0.0,0.0,0.0,0.0,0.0,0.0,0.0,0.0,0.0,0.0,0.0,0.0,0.0,0.0,0.0,0.0,0.0,0.0,0.0,0.0,0.0,0.0,0.0,0.0,0.0,0.0,0.0,0.0,0.0,0.0,0.0,0.0,0.0,0.0,0.0,0.0,0.0,0.0,0.0,0.0,0.0,0.0,0.0,0.0,0.0,0.0,0.0,0.0,0.0,0.0,0.0,0.0,0.0,0.0,0.0,0.0,0.0,0.0,0.0,2.4858,0.0,2.4384,2.3796,2.3438,2.2945,0.0,0.0,0.0,0.0,0.0,0.0,0.0,0.0,0.0,0.0,0.0,0.0,0.0,0.0,0.0,0.0,0.0,0.0,0.0,0.0,0.0,0.0,0.0,0.0,0.0,0.0,0.0,0.0,0.0,0.0,0.0,0.0,0.0,0.0,0.0,0.0,0.0,0.0,0.0,0.0,0.0,0.0,0.0,0.0,0.0,0.0,0.0,0.0,0.0,0.0,0.0,0.0,0.0,0.0,0.0,0.0,0.0,0.0,0.0,0.0,0.0,0.0,0.0,0.0,0.0,0.0,0.0,0.0,0.0,0.0,0.0,0.0,0.0,0.0,0.0,0.0,0.0,0.0,0.0,0.0,0.0,0.0,0.0,0.0,0.0,0.0,0.0,0.0,0.0,0.0,0.0,0.0,0.0,0.0,0.0,0.0,0.0,0.0,0.0,0.0,0.0,0.0,0.0,0.0,0.0,0.0,0.0,0.0,2.4965,2.4392,2.433,2.4179,2.3725,2.3538,2.3102,0.0,0.0,0.0,0.0,0.0,0.0,0.0,0.0,0.0,0.0,0.0,0.0,0.0,0.0,0.0,0.0,0.0,0.0,0.0,0.0,0.0,0.0,0.0,0.0,0.0,0.0,0.0,0.0,0.0,0.0,0.0,0.0,0.0,0.0,0.0,0.0,0.0,0.0,0.0,0.0,0.0,0.0,0.0,0.0,0.0,0.0,0.0,0.0,0.0,0.0,0.0,0.0,0.0,0.0,0.0,0.0,0.0,0.0,0.0,0.0,0.0,0.0,0.0,0.0,0.0,0.0,0.0,0.0,0.0,0.0,0.0,0.0,0.0,0.0,0.0,0.0,0.0,0.0,0.0,0.0,0.0,0.0,0.0,0.0,0.0,0.0,0.0,0.0,0.0,0.0,0.0,0.0,0.0,0.0,0.0,0.0,0.0,0.0,0.0,0.0,0.0,0.0,0.0,0.0,0.0,0.0,0.0,0.0,0.0,2.5009,2.4997,2.4888,2.4678,2.4485,2.4108,0.0,0.0,0.0,0.0,0.0,0.0,0.0,0.0,0.0,0.0,0.0,0.0,0.0,0.0,0.0,0.0,0.0,0.0,0.0,0.0,0.0,0.0,0.0,0.0,0.0,0.0,0.0,0.0,0.0,0.0,0.0,0.0,0.0,0.0,0.0,0.0,0.0,0.0,0.0,0.0,0.0,0.0,0.0,0.0,0.0,0.0,0.0,0.0,0.0,0.0,0.0,0.0,0.0,0.0,0.0,0.0,0.0,0.0,0.0,0.0,0.0,0.0,0.0,0.0,0.0,0.0,0.0,0.0,0.0,0.0,0.0,0.0,0.0,0.0,0.0,0.0,0.0,0.0,0.0,0.0,0.0,0.0,0.0,0.0,0.0,0.0,0.0,0.0,0.0,0.0,0.0,0.0,0.0,0.0,0.0,0.0,0.0,0.0,0.0,0.0,0.0,0.0,0.0,0.0,0.0,0.0,0.0,0.0,0.0,2.5683,2.5544,2.5368,2.5308,2.5047,2.4775,2.4382,0.0,0.0,0.0,0.0,0.0,0.0,0.0,0.0,0.0,0.0,0.0,0.0,0.0,0.0,0.0,0.0,0.0,0.0,0.0,0.0,0.0,0.0,0.0,0.0,0.0,0.0,0.0,0.0,0.0,0.0,0.0,0.0,0.0,0.0,0.0,0.0,0.0,0.0,0.0,0.0,0.0,0.0,0.0,0.0,0.0,0.0,0.0,0.0,0.0,0.0,0.0,0.0,0.0,0.0,0.0,0.0,0.0,0.0,0.0,0.0,0.0,0.0,0.0,0.0,0.0,0.0,0.0,0.0,0.0,0.0,0.0,0.0,0.0,0.0,0.0,0.0,0.0,0.0,0.0,0.0,0.0,0.0,0.0,0.0,0.0,0.0,0.0,0.0,0.0,0.0,0.0,0.0,0.0,0.0,0.0,0.0,0.0,0.0,0.0,0.0,0.0,0.0,0.0,0.0,0.0,0.0,0.0,0.0,2.6472,2.6041,2.5774,2.5654,2.5422,2.5164,0.0,0.0,0.0,0.0,0.0,0.0,0.0,0.0,0.0,0.0,0.0,0.0,0.0,0.0,0.0,0.0,0.0,0.0,0.0,0.0,0.0,0.0,0.0,0.0,0.0,0.0,0.0,0.0,0.0,0.0,0.0,0.0,0.0,0.0,0.0,0.0,0.0,0.0,0.0,0.0,0.0,0.0,0.0,0.0,0.0,0.0,0.0,0.0,0.0,0.0,0.0,0.0,0.0,0.0,0.0,0.0,0.0,0.0,0.0,0.0,0.0,0.0,0.0,0.0,0.0,0.0,0.0,0.0,0.0,0.0,0.0,0.0,0.0,0.0,0.0,0.0,0.0,0.0,0.0,0.0,0.0,0.0,0.0,0.0,0.0,0.0,0.0,0.0,0.0,0.0,0.0,0.0,0.0,0.0,0.0,0.0,0.0,0.0,0.0,0.0,0.0,0.0,0.0,0.0,0.0,0.0,0.0,0.0,0.0,2.7636,2.7952,2.7566,2.6534,2.5907,2.556,0.0,0.0,0.0,0.0,0.0,0.0,0.0,0.0,0.0,0.0,0.0,0.0,0.0,0.0,0.0,0.0,0.0,0.0,0.0,0.0,0.0,0.0,0.0,0.0,0.0,0.0,0.0,0.0,0.0,0.0,0.0,0.0,0.0,0.0,0.0,0.0,0.0,0.0,0.0,0.0,0.0,0.0,0.0,0.0,0.0,0.0,0.0,0.0,0.0,0.0,0.0,0.0,0.0,0.0,0.0,0.0,0.0,0.0,0.0,0.0,0.0,0.0,0.0,0.0,0.0,0.0,0.0,0.0,0.0,0.0,0.0,0.0,0.0,0.0,0.0,0.0,0.0,0.0,0.0,0.0,0.0,0.0,0.0,0.0,0.0,0.0,0.0,0.0,0.0,0.0,0.0,0.0,0.0,0.0,0.0,0.0,0.0,0.0,0.0,0.0,0.0,0.0,0.0,0.0,0.0,0.0,0.0,0.0,2.8316,2.8932,2.9552,2.9289,2.8105,2.7142,2.663,0.0,0.0,0.0,0.0,0.0,0.0,0.0,0.0,0.0,0.0,0.0,0.0,0.0,0.0,0.0,0.0,0.0,0.0,0.0,0.0,0.0,0.0,0.0,0.0,0.0,0.0,0.0,0.0,0.0,0.0,0.0,0.0,0.0,0.0,0.0,0.0,0.0,0.0,0.0,0.0,0.0,0.0,0.0,0.0,0.0,0.0,0.0,0.0,0.0,0.0,0.0,0.0,0.0,0.0,0.0,0.0,0.0,0.0,0.0,0.0,0.0,0.0,0.0,0.0,0.0,0.0,0.0,0.0,0.0,0.0,0.0,0.0,0.0,0.0,0.0,0.0,0.0,0.0,0.0,0.0,0.0,0.0,0.0,0.0,0.0,0.0,0.0,0.0,0.0,0.0,0.0,0.0,0.0,0.0,0.0,0.0,0.0,0.0,0.0,0.0,0.0,0.0,0.0,0.0,0.0,0.0,0.0,0.0,2.9637,3.0156,3.0796,3.0758,2.9991,2.8686,2.7898,0.0,0.0,0.0,0.0,0.0,0.0,0.0,0.0,0.0,0.0,0.0,0.0,0.0,0.0,0.0,0.0,0.0,0.0,0.0,0.0,0.0,0.0,0.0,0.0,0.0,0.0,0.0,0.0,0.0,0.0,0.0,0.0,0.0,0.0,0.0,0.0,0.0,0.0,0.0,0.0,0.0,0.0,0.0,0.0,0.0,0.0,0.0,0.0,0.0,0.0,0.0,0.0,0.0,0.0,0.0,0.0,0.0,0.0,0.0,0.0,0.0,0.0,0.0,0.0,0.0,0.0,0.0,0.0,0.0,0.0,0.0,0.0,0.0,0.0,0.0,0.0,0.0,0.0,0.0,0.0,0.0,0.0,0.0,0.0,0.0,0.0,0.0,0.0,0.0,0.0,0.0,0.0,0.0,0.0,0.0,0.0,0.0,0.0,0.0,0.0,0.0,0.0,0.0,0.0,0.0,0.0,0.0,0.0,3.036,3.0715,3.1327,3.1282,3.0642,2.9336,2.8553,0.0,0.0,0.0,0.0,0.0,0.0,0.0,0.0,0.0,0.0,0.0,0.0,0.0,0.0,0.0,0.0,0.0,0.0,0.0,0.0,0.0,0.0,0.0,0.0,0.0,0.0,0.0,0.0,0.0,0.0,0.0,0.0,0.0,0.0,0.0,0.0,0.0,0.0,0.0,0.0,0.0,0.0,0.0,0.0,0.0,0.0,0.0,0.0,2.0126,0.0,0.0,0.0,0.0,0.0,0.0,0.0,0.0,0.0,0.0,0.0,0.0,0.0,0.0,0.0,0.0,0.0,0.0,0.0,0.0,0.0,0.0,0.0,0.0,0.0,0.0,0.0,0.0,0.0,0.0,0.0,0.0,0.0,0.0,0.0,0.0,0.0,0.0,0.0,0.0,0.0,0.0,0.0,0.0,0.0,0.0,0.0,0.0,0.0,0.0,0.0,0.0,0.0,0.0,0.0,0.0,0.0,0.0,0.0,3.1159,3.1816,3.1968,3.1929,3.1738,3.0655,2.9674,0.0,0.0,0.0,0.0,0.0,0.0,0.0,0.0,0.0,0.0,0.0,0.0,0.0,0.0,0.0,0.0,0.0,0.0,0.0,0.0,0.0,0.0,0.0,0.0,0.0,0.0,0.0,0.0,0.0,0.0,0.0,0.0,0.0,0.0,0.0,0.0,0.0,0.0,0.0,0.0,0.0,0.0,0.0,0.0,0.0,0.0,0.0,0.0,0.0,0.0,0.0,0.0,0.0,0.0,0.0,0.0,0.0,0.0,0.0,0.0,0.0,0.0,0.0,0.0,0.0,0.0,0.0,0.0,0.0,0.0,0.0,0.0,0.0,0.0,0.0,0.0,0.0,0.0,0.0,0.0,0.0,0.0,0.0,0.0,0.0,0.0,0.0,0.0,0.0,0.0,0.0,0.0,0.0,0.0,0.0,0.0,0.0,0.0,0.0,0.0,0.0,0.0,0.0,0.0,0.0,0.0,0.0,3.0674,3.1764,3.2816,3.2557,3.2485,3.2793,3.1902,3.0874,2.9801,0.0,0.0,0.0,0.0,0.0,0.0,0.0,0.0,0.0,0.0,0.0,0.0,0.0,0.0,0.0,0.0,0.0,0.0,0.0,0.0,0.0,0.0,0.0,0.0,0.0,0.0,0.0,0.0,0.0,0.0,0.0,0.0,0.0,0.0,0.0,0.0,0.0,0.0,1.7999,1.806,0.0,0.0,0.0,0.0,0.0,0.0,0.0,0.0,2.0842,0.0,0.0,0.0,0.0,0.0,0.0,0.0,0.0,0.0,0.0,0.0,0.0,0.0,0.0,0.0,0.0,0.0,0.0,0.0,0.0,0.0,0.0,0.0,0.0,0.0,0.0,0.0,0.0,0.0,0.0,0.0,0.0,0.0,0.0,0.0,0.0,0.0,0.0,0.0,0.0,0.0,0.0,0.0,0.0,0.0,0.0,0.0,0.0,0.0,0.0,0.0,0.0,0.0,0.0,0.0,0.0,2.9938,3.1005,3.193,3.2764,3.2734,3.2719,3.2793,3.1945,3.1289,3.0825,0.0,0.0,0.0,0.0,0.0,0.0,0.0,0.0,0.0,0.0,0.0,0.0,0.0,0.0,0.0,0.0,0.0,0.0,0.0,0.0,0.0,0.0,0.0,0.0,0.0,0.0,0.0,0.0,0.0,0.0,0.0,0.0,0.0,0.0,0.0,0.0,0.0,0.0,0.0,1.8986,1.8924,0.0,0.0,0.0,0.0,0.0,0.0,0.0,0.0,2.1329,0.0,0.0,0.0,0.0,0.0,0.0,0.0,0.0,0.0,0.0,0.0,0.0,0.0,0.0,0.0,0.0,0.0,0.0,0.0,0.0,0.0,0.0,0.0,0.0,0.0,0.0,0.0,0.0,0.0,0.0,0.0,0.0,0.0,0.0,0.0,0.0,0.0,0.0,0.0,0.0,0.0,0.0,0.0,0.0,0.0,0.0,0.0,0.0,0.0,0.0,0.0,0.0,0.0,0.0,0.0,3.0782,3.1643,3.2413,3.3233,3.31,3.31,3.3246,3.2442,3.1828,0.0,0.0,0.0,0.0,0.0,0.0,0.0,0.0,0.0,0.0,0.0,0.0,0.0,0.0,0.0,0.0,0.0,0.0,0.0,0.0,0.0,0.0,0.0,0.0,0.0,0.0,0.0,0.0,0.0,0.0,0.0,0.0,0.0,0.0,0.0,0.0,0.0,0.0,0.0,0.0,1.9743,2.003,2.0068,0.0,0.0,0.0,0.0,0.0,0.0,2.1352,2.1273,0.0,0.0,0.0,0.0,0.0,0.0,0.0,0.0,0.0,0.0,0.0,0.0,0.0,0.0,0.0,0.0,0.0,0.0,0.0,0.0,0.0,0.0,0.0,0.0,0.0,0.0,0.0,0.0,0.0,0.0,0.0,0.0,0.0,0.0,0.0,0.0,0.0,0.0,0.0,0.0,0.0,0.0,0.0,0.0,0.0,0.0,0.0,0.0,0.0,0.0,0.0,0.0,0.0,0.0,0.0,3.1513,3.2128,3.282,3.3656,3.3435,3.3435,3.364,3.2943,3.2268,0.0,0.0,0.0,0.0,0.0,0.0,0.0,0.0,0.0,0.0,0.0,0.0,0.0,0.0,0.0,0.0,0.0,0.0,0.0,0.0,0.0,0.0,0.0,0.0,0.0,0.0,0.0,0.0,0.0,0.0,0.0,0.0,0.0,0.0,0.0,0.0,0.0,0.0,0.0,0.0,0.0,2.1117,2.0762,2.1444,0.0,0.0,0.0,0.0,2.1515,2.1511,0.0,0.0,0.0,0.0,0.0,0.0,0.0,0.0,0.0,0.0,0.0,0.0,0.0,0.0,0.0,0.0,0.0,0.0,0.0,0.0,0.0,0.0,0.0,0.0,0.0,0.0,0.0,0.0,0.0,0.0,0.0,0.0,0.0,0.0,0.0,0.0,0.0,0.0,0.0,0.0,0.0,0.0,0.0,0.0,0.0,0.0,0.0,0.0,0.0,0.0,0.0,0.0,0.0,0.0,0.0,0.0,3.1554,3.2158,3.282,3.3656,3.364,3.364,3.3669,3.2987,3.2402,0.0,0.0,0.0,0.0,0.0,0.0,0.0,0.0,0.0,0.0,0.0,0.0,0.0,0.0,0.0,0.0,0.0,0.0,0.0,0.0,0.0,0.0,0.0,0.0,0.0,0.0,0.0,0.0,0.0,0.0,0.0,0.0,0.0,0.0,0.0,0.0,0.0,0.0,0.0,0.0,0.0,2.2158,2.2903,2.266,2.2338,0.0,0.0,2.3066,2.2741,2.2914,0.0,0.0,0.0,0.0,0.0,0.0,0.0,0.0,0.0,0.0,0.0,0.0,0.0,0.0,0.0,0.0,0.0,0.0,0.0,0.0,0.0,0.0,0.0,0.0,0.0,0.0,0.0,0.0,0.0,0.0,0.0,0.0,0.0,0.0,0.0,0.0,0.0,0.0,0.0,0.0,0.0,0.0,0.0,0.0,0.0,0.0,0.0,0.0,0.0,0.0,0.0,0.0,0.0,0.0,0.0,3.0965,3.1848,3.2519,3.2983,3.3304,3.3507,3.3369,3.2939,3.2819,3.2637,0.0,0.0,0.0,0.0,0.0,0.0,0.0,0.0,0.0,0.0,0.0,0.0,0.0,0.0,0.0,0.0,0.0,0.0,0.0,0.0,0.0,0.0,0.0,0.0,0.0,0.0,0.0,0.0,0.0,0.0,0.0,0.0,0.0,0.0,0.0,0.0,0.0,0.0,0.0,0.0,0.0,0.0,2.385,2.3752,0.0,0.0,0.0,2.3482,2.2995,0.0,0.0,0.0,0.0,0.0,0.0,0.0,0.0,0.0,0.0,0.0,0.0,0.0,0.0,0.0,0.0,0.0,0.0,0.0,0.0,0.0,0.0,0.0,0.0,0.0,0.0,0.0,0.0,0.0,0.0,0.0,0.0,0.0,0.0,0.0,0.0,0.0,0.0,0.0,0.0,0.0,0.0,0.0,0.0,0.0,0.0,0.0,0.0,0.0,0.0,0.0,0.0,0.0,0.0,0.0,0.0,0.0,3.2047,3.2676,3.2937,3.2876,3.3062,3.2887,3.2227,3.2235,0.0,0.0,0.0,0.0,0.0,0.0,0.0,0.0,0.0,0.0,0.0,0.0,0.0,0.0,0.0,0.0,0.0,0.0,0.0,0.0,0.0,0.0,0.0,0.0,0.0,0.0,0.0,2.1189,0.0,0.0,0.0,0.0,0.0,0.0,0.0,0.0,0.0,0.0,0.0,0.0,0.0,0.0,2.4709,2.4542,2.4588,2.4546,0.0,0.0,2.3897,2.3522,2.3621,2.3541,0.0,0.0,0.0,0.0,0.0,0.0,0.0,0.0,0.0,0.0,0.0,0.0,0.0,0.0,0.0,0.0,0.0,0.0,0.0,0.0,0.0,0.0,0.0,0.0,0.0,0.0,0.0,0.0,0.0,0.0,0.0,0.0,0.0,0.0,0.0,0.0,0.0,0.0,0.0,0.0,0.0,0.0,0.0,0.0,0.0,0.0,0.0,0.0,0.0,0.0,0.0,0.0,0.0,0.0,3.1249,3.1888,3.2199,3.2362,3.2373,3.2421,3.2277,3.1929,3.1071,3.0962,0.0,0.0,0.0,0.0,0.0,0.0,0.0,0.0,0.0,0.0,0.0,0.0,0.0,0.0,0.0,0.0,0.0,0.0,0.0,0.0,0.0,0.0,0.0,0.0,0.0,0.0,0.0,0.0,0.0,0.0,0.0,0.0,0.0,0.0,0.0,0.0,0.0,0.0,0.0,0.0,0.0,2.4807,2.5107,2.483,2.4706,0.0,2.477,2.4663,2.4941,2.493,2.47,2.3843,0.0,0.0,0.0,0.0,0.0,0.0,0.0,0.0,0.0,0.0,0.0,0.0,0.0,0.0,0.0,0.0,0.0,0.0,0.0,0.0,0.0,0.0,0.0,0.0,0.0,0.0,0.0,0.0,0.0,0.0,0.0,0.0,0.0,0.0,0.0,0.0,0.0,0.0,0.0,0.0,0.0,0.0,0.0,0.0,0.0,0.0,0.0,0.0,0.0,0.0,0.0,0.0,0.0,3.2205,3.2131,3.1911,3.1739,3.1607,3.1544,3.1199,3.0554,3.0517,3.0856,0.0,0.0,0.0,0.0,0.0,0.0,0.0,0.0,0.0,0.0,0.0,0.0,0.0,0.0,0.0,0.0,0.0,0.0,0.0,0.0,0.0,0.0,0.0,0.0,0.0,0.0,0.0,0.0,2.3797,2.4181,2.4264,0.0,0.0,0.0,0.0,0.0,0.0,0.0,0.0,0.0,0.0,2.5687,2.5882,2.5943,0.0,0.0,2.5663,2.5396,2.5117,2.509,2.4796,2.395,2.371,0.0,0.0,0.0,0.0,0.0,0.0,0.0,0.0,0.0,0.0,0.0,0.0,0.0,0.0,0.0,0.0,0.0,0.0,0.0,0.0,0.0,0.0,0.0,0.0,0.0,0.0,0.0,0.0,0.0,0.0,0.0,0.0,0.0,0.0,0.0,0.0,0.0,0.0,0.0,0.0,0.0,0.0,0.0,0.0,0.0,0.0,0.0,0.0,0.0,0.0,0.0,0.0,3.255,3.2029,3.1343,3.0856,3.0741,3.0583,3.0086,2.941,2.9696,3.0134,0.0,0.0,0.0,0.0,0.0,0.0,0.0,0.0,0.0,0.0,0.0,0.0,0.0,0.0,0.0,0.0,0.0,0.0,0.0,0.0,0.0,0.0,0.0,0.0,0.0,0.0,0.0,0.0,2.4844,2.5197,2.5296,0.0,0.0,0.0,0.0,0.0,0.0,0.0,0.0,0.0,0.0,2.6472,2.6519,2.6694,2.672,2.6426,2.6118,2.5743,2.5422,2.5235,2.4914,2.4298,0.0,0.0,0.0,0.0,0.0,0.0,0.0,0.0,0.0,0.0,0.0,0.0,0.0,0.0,0.0,0.0,0.0,0.0,0.0,0.0,0.0,0.0,0.0,0.0,0.0,0.0,0.0,3.1374,0.0,0.0,3.0296,0.0,0.0,0.0,0.0,0.0,0.0,0.0,0.0,0.0,0.0,0.0,0.0,0.0,0.0,0.0,0.0,0.0,0.0,0.0,0.0,0.0,0.0,3.2004,3.1422,3.0365,2.9755,2.9733,2.9512,2.9184,2.8632,2.839,2.8516,2.9131,0.0,0.0,0.0,0.0,0.0,0.0,0.0,0.0,0.0,0.0,0.0,0.0,0.0,0.0,0.0,0.0,0.0,0.0,0.0,0.0,0.0,0.0,0.0,0.0,0.0,0.0,2.5106,2.5291,2.5506,0.0,0.0,0.0,0.0,0.0,0.0,0.0,0.0,0.0,2.6434,2.6933,2.7162,2.6854,2.6827,2.6747,2.6453,2.5919,2.5625,2.5931,2.5503,2.5064,0.0,0.0,0.0,0.0,0.0,0.0,0.0,0.0,0.0,0.0,0.0,0.0,0.0,0.0,0.0,0.0,0.0,0.0,0.0,0.0,0.0,0.0,0.0,0.0,0.0,0.0,0.0,3.2278,3.2127,0.0,0.0,0.0,0.0,0.0,0.0,0.0,0.0,0.0,0.0,0.0,3.1981,3.1959,0.0,0.0,0.0,0.0,0.0,0.0,0.0,0.0,0.0,0.0,0.0,0.0,3.2733,3.2406,3.03,2.929,2.9465,2.8752,2.8272,2.8079,2.7649,2.7746,2.8408,0.0,0.0,0.0,0.0,0.0,0.0,0.0,0.0,0.0,0.0,0.0,0.0,0.0,0.0,0.0,0.0,0.0,0.0,0.0,0.0,0.0,0.0,0.0,0.0,0.0,2.6006,0.0,0.0,0.0,0.0,0.0,0.0,0.0,0.0,0.0,0.0,2.671,2.7037,2.7243,2.7283,2.7403,2.7697,2.7522,2.7362,0.0,0.0,0.0,0.0,0.0,0.0,0.0,0.0,0.0,0.0,0.0,0.0,0.0,0.0,2.3355,2.3242,2.366,2.4108,2.4384,0.0,0.0,0.0,0.0,0.0,0.0,0.0,0.0,0.0,0.0,0.0,0.0,0.0,0.0,3.3062,3.3066,3.2505,0.0,0.0,0.0,0.0,0.0,0.0,0.0,0.0,3.3001,3.2678,3.236,3.2453,3.2277,0.0,3.1741,3.2123,0.0,0.0,0.0,0.0,0.0,0.0,0.0,0.0,3.2998,3.2155,2.9785,2.8535,2.856,2.7935,2.7453,2.726,2.6971,2.7012,2.7442,2.7987,2.8326,0.0,0.0,0.0,0.0,0.0,0.0,0.0,0.0,0.0,0.0,0.0,0.0,0.0,0.0,0.0,0.0,0.0,0.0,0.0,0.0,0.0,0.0,0.0,2.6965,0.0,0.0,0.0,0.0,0.0,0.0,0.0,0.0,0.0,2.7089,2.7418,2.7756,2.7991,2.7923,2.7991,2.8152,0.0,0.0,0.0,0.0,0.0,0.0,0.0,2.5563,2.5144,2.5042,2.5029,2.5069,2.4797,2.4417,2.3798,0.0,0.0,2.3901,2.4221,2.4614,2.5031,2.4925,2.472,2.4748,2.4429,2.4227,0.0,0.0,0.0,0.0,0.0,0.0,0.0,0.0,3.4463,3.4173,0.0,3.3822,0.0,0.0,0.0,0.0,3.5384,3.4945,0.0,0.0,3.3677,3.3309,3.2558,3.3518,3.3363,3.2266,3.2599,3.2408,3.1711,3.1843,0.0,0.0,0.0,0.0,0.0,0.0,3.2678,3.0836,2.8884,2.7621,2.7187,2.7138,2.6826,2.6294,2.6245,2.6312,2.6336,2.6676,2.6902,2.7021,2.785,0.0,0.0,0.0,0.0,0.0,0.0,0.0,0.0,0.0,0.0,0.0,0.0,0.0,0.0,0.0,0.0,0.0,0.0,0.0,0.0,2.792,0.0,0.0,0.0,0.0,0.0,0.0,0.0,0.0,0.0,2.8439,2.7948,2.8107,2.8312,2.8564,0.0,0.0,0.0,0.0,2.7884,2.7014,2.6412,2.6104,2.6104,2.6105,2.6074,2.5996,0.0,0.0,2.5621,2.4823,2.4216,2.3763,2.4335,2.4598,2.4004,2.395,2.4093,2.4449,2.4555,2.4457,2.4421,2.4298,2.3959,3.9293,0.0,0.0,0.0,0.0,3.7111,3.6615,3.6,3.5703,3.5623,3.5561,3.5245,0.0,0.0,0.0,0.0,0.0,0.0,3.4602,3.431,3.3792,3.3481,3.3426,3.2866,3.2526,3.2374,3.1612,3.1229,3.1207,3.0602,3.1422,3.3579,0.0,0.0,0.0,0.0,3.2421,3.0941,2.9238,2.8015,2.7341,2.7,2.6471,2.5761,2.5712,2.5801,2.604,2.5919,2.6128,2.6611,2.6952,0.0,0.0,0.0,0.0,0.0,0.0,0.0,0.0,0.0,0.0,0.0,0.0,0.0,0.0,0.0,0.0,0.0,0.0,0.0,2.7857,2.8276,2.8331,0.0,0.0,0.0,0.0,0.0,0.0,0.0,0.0,0.0,2.8482,2.858,2.8804,0.0,0.0,2.8393,2.8205,2.8311,2.8315,2.8247,2.7731,0.0,2.7663,2.6932,2.6316,2.6305,2.6457,2.6368,2.5648,2.572,2.5688,2.5057,2.5144,2.5316,2.5422,2.5299,2.5271,2.5388,2.5388,2.5388,2.5388,2.528,2.5198,4.0231,3.9495,3.8786,3.8246,3.7851,3.7999,3.7672,3.7043,3.7002,3.7009,3.6933,3.6402,3.6551,3.7167,3.6894,0.0,0.0,0.0,3.5311,3.4952,3.4382,3.4076,3.4053,3.3214,3.2754,3.2625,3.1877,3.1316,3.0954,3.0584,3.1096,3.2625,0.0,3.3588,3.3861,3.2869,3.1723,3.0474,2.9014,2.7851,2.6952,2.6656,2.6294,2.5798,2.5712,2.5728,2.5889,2.556,2.5617,2.6102,2.6411,2.6872,0.0,0.0,0.0,0.0,0.0,0.0,0.0,0.0,0.0,0.0,0.0,2.6966,2.713,0.0,0.0,0.0,2.902,2.8786,2.8368,2.8678,0.0,0.0,0.0,0.0,0.0,0.0,0.0,2.7911,2.8551,2.889,2.866,2.8708,2.8868,2.8975,2.8724,2.85,2.8393,0.0,2.8314,2.8368,2.7947,2.7744,2.7907,2.7311,2.6811,2.6637,2.6554,2.6391,2.5996,2.6152,2.6202,2.5809,2.5598,2.5594,2.5824,2.579,2.575,2.5936,2.5982,2.5917,2.5814,2.5667,2.5584,4.1277,4.0951,3.9862,3.913,3.8641,3.8938,3.8808,3.8354,3.8307,3.8307,3.8197,3.7367,3.7211,3.7628,3.7536,0.0,3.6792,3.6745,3.6186,3.5326,3.5149,3.4866,3.4407,3.419,3.3678,3.2962,3.2941,3.2278,3.1029,3.1336,3.1447,3.1202,3.1243,3.1626,3.23,3.1725,3.0824,2.9603,2.8468,2.7319,2.6272,2.62,2.6179,2.6179,2.6013,2.5955,2.5933,2.5545,2.5321,2.5486,2.6084,2.6314,2.6118,0.0,0.0,0.0,0.0,0.0,0.0,0.0,0.0,0.0,0.0,0.0,0.0,0.0,0.0,2.9968,3.009,0.0,2.9028,2.9001,0.0,0.0,0.0,2.8179,2.8179,2.8221,2.8221,2.8179,0.0,0.0,2.8564,2.8548,2.8655,2.8921,2.8948,2.8815,2.8617,2.8382,2.814,2.7941,2.7604,2.7417,2.7579,2.7473,2.7256,2.6945,2.6612,2.6361,2.6294,2.6121,2.5974,2.5935,2.5669,2.5445,2.5483,2.5483,2.5606,2.5951,2.6093,2.6057,2.5797,2.5474,2.5351,4.2866,4.276,4.2208,4.1296,4.0236,4.0347,4.0136,3.9767,3.9394,3.9042,3.8694,3.8069,3.7893,3.7941,3.7602,3.7117,3.6553,3.6192,3.5655,3.5047,3.4956,3.4773,3.4479,3.4267,3.3833,3.3242,3.3043,3.2479,3.1507,3.1263,3.0925,3.0437,3.0042,3.0457,3.1519,3.14,3.0814,2.9745,2.8866,2.7795,2.6559,2.6286,2.6179,2.6179,2.6136,2.6142,2.6142,2.6035,2.5825,2.5512,2.5687,2.5931,2.6383,2.8181,0.0,0.0,0.0,0.0,0.0,0.0,0.0,0.0,0.0,2.8522,2.8723,0.0,2.9635,0.0,3.0292,2.9934,2.8592,2.8784,0.0,0.0,2.8232,2.8179,2.8179,2.8473,2.8516,2.8221,2.8555,2.8651,2.8328,2.8158,2.8231,2.8612,2.8511,2.8366,2.8312,2.8485,2.8642,2.8518,2.8395,2.8451,2.8314,2.7667,2.7019,2.6755,2.6336,2.6051,2.6051,2.582,2.5614,2.5614,2.5408,2.5228,2.5202,2.5202,2.5178,2.5127,2.5353,2.565,2.5596,2.5388,2.5305,4.4582,4.4496,4.4033,4.3327,4.2467,4.1659,4.1187,4.103,4.0314,3.9875,3.9589,3.8681,3.8117,3.7915,3.7359,3.6954,3.665,3.6345,3.5984,3.5489,3.5286,3.5019,3.4742,3.4404,3.4071,3.3746,3.3407,3.2827,3.2169,3.1617,3.1088,3.0533,3.0257,3.0431,3.1111,3.0839,3.031,2.9628,2.8809,2.8067,2.748,2.7093,2.737,2.8402,2.8364,2.8752,2.9628,2.9359,2.897,2.8584,2.8512,2.8532,2.8647,3.0267,3.1165,0.0,0.0,0.0,0.0,0.0,0.0,0.0,0.0,0.0,0.0,0.0,2.9392,2.9095,2.942,2.9215,2.8111,2.813,2.8042,2.7598,2.7757,2.7883,2.791,2.8263,2.8431,2.8221,2.8221,2.8136,2.791,2.7722,2.7689,2.7947,2.7964,2.7971,2.8053,2.8159,2.8163,2.7968,2.7883,2.783,2.7766,2.7148,2.6607,2.6349,2.6092,2.5928,2.5928,2.5801,2.5674,2.5674,2.5547,2.5471,2.5445,2.5445,2.5395,2.5322,2.5448,2.544,2.5048,2.4855,2.483,4.6241,4.6071,4.5528,4.5083,4.4622,4.296,4.2185,4.1999,4.1141,4.0672,4.0401,3.9,3.8201,3.7781,3.7283,3.6991,3.683,3.6858,3.6691,3.628,3.5812,3.5439,3.5167,3.4729,3.4496,3.4391,3.39,3.3382,3.2812,3.2139,3.1567,3.1099,3.1022,3.0998,3.0974,3.0298,2.9804,2.9483,2.8872,2.8662,2.876,2.8454,2.936,3.1386,3.139,3.2186,3.3983,3.3416,3.2852,3.2531,3.2381,3.184,3.0935,3.2489,3.28,0.0,3.1742,0.0,0.0,0.0,0.0,0.0,0.0,0.0,0.0,2.9028,2.8504,2.7902,2.8219,2.8207,2.7586,2.7325,2.7088,2.6834,2.7148,2.7402,2.7445,2.7757,2.801,2.801,2.7656,2.7402,2.7402,2.7251,2.7129,2.7259,2.7375,2.7539,2.7749,2.7645,2.743,2.6953,2.691,2.7055,2.6808,2.6554,2.6343,2.6073,2.5873,2.5864,2.5807,2.5798,2.5747,2.5747,2.5656,2.5672,2.5738,2.5697,2.5697,2.5605,2.5621,2.5425,2.4785,2.4568,2.4504,4.7377,4.6877,4.6537,4.6033,4.5386,4.4072,4.3073,4.2455,4.1795,4.0853,3.9694,3.8929,3.852,3.8411,3.8302,3.7836,3.7236,3.7182,3.6801,3.6154,3.6047,3.5832,3.551,3.5671,3.5485,3.5004,3.4636,3.408,3.3345,3.2539,3.1862,3.1365,3.1095,3.0998,3.0998,0.0,0.0,0.0,3.0722,3.0829,3.0248,3.1184,3.2097,3.2926,3.3324,0.0,3.4618,3.4195,3.3735,3.3531,3.2848,0.0,0.0,0.0,0.0,0.0,0.0,0.0,0.0,0.0,0.0,0.0,2.7606,2.7629,2.7867,2.7738,2.7501,2.7255,2.7785,2.7871,2.7147,2.7151,2.7088,2.6834,2.6868,2.691,2.691,2.7063,2.708,2.7037,2.6995,2.6936,2.6961,2.6737,2.6784,2.7093,2.7096,2.7028,2.7116,2.7346,2.7513,2.7452,2.7357,2.7401,2.7375,2.6845,2.6455,2.632,2.5848,2.5555,2.5531,2.536,2.5196,2.5238,2.5002,2.4897,2.4897,2.4831,2.4963,2.4873,2.4897,2.4989,2.5486,2.5489,2.5459,4.8212,4.7821,4.6852,4.6011,0.0,4.4195,4.3285,4.238,4.1852,4.0996,3.9954,3.9391,3.8857,3.8383,3.8102,3.7491,3.6666,3.664,3.6341,3.5832,3.6163,3.6115,3.5851,3.6256,3.6259,3.5805,3.5128,3.4455,3.3851,3.2867,3.2256,3.1988,3.1843,3.1795,3.1795,3.1528,3.1177,3.0772,3.0772,3.0615,3.0381,3.0449,3.124,3.2609,3.2942,0.0,0.0,0.0,0.0,0.0,0.0,0.0,0.0,3.0255,0.0,2.7795,2.8305,2.8316,2.7524,2.706,2.6759,2.6618,2.6317,2.6357,2.6852,2.6635,2.6418,2.631,2.6728,2.6848,2.648,2.6565,2.6649,2.6525,2.6741,2.687,2.687,2.7086,2.7172,2.7172,2.7,2.687,2.687,2.6685,2.6599,2.6721,2.6787,2.6756,2.6647,2.7001,2.7209,2.6965,2.6877,2.6877,2.6877,2.6647,2.6331,2.6306,2.6035,2.5832,2.5788,2.5668,2.5596,2.5572,2.5355,2.5186,2.5162,2.509,2.5035,2.4993,2.5035,2.5035,2.5305,2.5231,2.5092,4.8911,4.8449,4.6946,4.5759,4.4914,4.4184,4.3253,4.2133,4.1442,0.0,0.0,3.9576,3.8834,3.8073,3.7579,3.6961,3.6245,3.6219,3.6035,3.5756,3.6271,3.6398,3.6275,3.6669,3.6815,3.6685,3.5692,3.4956,3.4588,3.3494,3.2919,3.2785,3.2712,3.2585,3.2373,3.1825,3.1464,3.1254,3.0446,3.0143,3.0327,2.967,3.018,3.2182,3.2314,3.2866,3.3854,3.3324,3.2586,3.1698,3.147,3.0876,2.987,2.9886,2.9253,2.7843,2.718,2.6569,2.5794,2.5464,2.5275,2.5232,2.5197,2.5371,2.5993,2.5696,2.5468,2.5468,2.5647,2.5778,2.5778,2.5944,2.6042,2.6086,2.6482,2.679,2.679,2.7097,2.7272,2.7341,2.6965,2.6702,2.6614,2.6524,2.6411,2.6265,2.6361,2.6503,2.6387,2.6539,2.6573,2.6213,2.6169,2.6121,2.6097,2.6049,2.6026,2.5981,2.5934,2.5954,2.5954,2.5954,2.5954,2.5794,2.5763,2.56,2.5576,2.5366,2.529,2.5266,2.5266,2.5203,2.4855,2.4677,2.4562,4.9616,4.8174,4.7091,4.6253,4.5503,4.4528,4.3248,4.1745,4.065,4.0138,3.9959,3.8537,3.7814,3.7669,3.761,3.7339,3.7025,3.7025,3.6873,3.6594,3.6481,3.664,3.7105,3.6984,3.7167,3.7509,3.6888,3.6297,3.5705,3.4832,3.4169,3.3614,3.3147,3.2612,3.1848,3.1221,3.09,3.0895,3.1158,3.1349,3.1373,3.2179,3.2736,3.3021,3.3407,3.3765,3.3886,3.3116,3.2756,3.2577,3.1738,3.0218,2.7954,2.7505,2.6195,2.3859,2.3917,2.403,2.4002,2.4344,2.4451,2.4262,2.4623,2.4897,2.5011,2.4966,2.4921,2.4898,2.5173,2.5329,2.5306,2.5502,2.5695,2.5648,2.6022,2.6306,2.6355,2.6467,2.6511,2.6491,2.635,2.6178,2.5896,2.5929,2.594,2.5719,2.5902,2.6062,2.6175,2.6132,2.5949,2.5741,2.5695,2.5672,2.574,2.5488,2.5418,2.5328,2.5233,2.5185,2.5185,2.5185,2.5185,2.505,2.5071,2.5048,2.5025,2.4914,2.4933,2.4977,2.4954,2.4889,2.4734,2.4686,2.4548,4.9763,4.8842,4.7312,4.6213,4.5481,4.3794,4.2363,4.1221,4.0258,3.9754,3.9586,3.8819,3.8239,3.7723,3.7573,3.7252,3.6643,3.6495,3.6346,3.6282,3.6866,3.7286,3.7554,3.8093,3.8253,3.8037,3.7432,3.664,3.5728,3.5004,3.4251,3.3478,3.2899,3.2452,3.1997,3.1432,3.115,3.1127,3.0804,3.0688,3.0688,3.0889,3.0786,3.0303,3.0516,3.0194,2.9338,2.8962,2.8588,2.8194,2.7656,2.67,2.5451,2.5043,2.4287,2.2988,2.3069,2.3491,2.4085,2.4551,2.4678,2.4427,2.4206,2.4188,2.4366,2.4671,2.481,2.481,2.5118,2.5374,2.5374,2.5697,2.6039,2.6291,2.6495,2.6723,2.6996,2.7087,2.6951,2.6654,2.6559,2.6283,2.5808,2.574,2.5696,2.5532,2.5633,2.5688,2.5736,2.5625,2.5658,2.5877,2.5857,2.5788,2.5765,2.556,2.5468,2.54,2.5308,2.524,2.5217,2.5217,2.5217,2.5217,2.5126,2.5034,2.5034,2.4897,2.4852,2.4829,2.4829,2.474,2.4474,2.4075,2.3676,4.979,4.9277,4.7477,4.614,4.4974,4.273,4.1426,4.0878,3.9747,3.9124,3.8998,3.8987,3.8549,3.7779,3.7582,3.7115,3.6491,3.6237,3.6262,3.648,3.7337,3.7803,3.7967,3.8898,3.8834,3.8099,3.7601,3.6841,3.5821,3.5304,3.4541,3.3489,3.2642,3.2249,3.2123,3.1499,3.1166,3.1122,3.0439,2.9998,2.9888,2.9357,2.8709,2.7935,2.7804,2.7016,2.5679,2.5385,2.4981,2.4397,2.4188,2.3946,2.3776,2.3625,2.3436,2.319,2.3254,2.3721,2.4528,2.4815,2.4848,2.4515,2.4107,2.3924,2.4146,2.4652,2.488,2.485,2.5116,2.5304,2.5376,2.5774,2.6266,2.6595,2.6899,2.711,2.7531,2.7625,2.7484,2.704,2.6806,2.6388,2.5947,2.5672,2.5555,2.5442,2.5543,2.5475,2.5303,2.526,2.5556,2.5834,2.587,2.5621,2.5645,2.551,2.5397,2.5421,2.5307,2.5216,2.5262,2.5285,2.5285,2.5217,2.5082,2.4947,2.4969,2.4812,2.4654,2.461,2.461,2.4453,2.4005,2.3332,2.282,5.0117,4.8552,4.7408,4.5828,4.3846,4.1819,4.0887,4.0547,3.8871,3.8043,3.8049,3.7984,3.7802,3.7473,3.7424,3.7338,3.7313,3.7289,3.7553,3.8002,3.8014,3.8135,3.8371,3.8359,3.8018,3.7754,3.7609,3.7251,3.6529,3.641,3.5692,3.4263,3.2847,3.2033,3.1693,3.1029,3.0608,3.0608,3.05,3.0262,2.9809,2.9342,2.8773,2.8199,2.761,2.6935,2.6071,2.533,2.4813,2.4551,2.4362,2.4283,2.4211,2.4245,2.4003,2.3606,2.4051,2.444,2.4588,2.4608,2.4438,2.3967,2.4277,2.4437,2.4546,2.5014,2.5173,2.4944,2.4876,2.4945,2.4902,2.5348,2.5653,2.5864,2.6523,2.704,2.711,2.7087,2.7017,2.704,2.6618,2.615,2.5658,2.5542,2.5464,2.5347,2.5637,2.5776,2.5583,2.5496,2.5426,2.5464,2.523,2.4996,2.4953,2.4906,2.496,2.4913,2.4736,2.4742,2.4723,2.4568,2.4345,2.484,2.4546,2.4459,2.45,2.4364,2.4191,2.4237,2.4191,2.4008,2.355,2.3045,2.2663,5.0464,4.9266,4.8103,4.5833,4.3153,4.1778,4.076,3.9902,3.9106,3.8378,3.7809,3.8077,3.8049,3.771,3.7784,3.7894,3.787,3.7517,3.7748,3.8349,3.8225,3.8499,3.8955,3.889,3.8517,3.8048,3.7987,3.7506,3.6602,3.5501,3.4625,3.3992,3.2677,3.1929,3.1782,3.1495,3.1332,3.1311,3.1052,3.0815,3.0578,3.0148,2.9477,2.868,2.8378,2.7632,2.642,2.5952,2.5599,2.5173,2.4816,2.4627,2.4627,2.4453,2.4192,2.4075,2.4528,2.4829,2.4721,2.4582,2.4412,2.4021,2.3783,2.3926,2.4528,2.4829,2.5092,2.5537,2.5518,2.5389,2.526,2.536,2.5622,2.5957,2.6388,2.6722,2.7057,2.7057,2.6961,2.6604,2.63,2.5878,2.5473,2.5439,2.5452,2.541,2.5776,2.5985,2.5899,2.5819,2.5586,2.5299,2.4948,2.4859,2.497,2.4893,2.4829,2.4807,2.4721,2.4657,2.461,2.4613,2.457,2.4657,2.4455,2.4434,2.4682,2.4332,2.4039,2.3993,2.378,2.3546,2.3359,2.2937,2.2455,5.0512,4.9508,4.776,4.5323,4.2695,4.1869,4.0772,3.9538,3.9194,3.8598,3.7893,3.8342,3.8445,3.8241,3.8327,3.8361,3.8377,3.823,3.8377,3.8859,3.8985,3.9163,3.9351,3.9263,3.8874,3.8186,3.8012,3.7629,3.6706,3.5304,3.4446,3.4056,3.3033,3.2356,3.2107,3.2043,3.1978,3.1892,3.1547,3.1397,3.1354,3.1052,3.0404,2.9411,2.9176,2.8476,2.7243,2.6939,2.6544,2.5871,2.5527,2.5336,2.5316,2.4867,2.4659,2.4705,2.4803,2.4879,2.4901,2.4621,2.4361,2.4225,2.3756,2.3876,2.4688,2.4931,2.5395,2.6143,2.6164,2.597,2.5755,2.5712,2.5858,2.6271,2.6347,2.6688,2.7029,2.7078,2.6887,2.6502,2.6152,2.5757,2.542,2.5561,2.5819,2.5798,2.5986,2.6235,2.6121,2.5893,2.5537,2.5167,2.4931,2.483,2.4948,2.4752,2.47,2.4742,2.4688,2.4577,2.4589,2.4546,2.4483,2.4287,2.4393,2.4377,2.4256,2.3972,2.3794,2.372,2.3436,2.3056,2.3016,2.2534,2.203,5.0259,4.8897,4.5936,4.4015,4.2692,4.1751,4.0723,3.9751,3.8808,3.8328,3.8305,3.8351,3.8644,3.9018,3.9015,3.8917,3.8958,3.9471,3.9747,3.9941,4.042,4.0219,3.9231,3.9206,3.8641,3.773,3.7642,3.7546,3.7323,3.6586,3.5919,3.5159,3.4243,3.342,3.2643,3.2387,3.215,3.2021,3.1935,3.1892,3.187,3.1849,3.1354,3.0462,2.987,2.9417,2.9031,2.831,2.756,2.6777,2.6449,2.6312,2.6257,2.5718,2.5452,2.549,2.4816,2.4605,2.4904,2.4601,2.4298,2.4332,2.4509,2.4933,2.5446,2.5769,2.6167,2.6544,2.6616,2.6487,2.6293,2.6164,2.6142,2.6192,2.6612,2.6887,2.6959,2.6964,2.692,2.6617,2.6163,2.5761,2.5512,2.6121,2.6143,2.6086,2.6206,2.6285,2.6067,2.5594,2.5297,2.5154,2.4941,2.477,2.4435,2.4417,2.4491,2.447,2.4433,2.4282,2.4082,2.3981,2.3949,2.3876,2.3898,2.3817,2.3673,2.3496,2.3375,2.3144,2.2744,2.2506,2.2344,2.163,2.1142,5.0131,4.7959,4.5615,4.4063,4.2968,4.2167,4.1203,4.0313,3.9941,3.9292,3.8763,3.9061,3.9264,3.9439,4.0234,4.0355,3.9864,3.9496,3.979,4.0441,3.9985,3.9691,3.9737,3.9235,3.8838,3.841,3.8386,3.8192,3.7791,3.691,3.6029,3.5336,3.4575,3.3834,3.3181,3.299,3.2883,3.2796,3.2517,3.2344,3.2323,3.2064,3.172,3.1418,3.0918,3.0224,2.9496,2.9181,2.8695,2.8038,2.7298,2.6818,2.6742,2.5984,2.5495,2.551,2.5133,2.4905,2.4934,2.464,2.4453,2.4321,2.4721,2.5262,2.5769,2.6305,2.6745,2.718,2.7314,2.7271,2.7047,2.6616,2.6179,2.6229,2.6378,2.655,2.6478,2.6478,2.6434,2.632,2.5901,2.5518,2.5342,2.5304,2.5303,2.5377,2.5533,2.5809,2.5889,2.5671,2.535,2.501,2.4717,2.4456,2.4187,2.4257,2.4305,2.4244,2.4183,2.4264,2.4195,2.4196,2.4206,2.4047,2.3866,2.3697,2.3599,2.3167,2.2981,2.2442,2.2039,2.1772,2.1535,2.0939,2.0381,4.9734,4.7033,4.5673,4.4349,4.3104,4.2439,4.1608,4.0807,4.0736,4.0198,3.95,3.987,4.0166,4.043,4.1337,4.1558,4.1136,4.0473,4.0349,4.0645,3.9921,3.9691,3.9676,3.9283,3.8972,3.89,3.89,3.8748,3.841,3.76,3.6732,3.5838,3.53,3.4595,3.3678,3.3486,3.3399,3.327,3.299,3.284,3.2796,3.2538,3.228,3.2107,3.1827,3.1218,3.0271,2.9931,2.9438,2.8751,2.7849,2.7171,2.6845,2.6309,2.5854,2.5591,2.5421,2.5251,2.5099,2.4891,2.4829,2.4892,2.5239,2.5745,2.6276,2.6796,2.7281,2.7597,2.7702,2.7702,2.7595,2.7068,2.6659,2.6595,2.6458,2.6415,2.6415,2.6415,2.6343,2.6057,2.5721,2.5296,2.4985,2.489,2.5023,2.5183,2.5362,2.5618,2.5845,2.5632,2.5334,2.4904,2.4644,2.4423,2.4189,2.4199,2.4228,2.4201,2.4046,2.4127,2.4077,2.4146,2.4146,2.4076,2.3977,2.3809,2.3414,2.2916,2.2391,2.1782,2.1472,2.1223,2.083,2.0408,1.9779,4.897,4.635,4.583,4.4659,4.3164,4.273,4.1966,4.116,4.1065,4.0901,4.0572,4.0665,4.1219,4.1798,4.2092,4.2304,4.246,4.2291,4.1508,4.0479,4.0748,4.0369,3.9514,3.9448,3.9237,3.902,3.8924,3.89,3.8851,3.8625,3.7883,3.6926,3.637,3.5452,3.4024,3.3852,3.3615,3.3442,3.3356,3.3313,3.3313,3.3227,3.2928,3.2605,3.2498,3.2114,3.147,3.0655,2.9851,2.9055,2.8187,2.7309,2.6692,2.6711,2.6614,2.5912,2.5647,2.5515,2.5533,2.5363,2.5486,2.5957,2.6225,2.6582,2.7064,2.7462,2.7757,2.7779,2.7789,2.7746,2.7767,2.7659,2.7456,2.7305,2.7017,2.6909,2.6909,2.6888,2.6598,2.5957,2.5516,2.515,2.486,2.4779,2.5038,2.5393,2.5559,2.5698,2.5879,2.5609,2.5171,2.4927,2.4769,2.4579,2.4321,2.415,2.4169,2.4112,2.3965,2.3878,2.354,2.347,2.3197,2.309,2.2869,2.2637,2.2376,2.1906,2.16,2.1107,2.0898,2.0552,2.0107,1.9651,1.9167,4.9532,4.7171,4.6329,4.525,4.3987,4.331,4.2684,4.2061,4.2037,4.1894,4.1749,4.2218,4.2613,4.2931,4.3244,4.3162,4.2854,4.261,4.1987,4.1233,4.082,4.052,4.0172,4.0081,3.996,3.9695,3.9502,3.9333,3.9099,3.8537,3.7697,3.6886,3.625,3.5504,3.4519,3.4455,3.4304,3.4067,3.3895,3.3744,3.355,3.3399,3.2996,3.2489,3.2405,3.1964,3.0947,3.0738,3.0246,2.942,2.8544,2.7677,2.69,2.6767,2.6653,2.6271,2.6063,2.6025,2.6266,2.6148,2.6309,2.6879,2.7309,2.7653,2.783,2.8164,2.836,2.8339,2.8285,2.8199,2.8124,2.7994,2.7822,2.7616,2.7478,2.7413,2.7318,2.6972,2.6471,2.6004,2.5287,2.4727,2.4353,2.4287,2.4303,2.4788,2.4827,2.4988,2.5488,2.5492,2.5326,2.5137,2.4929,2.4592,2.4259,2.3803,2.3552,2.3512,2.3431,2.3263,2.2974,2.2706,2.2425,2.2109,2.1863,2.1587,2.1313,2.1075,2.0804,2.0486,2.0173,1.9813,1.9424,1.8891,1.8352,5.0113,4.785,4.705,4.5967,4.477,4.4087,4.3504,4.2924,4.3115,4.3039,4.2913,4.3477,4.378,4.3796,4.4066,4.392,4.3475,4.323,4.2841,4.2123,4.1049,4.0655,4.049,4.0466,4.0394,4.0225,4.0056,3.9754,3.9318,3.8751,3.7902,3.6945,3.63,3.568,3.4885,3.4711,3.4582,3.4498,3.4303,3.4175,3.3895,3.353,3.2996,3.2465,3.2168,3.1474,3.0562,3.0573,3.0291,2.94,2.8518,2.7748,2.7086,2.6973,2.6781,2.6651,2.6673,2.6788,2.6918,2.6985,2.7219,2.7698,2.8005,2.8351,2.8475,2.8734,2.8856,2.8813,2.876,2.8673,2.8597,2.8511,2.8339,2.821,2.7897,2.7619,2.7365,2.6944,2.6348,2.5766,2.5062,2.4529,2.4122,2.375,2.3682,2.4135,2.4321,2.4453,2.4986,2.5137,2.5062,2.4839,2.4413,2.4173,2.4082,2.3559,2.297,2.2823,2.2709,2.2512,2.2247,2.2037,2.181,2.1598,2.1338,2.1033,2.073,2.0513,2.0279,1.9898,1.9443,1.9021,1.858,1.7994,1.7466,5.055,4.8311,4.785,4.6838,4.5511,4.5139,4.4428,4.3698,4.4255,4.4271,4.4088,4.4537,4.4715,4.4582,4.4505,4.4409,4.448,4.4263,4.3791,4.2935,4.189,4.1106,4.0776,4.0635,4.0563,4.049,4.0398,4.0034,3.9371,3.9008,3.8486,3.7037,3.6566,3.6031,3.5254,3.4862,3.4797,3.4711,3.469,3.4561,3.4259,3.3714,3.3003,3.2458,3.1858,3.1158,3.0344,3.0143,2.9811,2.9003,2.8205,2.7734,2.7544,2.7276,2.7145,2.7132,2.7484,2.7639,2.7674,2.7934,2.8245,2.8567,2.8569,2.8504,2.9068,2.9136,2.9093,2.9093,2.905,2.9028,2.9083,2.9062,2.8985,2.8942,2.8393,2.7696,2.7018,2.6859,2.6382,2.5507,2.4927,2.4652,2.4199,2.389,2.4022,2.4287,2.4491,2.4608,2.4816,2.4986,2.4627,2.4299,2.3995,2.3615,2.3507,2.267,2.2108,2.1985,2.1826,2.1565,2.1425,2.1269,2.1014,2.0807,2.0623,2.0337,2.0088,1.9792,1.9462,1.9016,1.8603,1.8191,1.7744,1.7233,1.6686,5.1353,5.0059,4.8607,4.7633,4.6985,4.6393,4.5849,4.5378,4.5572,4.5442,4.5308,4.5329,4.5679,4.5778,4.5075,4.4972,4.53,4.4767,4.3962,4.3303,4.2943,4.2158,4.1473,4.1141,4.0948,4.0759,4.0323,3.9769,3.9308,3.8397,3.7666,3.7166,3.6531,3.6037,3.5639,3.5553,3.5337,3.5058,3.5014,3.462,3.3944,3.3704,3.292,3.1626,3.139,3.0802,2.989,2.957,2.9265,2.8751,2.8227,2.8141,2.8471,2.8337,2.8323,2.8544,2.8602,2.8794,2.894,2.907,2.9328,2.9633,2.9506,2.9612,2.9588,2.9416,2.9351,2.9308,2.92,2.917,2.9148,2.9093,2.9093,2.9105,2.8867,2.8358,2.7634,2.7179,2.6596,2.5679,2.515,2.4842,2.4697,2.4551,2.4608,2.491,2.4948,2.4929,2.5005,2.4952,2.4653,2.4216,2.3836,2.3295,2.2725,2.1882,2.1311,2.1105,2.085,2.0545,2.0393,2.0242,1.9991,1.9709,1.9542,1.9325,1.9057,1.8788,1.8416,1.825,1.8013,1.7797,1.7134,1.6591,1.6007,5.2151,5.0788,4.9735,4.8755,4.7854,4.7312,4.6863,4.6413,4.6581,4.6573,4.644,4.6678,4.6791,4.6609,4.5991,4.5861,4.6192,4.5577,4.4811,4.4077,4.3268,4.2552,4.1981,4.1647,4.1363,4.0895,4.0522,3.9825,3.8946,3.8068,3.7471,3.6881,3.6514,3.6177,3.5962,3.594,3.579,3.5399,3.5111,3.458,3.3843,3.3223,3.2436,3.1481,3.1356,3.1068,3.0691,3.0445,2.9883,2.9288,2.888,2.8958,2.9455,2.9338,2.9341,2.9562,2.9658,2.9751,2.9818,3.0006,3.0129,3.0226,3.0277,3.0212,3.0083,2.9932,2.9846,2.9717,2.9588,2.948,2.945,2.9373,2.9428,2.945,2.9428,2.8888,2.7763,2.7316,2.6649,2.589,2.53,2.5024,2.5005,2.4891,2.491,2.4967,2.4797,2.4854,2.4967,2.4859,2.4548,2.4,2.3332,2.2653,2.2159,2.1443,2.0993,2.0756,2.0282,1.9882,1.9733,1.9622,1.9356,1.9155,1.8749,1.8442,1.8336,1.8214,1.8031,1.7894,1.7683,1.7202,1.65,1.5873,1.5294,5.3037,5.1194,5.1065,4.9985,4.8586,4.8311,4.7859,4.7087,4.7551,4.7615,4.7525,4.8054,4.7783,4.7321,4.6863,4.6883,4.7001,4.6765,4.6042,4.4937,4.3687,4.2514,4.2345,4.1891,4.1466,4.0948,4.09,3.9817,3.8695,3.8271,3.7628,3.6925,3.6608,3.6436,3.6242,3.6199,3.607,3.5513,3.4998,3.4334,3.3639,3.2885,3.2208,3.1677,3.1712,3.1878,3.1948,3.1757,3.1182,3.0216,2.9917,3.0032,3.0371,3.0271,3.0271,3.0373,3.0591,3.0623,3.0494,3.0719,3.0778,3.0643,3.0557,3.0492,3.0428,3.0363,3.0299,3.0148,3.0169,3.0019,2.9889,2.9903,2.9903,2.9846,2.9903,2.9123,2.7988,2.7454,2.6912,2.5813,2.5475,2.5288,2.5156,2.4948,2.474,2.5118,2.4929,2.4891,2.4747,2.4473,2.4036,2.3493,2.2706,2.1886,2.1501,2.1082,2.0804,2.0511,2.0007,1.9624,1.9573,1.9359,1.9127,1.884,1.8415,1.8195,1.8107,1.7953,1.7594,1.7235,1.6841,1.6285,1.5628,1.5072,1.4474,5.3891,5.3346,5.2271,5.1205,5.0308,5.0017,4.944,4.8676,4.8797,4.8685,4.8399,4.8054,4.8021,4.81,4.7539,4.7414,4.7895,4.7743,4.7237,4.5761,4.3988,4.3214,4.2756,4.1919,4.1184,4.0734,3.9716,3.8982,3.851,3.8039,3.7575,3.7174,3.6974,3.6845,3.65,3.6436,3.5961,3.5267,3.4893,3.4085,3.326,3.3079,3.2629,3.2094,3.225,3.2382,3.2266,3.2191,3.2123,3.1864,3.1388,3.1248,3.1484,3.1402,3.14,3.1581,3.1613,3.1564,3.1539,3.1385,3.1289,3.1074,3.088,3.0686,3.0492,3.0514,3.0492,3.0406,3.0406,3.0363,3.0277,3.032,3.0277,3.0255,3.0277,3.0025,2.9151,2.8367,2.7423,2.6664,2.6023,2.5647,2.5496,2.5421,2.5288,2.5269,2.5156,2.5024,2.4638,2.4218,2.3656,2.3187,2.2469,2.1712,2.1342,2.0975,2.0594,2.021,1.965,1.9257,1.9204,1.8925,1.8611,1.8359,1.8121,1.7914,1.7588,1.714,1.6695,1.6341,1.5988,1.5465,1.4942,1.4313,1.3631,5.4646,5.4098,5.3009,5.1881,5.0889,5.0355,4.9776,4.9373,4.9272,4.9192,4.8985,4.8591,4.8585,4.8791,4.8293,4.8213,4.826,4.7618,4.6911,4.5793,4.4331,4.3358,4.2725,4.1862,4.1052,4.07,3.9649,3.8864,3.8345,3.7943,3.762,3.7383,3.7276,3.7103,3.6845,3.6667,3.6126,3.5381,3.5096,3.4372,3.3404,3.3272,3.3459,3.3121,3.3233,3.3295,3.361,3.3485,3.3452,3.3289,3.3035,3.2698,3.2574,3.2446,3.2527,3.2541,3.2366,3.2172,3.2064,3.187,3.1655,3.1526,3.1311,3.1138,3.0966,3.096,3.0751,3.0686,3.0643,3.0622,3.0492,3.0471,3.0492,3.0471,3.0492,3.0318,2.9928,2.8987,2.7997,2.7267,2.6616,2.6348,2.612,2.5855,2.5761,2.5704,2.5421,2.5233,2.4606,2.4145,2.3575,2.299,2.232,2.1743,2.1371,2.0915,2.04,1.9892,1.9303,1.9012,1.8803,1.8429,1.7992,1.7872,1.7752,1.7117,1.6762,1.6311,1.5961,1.5817,1.5472,1.4886,1.4288,1.3743,1.3007,5.5346,5.4409,5.3554,5.2392,5.1202,5.0376,4.9795,4.9459,4.9352,4.9379,4.9326,4.9326,4.9145,4.9192,4.9005,4.8871,4.8452,4.7222,4.6413,4.6094,4.4552,4.3475,4.2619,4.184,4.1046,4.0508,3.9569,3.8782,3.8196,3.7965,3.7857,3.7642,3.7448,3.734,3.7232,3.6827,3.6214,3.5325,3.5172,3.4679,3.3941,3.3808,3.4173,3.4428,3.4333,3.4432,3.4681,3.4665,3.4604,3.4455,3.4542,3.4197,3.3786,3.3505,3.346,3.3222,3.3024,3.2829,3.2634,3.2273,3.1957,3.1957,3.1741,3.1672,3.1586,3.1397,3.1246,3.1117,3.1031,3.0923,3.0686,3.0665,3.0665,3.0665,3.0643,3.06,3.0468,2.9551,2.8672,2.7852,2.7193,2.675,2.6462,2.6177,2.6158,2.6025,2.5742,2.5367,2.475,2.4153,2.3596,2.2967,2.2346,2.1636,2.1278,2.093,2.0412,1.9636,1.9044,1.8679,1.8371,1.7796,1.743,1.7485,1.7257,1.6735,1.6241,1.5822,1.556,1.5434,1.4858,1.4089,1.3572,1.3192,1.2324,5.5764,5.5555,5.4467,5.3441,5.2578,5.1504,5.0619,4.9967,4.9875,4.9646,4.9694,4.948,4.9473,4.9373,4.9245,4.9219,4.8897,4.7611,4.6773,4.6426,4.497,4.3689,4.2679,4.1896,4.1048,4.0176,3.9359,3.8628,3.836,3.8202,3.8094,3.79,3.7792,3.7685,3.7277,3.6708,3.5923,3.5162,3.499,3.4525,3.4014,3.4569,3.5192,3.5471,3.5261,3.5136,3.5098,3.5079,3.4928,3.4691,3.5022,3.5108,3.4953,3.4708,3.4357,3.4092,3.3831,3.3592,3.3398,3.276,3.2319,3.215,3.1978,3.187,3.1827,3.1806,3.1677,3.1634,3.1504,3.1456,3.1435,3.1181,3.1203,3.1305,3.1203,3.1138,3.1127,3.0567,2.9468,2.8537,2.7775,2.7135,2.6787,2.6498,2.6403,2.6347,2.6177,2.5608,2.4927,2.4343,2.3745,2.3093,2.2371,2.1743,2.1118,2.0825,2.0336,1.9471,1.8818,1.8361,1.7909,1.7135,1.6852,1.69,1.6817,1.6506,1.6003,1.5445,1.4943,1.4583,1.3928,1.3266,1.2818,1.2365,1.1636,5.6045,5.5794,5.4894,5.4119,5.3498,5.2606,5.1914,5.1402,5.1265,5.1183,5.1155,5.1046,5.0991,5.0917,5.0545,5.0092,4.9242,4.8372,4.7476,4.6753,4.5563,4.3952,4.2661,4.1926,4.0919,3.9989,3.919,3.8731,3.8503,3.8481,3.8331,3.8137,3.8008,3.7641,3.7153,3.6605,3.5582,3.4818,3.4981,3.5021,3.4315,3.5498,3.6132,3.604,3.5833,3.5596,3.5556,3.5719,3.57,3.5614,3.6011,3.6206,3.6069,3.5799,3.5288,3.4719,3.4392,3.4092,3.3708,3.2943,3.2708,3.2665,3.2323,3.2107,3.2064,3.2,3.1935,3.1892,3.1849,3.1741,3.172,3.1612,3.1655,3.1677,3.1612,3.1612,3.1616,3.1311,3.0357,2.9234,2.8464,2.7736,2.7031,2.6819,2.6687,2.6574,2.6517,2.5902,2.5135,2.4624,2.4058,2.3038,2.2326,2.1716,2.1043,2.0554,2.0166,1.9345,1.8643,1.8127,1.7684,1.705,1.6534,1.6242,1.6118,1.6021,1.5474,1.483,1.4299,1.378,1.3263,1.2701,1.2075,1.146,1.0861,5.6162,5.5794,5.5038,5.4546,5.4166,5.346,5.2943,5.2822,5.2663,5.2635,5.2682,5.2523,5.2495,5.2374,5.1674,5.0817,4.9732,4.891,4.8032,4.7082,4.6209,4.4588,4.279,4.1917,4.13,3.9729,3.9386,3.9171,3.8804,3.8718,3.8568,3.8417,3.818,3.7659,3.7036,3.657,3.5417,3.5132,3.5225,3.5632,3.5843,3.6249,3.6716,3.657,3.6228,3.6127,3.6086,3.6543,3.668,3.6679,3.701,3.7382,3.7175,3.6945,3.6276,3.5246,3.4875,3.4274,3.378,3.3226,3.3012,3.299,3.2708,3.2535,3.2366,3.2258,3.2086,3.2043,3.2,3.1978,3.1978,3.1935,3.1935,3.1957,3.1935,3.1914,3.1935,3.1649,3.104,3.0085,2.9201,2.8322,2.7569,2.7141,2.6989,2.697,2.6914,2.617,2.5491,2.5014,2.4307,2.3066,2.2198,2.1641,2.096,2.0224,1.9864,1.9247,1.8578,1.8028,1.7617,1.7162,1.6572,1.5899,1.5498,1.5304,1.4741,1.4258,1.3721,1.3195,1.2737,1.2223,1.1597,1.1037,1.0427,5.6162,5.5823,5.5038,5.466,5.4527,5.3846,5.3467,5.3459,5.3206,5.2943,5.3141,5.2813,5.2803,5.2607,5.1906,5.098,5.01,4.9349,4.8544,4.7512,4.6684,4.5,4.2765,4.2439,4.1298,3.9892,3.9644,3.9386,3.901,3.8903,3.8826,3.8654,3.8528,3.8319,3.7183,3.6493,3.6126,3.5664,3.568,3.6064,3.6687,3.6705,3.663,3.6709,3.6837,3.7007,3.692,3.7398,3.7645,3.7507,3.7878,3.816,3.8067,3.7856,3.7207,3.6276,3.542,3.4681,3.4295,3.3739,3.3355,3.3375,3.3137,3.2988,3.3046,3.2916,3.2764,3.2517,3.2449,3.2341,3.2298,3.2064,3.2064,3.2086,3.2107,3.2129,3.215,3.2089,3.1475,3.0719,2.9764,2.8854,2.8033,2.768,2.733,2.733,2.7191,2.6437,2.5654,2.4984,2.4432,2.3147,2.2134,2.1529,2.0942,2.0197,1.9643,1.9149,1.8543,1.7884,1.7441,1.6978,1.6425,1.5808,1.5289,1.4683,1.4203,1.3703,1.3129,1.2683,1.2191,1.1698,1.1163,1.0592,0.9999,5.6454,5.6132,5.5579,5.5341,5.537,5.4963,5.484,5.4811,5.4697,5.461,5.4582,5.4542,5.4259,5.3629,5.2904,5.2067,5.1101,5.0243,4.908,4.7918,4.7136,4.5546,4.33,4.2501,4.1584,4.0304,3.9698,3.9267,3.9011,3.9011,3.9063,3.8721,3.8383,3.7696,3.6935,3.604,3.5644,3.5592,3.6029,3.6755,3.727,3.7189,3.712,3.7449,3.7515,3.7639,3.7963,3.828,3.8572,3.8521,3.8846,3.8904,3.8434,3.7938,3.7244,3.6955,3.5916,3.5084,3.4346,3.385,3.3869,3.3973,3.3946,3.3982,3.4148,3.4207,3.393,3.3639,3.3551,3.3233,3.2813,3.2581,3.2495,3.243,3.2366,3.2366,3.2409,3.2304,3.1975,3.1214,3.0414,2.9475,2.8622,2.8061,2.7708,2.759,2.7213,2.6379,2.5402,2.4308,2.3792,2.3161,2.2248,2.1405,2.0871,2.0235,1.9615,1.9101,1.8602,1.7922,1.7305,1.679,1.6167,1.5506,1.4927,1.4288,1.3694,1.3256,1.2929,1.2298,1.1688,1.1254,1.0818,1.0009,0.9378,5.6776,5.6454,5.6045,5.5898,5.5898,5.5898,5.5869,5.5869,5.5794,5.5869,5.5898,5.5794,5.5265,5.4433,5.3571,5.2597,5.1523,5.0992,4.9645,4.8452,4.754,4.5917,4.386,4.2706,4.183,4.014,3.9544,3.9113,3.8823,3.8621,3.8582,3.8511,3.8191,3.7248,3.6335,3.5774,3.5452,3.5525,3.6518,3.7251,3.7656,3.7405,3.7657,3.7927,3.8174,3.83,3.8878,3.9378,3.9551,3.9402,3.9284,3.9208,3.8889,3.8015,3.7587,3.7273,3.6648,3.5854,3.5259,3.48,3.4688,3.4789,3.4888,3.4835,3.5124,3.5399,3.5273,3.4597,3.4575,3.413,3.3623,3.3347,3.3135,3.2943,3.2732,3.271,3.2689,3.2541,3.2228,3.1463,3.0721,3.0082,2.924,2.8607,2.8166,2.793,2.731,2.6415,2.5294,2.4093,2.3554,2.3118,2.2307,2.1466,2.0834,2.0236,1.9653,1.9013,1.8494,1.7857,1.7198,1.6578,1.5967,1.5325,1.4676,1.4179,1.3753,1.3253,1.2712,1.2097,1.152,1.1054,1.044,0.9635,0.8895,5.7098,5.6853,5.6162,5.5898,5.5898,5.5898,5.5898,5.5898,5.5898,5.5898,5.5898,5.5794,5.5038,5.4007,5.3551,5.2687,5.1135,5.0982,4.9833,4.8914,4.8249,4.6283,4.4241,4.2971,4.2166,4.0453,3.9528,3.8965,3.8639,3.8139,3.7665,3.7133,3.753,3.6882,3.6296,3.5806,3.5774,3.61,3.7048,3.759,3.7685,3.7569,3.775,3.8298,3.8799,3.9246,3.9706,4.0275,4.0358,3.9974,3.9628,3.9375,3.9165,3.8311,3.7904,3.7832,3.7497,3.696,3.6621,3.613,3.6078,3.6002,3.5838,3.5737,3.5875,3.5594,3.5359,3.5427,3.5496,3.5025,3.4601,3.424,3.3817,3.3519,3.32,3.2969,3.2883,3.2775,3.2399,3.1692,3.107,3.0467,2.9783,2.9081,2.8431,2.8175,2.7145,2.6325,2.5309,2.4223,2.3677,2.3171,2.242,2.161,2.0909,2.0302,1.9685,1.8988,1.8415,1.7672,1.6979,1.6359,1.5911,1.5353,1.4846,1.433,1.3736,1.3039,1.2377,1.1898,1.1379,1.0757,1.0024,0.9189,0.8557,5.7274,5.7098,5.6659,5.6249,5.5898,5.5898,5.5898,5.5898,5.5898,5.5898,5.5898,5.5898,5.5294,5.431,5.3627,5.2867,5.1696,5.0627,4.9631,4.8709,4.776,4.6092,4.4273,4.3098,4.24,4.0746,3.9552,3.8575,3.8013,3.7751,3.6863,3.6532,3.6834,3.6622,3.622,3.6174,3.6306,3.6598,3.7403,3.8072,3.8109,3.8192,3.8426,3.9047,3.9706,4.0244,4.0656,4.081,4.0755,4.047,3.9978,3.9652,3.9418,3.8629,3.8421,3.8528,3.8215,3.8164,3.7973,3.7318,3.6558,3.6844,3.7024,3.7162,3.6893,3.7068,3.6813,3.6645,3.6407,3.602,3.5333,3.4866,3.4376,3.399,3.3587,3.3269,3.3119,3.3012,3.2906,3.2299,3.1587,3.0934,3.0224,2.9496,2.8947,2.8339,2.724,2.6124,2.5144,2.4307,2.3843,2.3207,2.2418,2.1694,2.0924,2.034,1.9682,1.8978,1.8287,1.7596,1.6894,1.6395,1.594,1.5445,1.4805,1.4148,1.3422,1.271,1.2151,1.1799,1.1183,1.0461,0.9628,0.8812,0.8276,5.742,5.7303,5.7098,5.6688,5.6191,5.6162,5.6162,5.6162,5.6191,5.6162,5.6162,5.5934,5.5269,5.4452,5.3615,5.2693,5.1571,5.0474,4.9477,4.8478,4.7323,4.5748,4.4249,4.3115,4.2192,4.0781,3.9579,3.8519,3.7487,3.7355,3.6541,3.5961,3.5731,3.5961,3.6035,3.6519,3.676,3.691,3.7665,3.8288,3.8347,3.8708,3.9116,3.9673,4.0289,4.0876,4.1104,4.1165,4.0948,4.0687,4.0334,3.9843,3.945,3.9106,3.8897,3.896,3.9046,3.9108,3.8912,3.8269,3.7323,3.7629,3.7903,3.8152,3.8232,3.8208,3.7688,3.752,3.7328,3.7024,3.6199,3.5624,3.5026,3.4617,3.3804,3.3421,3.3378,3.3292,3.3249,3.3037,3.2172,3.1136,3.0568,2.9773,2.8552,2.8007,2.7172,2.6005,2.4973,2.427,2.3863,2.3223,2.2538,2.1746,2.097,2.034,1.9652,1.8771,1.8089,1.7554,1.6931,1.6426,1.5863,1.5301,1.4667,1.3903,1.3241,1.2601,1.2173,1.1804,1.0966,1.0094,0.9366,0.8595,0.8158,5.7625,5.7332,5.7332,5.7127,5.6835,5.6911,5.6853,5.6718,5.6824,5.6747,5.6641,5.598,5.5069,5.4028,5.331,5.2279,5.1169,5.0169,4.9222,4.8323,4.6807,4.5299,4.4168,4.3117,4.1952,4.0364,3.9331,3.8322,3.7107,3.6599,3.6013,3.5799,3.5783,3.5689,3.5443,3.621,3.6564,3.6761,3.7812,3.8249,3.8717,3.9233,3.983,4.0462,4.0945,4.1514,4.1531,4.1452,4.1234,4.0924,4.046,4.0153,4.007,3.9497,3.9331,3.9657,3.9628,3.9647,3.9599,3.9075,3.8673,3.8408,3.8466,3.8458,3.8305,3.8232,3.8168,3.7912,3.8016,3.776,3.7095,3.6453,3.5828,3.5118,3.4299,3.3722,3.3679,3.3593,3.355,3.3359,3.2275,3.1237,3.0727,2.9947,2.8422,2.7497,2.6849,2.5978,2.4891,2.4276,2.3897,2.3219,2.248,2.1665,2.093,2.0401,1.9634,1.8686,1.7899,1.7383,1.6818,1.6201,1.5676,1.5133,1.4409,1.3637,1.3088,1.2533,1.1926,1.1281,1.0503,0.9682,0.8999,0.8445,0.8014,5.7742,5.7654,5.7654,5.7596,5.742,5.704,5.6864,5.6835,5.6835,5.6864,5.6681,5.6019,5.5114,5.4182,5.3228,5.2064,5.0797,4.9634,4.8835,4.7881,4.6208,4.5035,4.3947,4.2937,4.1798,4.0537,3.9442,3.8448,3.7459,3.657,3.6159,3.6024,3.5853,3.5551,3.5692,3.6394,3.7185,3.7141,3.8044,3.8983,3.9528,4.0128,4.0795,4.1429,4.1893,4.2156,4.196,4.1765,4.1476,4.121,4.0699,4.0646,4.0659,4.0174,3.995,4.0032,4.0027,3.9738,3.9713,3.943,3.9213,3.8989,3.8796,3.8699,3.8523,3.8474,3.8402,3.8281,3.8281,3.8024,3.776,3.7182,3.6517,3.5809,3.5076,3.4432,3.4153,3.3938,3.3787,3.3465,3.2649,3.1218,3.0322,2.9794,2.8534,2.7565,2.7029,2.613,2.5156,2.4421,2.386,2.3173,2.2409,2.1634,2.0898,2.0345,1.9646,1.8761,1.7938,1.7327,1.667,1.6088,1.54,1.4902,1.4129,1.342,1.2711,1.2051,1.1331,1.0628,0.9911,0.9248,0.8612,0.8187,0.7891,5.78,5.78,5.78,5.78,5.7742,5.7361,5.7186,5.7186,5.7186,5.7031,5.6645,5.5871,5.4933,5.4024,5.2908,5.1944,5.0489,4.9217,4.857,4.7531,4.5496,4.4643,4.3916,4.2676,4.1198,4.0208,3.9289,3.8308,3.7294,3.6755,3.6345,3.6118,3.6024,3.5797,3.6018,3.6672,3.7508,3.7584,3.8507,3.9391,4.0065,4.0742,4.1435,4.2122,4.2587,4.2852,4.2441,4.2079,4.1741,4.15,4.1331,4.1234,4.1138,4.1017,4.0607,4.0486,4.0345,4.0186,4.0471,4.0513,4.0291,3.9765,3.929,3.8965,3.8748,3.8699,3.8603,3.8506,3.841,3.8426,3.8249,3.7646,3.6978,3.6333,3.5555,3.4844,3.4261,3.4024,3.3765,3.3483,3.2748,3.1283,3.0055,2.9357,2.8534,2.7869,2.7139,2.6246,2.5339,2.4546,2.3834,2.3205,2.2435,2.1639,2.0939,2.0243,1.9548,1.8766,1.8048,1.7266,1.6721,1.6141,1.5368,1.4584,1.4003,1.3285,1.2308,1.1495,1.078,1.0093,0.9303,0.8696,0.8156,0.7961,0.7777,5.78,5.78,5.78,5.78,5.78,5.7742,5.7771,5.7771,5.7693,5.7303,5.6521,5.5631,5.468,5.3469,5.1953,5.1062,5.0384,4.8897,4.8166,4.7228,4.5286,4.4652,4.3395,4.1905,4.059,3.9611,3.8785,3.808,3.6841,3.6723,3.6515,3.6269,3.6232,3.6043,3.6306,3.6813,3.7524,3.7956,3.8679,3.9751,4.0621,4.1139,4.1859,4.2527,4.3019,4.3141,4.2852,4.2514,4.2079,4.1838,4.1717,4.1572,4.1524,4.1596,4.1186,4.0928,4.0857,4.1244,4.1468,4.1534,4.1335,4.063,3.9936,3.9362,3.8996,3.8941,3.8893,3.8844,3.8772,3.8675,3.8538,3.7883,3.7318,3.6535,3.5796,3.5062,3.4348,3.3937,3.3698,3.3243,3.2461,3.1331,3.0219,2.9423,2.8667,2.8047,2.7308,2.6321,2.5371,2.4397,2.3746,2.326,2.2501,2.1678,2.0909,2.0103,1.9275,1.8449,1.7901,1.7188,1.6712,1.606,1.5173,1.4383,1.3908,1.3124,1.2096,1.1089,1.0223,0.9536,0.8982,0.8597,0.8169,0.7877,0.7618,5.78,5.78,5.78,5.78,5.78,5.78,5.78,5.7752,5.7283,5.6813,5.65,5.5059,5.419,5.3742,5.2086,5.1085,5.0008,4.9012,4.7673,4.6389,4.5083,4.377,4.2565,4.1357,4.0034,3.9087,3.8457,3.7927,3.7282,3.7025,3.6817,3.6591,3.6383,3.625,3.6377,3.6833,3.7516,3.8209,3.8923,4.0152,4.1128,4.1628,4.2429,4.3274,4.3477,4.3528,4.3311,4.2924,4.249,4.2128,4.2031,4.1934,4.1959,4.2256,4.2281,4.2153,4.2098,4.2123,4.1968,4.1932,4.18,4.1534,4.077,3.996,3.9525,3.9206,3.9158,3.9044,3.8996,3.8965,3.8827,3.8298,3.7575,3.6765,3.6045,3.5392,3.4739,3.4281,3.4019,3.3145,3.2357,3.1239,3.0202,2.9494,2.8729,2.8203,2.7405,2.6373,2.5413,2.4431,2.3697,2.3222,2.2455,2.1587,2.0626,1.9724,1.8943,1.8178,1.7649,1.7071,1.633,1.5609,1.4804,1.4027,1.3274,1.26,1.1773,1.0834,0.9845,0.9452,0.8964,0.8564,0.8181,0.7834,0.7306,5.78,5.78,5.78,5.78,5.78,5.78,5.7674,5.7283,5.6785,5.65,5.5951,5.4666,5.3641,5.2746,5.1479,5.0447,4.9626,4.8375,4.7232,4.6464,4.4861,4.377,4.2503,4.1109,3.9874,3.8959,3.8245,3.7793,3.739,3.7114,3.6925,3.6142,3.6158,3.6064,3.6092,3.6396,3.7401,3.8202,3.9242,4.053,4.1499,4.2097,4.2932,4.3809,4.384,4.3842,4.3697,4.3262,4.2876,4.2441,4.2345,4.2342,4.2625,4.3204,4.3774,4.3573,4.3265,4.3278,4.3209,4.2963,4.2646,4.2197,4.1601,4.0862,4.0124,3.9695,3.949,3.9285,3.9237,3.9165,3.9027,3.8692,3.7833,3.6909,3.636,3.5834,3.5307,3.4801,3.4052,3.3171,3.211,3.0981,3.0067,2.9418,2.8664,2.7893,2.7073,2.6237,2.5318,2.4489,2.3695,2.3147,2.2304,2.1396,2.0414,1.9596,1.8923,1.8239,1.7621,1.6895,1.605,1.5249,1.4551,1.3558,1.2557,1.1887,1.1284,1.0397,0.9525,0.9129,0.8656,0.8131,0.7828,0.7688,0.7023,5.78,5.78,5.78,5.78,5.78,5.78,5.7332,5.6578,5.65,5.603,5.5138,5.4272,5.301,5.1902,5.0791,4.9916,4.8953,4.7769,4.6898,4.6554,4.4783,4.3423,4.214,4.1037,3.9563,3.8762,3.8086,3.7662,3.7366,3.7026,3.6451,3.5509,3.6067,3.6037,3.5543,3.5849,3.6925,3.8463,3.9257,4.0227,4.183,4.243,4.2587,4.3567,4.3913,4.3937,4.372,4.3455,4.3238,4.2876,4.2849,4.294,4.3814,4.4355,4.4953,4.5081,4.4611,4.4386,4.4287,4.401,4.3546,4.2978,4.233,4.1575,4.0887,3.9998,3.9593,3.9569,3.952,3.9472,3.9267,3.8846,3.8047,3.7207,3.6587,3.5924,3.5259,3.4593,3.3726,3.2838,3.1834,3.0761,2.9955,2.93,2.8643,2.7663,2.6635,2.5908,2.5149,2.4307,2.3655,2.3018,2.2043,2.1115,2.0429,1.956,1.8956,1.8317,1.7512,1.6723,1.5815,1.5015,1.4299,1.3129,1.1963,1.1407,1.0738,0.9897,0.9206,0.8812,0.8257,0.7615,0.7327,0.719,0.6641,5.78,5.78,5.78,5.78,5.78,5.78,5.7361,5.6578,5.5873,5.5059,5.4272,5.3405,5.2456,5.1373,5.0473,4.9597,4.8634,4.7349,4.645,4.551,4.4132,4.2662,4.1284,4.0231,3.9039,3.8181,3.7611,3.7289,3.6994,3.6592,3.6165,3.5711,3.5756,3.5115,3.5257,3.5648,3.6523,3.8645,3.8973,4.0327,4.2419,4.2645,4.2755,4.3498,4.3824,4.3806,4.3663,4.3739,4.3502,4.3262,4.3793,4.4556,4.5693,4.5829,4.6066,4.6234,4.5933,4.5513,4.5049,4.4783,4.4356,4.3546,4.2779,4.209,4.1335,4.0337,3.9738,3.9738,3.9713,3.9665,3.9441,3.8885,3.8261,3.7481,3.6635,3.5899,3.523,3.4291,3.337,3.2426,3.1481,3.0669,2.9837,2.9177,2.8515,2.7561,2.6417,2.5528,2.4844,2.406,2.348,2.2741,2.1638,2.0786,2.0201,1.9442,1.8727,1.7958,1.7091,1.6295,1.5581,1.4398,1.3363,1.245,1.1496,1.0873,1.0212,0.9367,0.8745,0.8414,0.7862,0.7221,0.6611,0.6274,0.591,5.78,5.78,5.78,5.78,5.7722,5.7439,5.6813,5.5951,5.5059,5.4036,5.2931,5.2377,5.1743,5.087,4.9995,4.8959,4.7913,4.6797,4.5556,4.4362,4.3409,4.1883,4.0658,3.964,3.8583,3.7619,3.6715,3.6257,3.6312,3.581,3.5283,3.4955,3.4423,3.4661,3.5142,3.5337,3.6397,3.8765,3.8663,4.0185,4.2502,4.2573,4.2425,4.3051,4.3414,4.3474,4.3583,4.366,4.3839,4.399,4.4451,4.511,4.6076,4.6522,4.6825,4.6843,4.6637,4.6333,4.5745,4.5264,4.4917,4.4142,4.2894,4.212,4.1601,4.0604,3.9804,3.9738,3.9738,3.9689,3.9289,3.8822,3.8221,3.7462,3.6434,3.5561,3.4821,3.4012,3.3134,3.239,3.1325,3.0224,2.9492,2.8809,2.8157,2.7517,2.641,2.5493,2.4731,2.3854,2.3201,2.2482,2.1468,2.0718,2.0127,1.9336,1.8377,1.7535,1.6704,1.5873,1.5,1.3532,1.2349,1.1793,1.1185,1.0406,0.9733,0.9031,0.8473,0.8062,0.7511,0.6818,0.6207,0.5593,0.523,5.78,5.78,5.78,5.7722,5.7595,5.697,5.603,5.5059,5.4351,5.3089,5.1743,5.1452,5.0791,4.9995,4.9198,4.776,4.67,4.594,4.463,4.3595,4.2695,4.1401,4.0394,3.9445,3.8097,3.6906,3.5938,3.551,3.5285,3.4785,3.4304,3.3693,3.3889,3.4393,3.4644,3.516,3.6345,3.8071,3.8902,3.9919,4.1101,4.2037,4.2086,4.2455,4.3004,4.3264,4.3282,4.3562,4.4031,4.4479,4.4964,4.5715,4.6387,4.7046,4.7242,4.7295,4.7054,4.676,4.6386,4.5879,4.5451,4.4686,4.3226,4.2298,4.1803,4.0944,4.0077,3.9762,3.9762,3.9471,3.9137,3.8602,3.7999,3.7217,3.6119,3.5129,3.4318,3.3594,3.2868,3.212,3.1086,2.9909,2.9087,2.8483,2.7874,2.724,2.6502,2.5731,2.4859,2.3804,2.2937,2.2185,2.1271,2.0676,2.0026,1.91,1.8064,1.7284,1.6435,1.5443,1.4411,1.3131,1.2162,1.17,1.1031,1.0142,0.9464,0.8905,0.8343,0.7714,0.6882,0.6258,0.5835,0.5219,0.4729,5.78,5.78,5.78,5.741,5.6892,5.6657,5.5688,5.4351,5.4036,5.3089,5.1585,5.0632,4.9995,4.9198,4.832,4.7224,4.6079,4.5253,4.4264,4.3223,4.1986,4.0893,3.9671,3.8153,3.7012,3.611,3.5364,3.5307,3.4615,3.4098,3.3798,3.3633,3.2722,3.3364,3.475,3.5239,3.5806,3.749,3.8706,3.9571,4.0362,4.1183,4.187,4.2347,4.3009,4.2854,4.2945,4.3773,4.4077,4.4478,4.5159,4.6177,4.6849,4.7313,4.7411,4.7482,4.7268,4.7054,4.6707,4.644,4.6012,4.5475,4.4067,4.2782,4.2081,4.0931,4.0253,3.9858,3.97,3.9318,3.8893,3.82,3.753,3.6567,3.5488,3.4563,3.3703,3.2987,3.2315,3.1549,3.066,2.9626,2.8724,2.8131,2.7589,2.6846,2.5807,2.5103,2.4484,2.3608,2.2748,2.1861,2.1047,2.0318,1.9589,1.876,1.7774,1.7045,1.6089,1.4884,1.3829,1.2854,1.2025,1.1306,1.0611,0.978,0.9167,0.8569,0.8002,0.7299,0.6317,0.562,0.5261,0.4976,0.4487]},{"header":{"parameterUnit":"m.s-1","parameterCategory":1,"la1":31.0,"la2":29.5877,"lo1":-88.7671,"lo2":-86.6584,"dy":0.0162,"dx":0.0185,"nx":115,"ny":88,"refTime":"2023-04-12T18:00:00:Z","depth":0,"parameterNumber":3,"parameterNumberName":"V-component_of_WINDS"},"data":[0.0,0.0,0.0,0.0,0.0,0.0,0.0,0.0,0.0,0.0,0.0,0.0,0.0,0.0,0.0,0.0,0.0,0.0,0.0,0.0,0.0,0.0,0.0,0.0,0.0,0.0,0.0,0.0,0.0,0.0,0.0,0.0,0.0,0.0,0.0,0.0,0.0,0.0,0.0,0.0,0.0,0.0,0.0,0.0,0.0,0.0,0.0,0.0,0.0,0.0,0.0,0.0,0.0,0.0,0.0,0.0,0.0,0.0,0.0,0.0,0.0,0.0,0.0,0.0,0.0,0.0,0.0,0.0,0.0,0.0,0.0,0.0,0.0,0.0,0.0,0.0,0.0,0.0,0.0,0.0,0.0,0.0,0.0,0.0,0.0,0.0,0.0,0.0,0.0,0.0,0.0,0.0,0.0,0.0,0.0,0.0,0.0,0.0,0.0,0.0,0.0,0.0,0.0,0.0,0.0,0.0,0.0,0.0,0.0,0.0,0.0,0.0,0.0,0.0,0.0,0.0,0.0,0.0,0.0,0.0,0.0,0.0,0.0,0.0,0.0,0.0,0.0,0.0,0.0,0.0,0.0,0.0,0.0,0.0,0.0,0.0,0.0,0.0,0.0,0.0,0.0,0.0,0.0,0.0,0.0,0.0,0.0,0.0,0.0,0.0,0.0,0.0,0.0,0.0,0.0,0.0,0.0,0.0,0.0,0.0,0.0,0.0,0.0,0.0,0.0,0.0,0.0,0.0,0.0,0.0,0.0,0.0,0.0,0.0,0.0,0.0,0.0,0.0,0.0,0.0,0.0,0.0,0.0,0.0,0.0,0.0,0.0,0.0,0.0,0.0,0.0,0.0,0.0,0.0,0.0,0.0,0.0,0.0,0.0,0.0,0.0,0.0,0.0,0.0,0.0,0.0,0.0,0.0,0.0,0.0,0.0,0.0,0.0,0.0,0.0,0.0,0.0,0.0,0.0,0.0,0.0,0.0,0.0,0.0,0.0,0.0,0.0,0.0,0.0,0.0,0.0,0.0,0.0,0.0,0.0,0.0,0.0,0.0,0.0,0.0,0.0,0.0,0.0,0.0,0.0,0.0,0.0,0.0,0.0,0.0,0.0,0.0,0.0,0.0,0.0,0.0,0.0,0.0,0.0,0.0,0.0,0.0,0.0,0.0,0.0,0.0,0.0,0.0,0.0,0.0,0.0,0.0,0.0,0.0,0.0,0.0,0.0,0.0,0.0,0.0,0.0,0.0,0.0,0.0,0.0,0.0,0.0,0.0,0.0,0.0,0.0,0.0,0.0,0.0,0.0,0.0,0.0,0.0,0.0,0.0,0.0,0.0,0.0,0.0,0.0,0.0,0.0,0.0,0.0,0.0,0.0,0.0,0.0,0.0,0.0,0.0,0.0,0.0,0.0,0.0,0.0,0.0,0.0,0.0,0.0,0.0,0.0,0.0,0.0,0.0,0.0,0.0,0.0,0.0,0.0,0.0,0.0,0.0,0.0,0.0,0.0,0.0,0.0,0.0,0.0,0.0,0.0,0.0,0.0,0.0,0.0,0.0,0.0,0.0,0.0,0.0,0.0,0.0,0.0,0.0,0.0,0.0,0.0,0.0,0.0,0.0,0.0,0.0,0.0,0.0,0.0,0.0,0.0,0.0,0.0,0.0,0.0,0.0,0.0,0.0,0.0,0.0,0.0,0.0,0.0,0.0,0.0,0.0,0.0,0.0,0.0,0.0,0.0,0.0,0.0,0.0,0.0,0.0,0.0,0.0,0.0,0.0,0.0,0.0,0.0,0.0,0.0,0.0,0.0,0.0,0.0,0.0,0.0,0.0,0.0,0.0,0.0,0.0,0.0,0.0,0.0,0.0,0.0,0.0,0.0,0.0,0.0,0.0,0.0,0.0,0.0,0.0,0.0,0.0,0.0,0.0,0.0,0.0,0.0,0.0,0.0,0.0,0.0,0.0,0.0,0.0,0.0,0.0,0.0,0.0,0.0,0.0,0.0,0.0,0.0,0.0,0.0,0.0,0.0,0.0,0.0,0.0,0.0,0.0,0.0,0.0,0.0,0.0,0.0,0.0,0.0,0.0,0.0,0.0,0.0,0.0,0.0,0.0,0.0,0.0,0.0,0.0,0.0,0.0,0.0,0.0,0.0,0.0,0.0,0.0,0.0,0.0,0.0,0.0,0.0,0.0,0.0,0.0,0.0,0.0,0.0,0.0,0.0,0.0,0.0,0.0,0.0,0.0,0.0,0.0,0.0,0.0,0.0,0.0,0.0,0.0,0.0,0.0,0.0,0.0,0.0,0.0,0.0,0.0,0.0,0.0,0.0,0.0,0.0,0.0,0.0,0.0,0.0,0.0,0.0,0.0,0.0,0.0,0.0,0.0,0.0,0.0,0.0,0.0,0.0,0.0,0.0,0.0,0.0,0.0,0.0,0.0,0.0,0.0,0.0,0.0,0.0,0.0,0.0,0.0,0.0,0.0,0.0,0.0,0.0,0.0,0.0,0.0,0.0,0.0,0.0,0.0,0.0,0.0,0.0,0.0,0.0,0.0,0.0,0.0,0.0,0.0,0.0,0.0,0.0,0.0,0.0,0.0,0.0,0.0,0.0,0.0,0.0,0.0,0.0,0.0,0.0,0.0,0.0,0.0,0.0,0.0,0.0,0.0,0.0,0.0,0.0,0.0,0.0,0.0,0.0,0.0,0.0,0.0,0.0,0.0,0.0,0.0,0.0,0.0,0.0,0.0,0.0,0.0,0.0,0.0,0.0,0.0,0.0,0.0,0.0,0.0,0.0,0.0,0.0,0.0,0.0,0.0,0.0,0.0,0.0,0.0,0.0,0.0,0.0,0.0,0.0,0.0,0.0,0.0,0.0,0.0,0.0,0.0,0.0,0.0,0.0,0.0,0.0,0.0,0.0,0.0,0.0,0.0,0.0,0.0,0.0,0.0,0.0,0.0,0.0,0.0,0.0,0.0,0.0,0.0,0.0,0.0,0.0,0.0,0.0,0.0,0.0,0.0,0.0,0.0,0.0,0.0,0.0,0.0,0.0,0.0,0.0,0.0,0.0,0.0,0.0,0.0,0.0,0.0,0.0,0.0,0.0,0.0,0.0,0.0,0.0,0.0,0.0,0.0,0.0,0.0,0.0,0.0,0.0,0.0,0.0,0.0,0.0,0.0,0.0,0.0,0.0,0.0,0.0,0.0,0.0,0.0,0.0,0.0,0.0,0.0,0.0,0.0,0.0,0.0,0.0,0.0,0.0,0.0,0.0,0.0,0.0,0.0,0.0,0.0,0.0,0.0,0.0,0.0,0.0,0.0,0.0,0.0,0.0,0.0,0.0,0.0,0.0,0.0,0.0,0.0,0.0,0.0,0.0,0.0,0.0,0.0,0.0,0.0,0.0,0.0,0.0,0.0,0.0,0.0,0.0,0.0,0.0,0.0,0.0,0.0,0.0,0.0,0.0,0.0,0.0,0.0,0.0,0.0,0.0,0.0,0.0,0.0,0.0,0.0,0.0,0.0,0.0,0.0,0.0,0.0,0.0,0.0,0.0,0.0,0.0,0.0,0.0,0.0,0.0,0.0,0.0,0.0,0.0,0.0,0.0,0.0,0.0,0.0,0.0,0.0,0.0,0.0,0.0,0.0,0.0,0.0,0.0,0.0,0.0,0.0,0.0,0.0,0.0,0.0,0.0,0.0,0.0,0.0,0.0,0.0,0.0,0.0,0.0,0.0,0.0,0.0,0.0,0.0,0.0,0.0,0.0,0.0,0.0,0.0,0.0,0.0,0.0,0.0,0.0,0.0,0.0,0.0,0.0,0.0,0.0,0.0,0.0,0.0,0.0,0.0,0.0,0.0,0.0,0.0,0.0,0.0,0.0,0.0,0.0,0.0,0.0,0.0,0.0,0.0,0.0,0.0,0.0,0.0,0.0,0.0,0.0,0.0,0.0,0.0,0.0,0.0,0.0,0.0,0.0,0.0,0.0,0.0,0.0,0.0,0.0,0.0,0.0,0.0,0.0,0.0,0.0,0.0,0.0,0.0,0.0,0.0,0.0,0.0,0.0,0.0,0.0,0.0,0.0,0.0,0.0,0.0,0.0,0.0,0.0,0.0,0.0,0.0,0.0,0.0,0.0,0.0,0.0,0.0,0.0,0.0,0.0,0.0,0.0,0.0,0.0,0.0,0.0,0.0,0.0,0.0,0.0,0.0,0.0,0.0,0.0,0.0,0.0,0.0,0.0,0.0,0.0,0.0,0.0,0.0,3.5922,0.0,0.0,0.0,0.0,0.0,0.0,0.0,0.0,0.0,0.0,0.0,0.0,0.0,0.0,0.0,0.0,0.0,0.0,0.0,0.0,0.0,0.0,0.0,0.0,0.0,0.0,0.0,0.0,0.0,0.0,0.0,0.0,0.0,0.0,0.0,0.0,0.0,0.0,0.0,0.0,0.0,0.0,0.0,0.0,0.0,0.0,0.0,0.0,0.0,0.0,0.0,0.0,0.0,0.0,0.0,0.0,0.0,0.0,0.0,0.0,0.0,0.0,0.0,0.0,0.0,0.0,0.0,0.0,0.0,0.0,0.0,0.0,0.0,0.0,0.0,0.0,0.0,0.0,0.0,0.0,0.0,0.0,0.0,0.0,0.0,0.0,0.0,0.0,0.0,0.0,0.0,0.0,0.0,0.0,0.0,0.0,0.0,0.0,0.0,0.0,0.0,0.0,0.0,0.0,0.0,0.0,0.0,0.0,0.0,0.0,3.649,3.5976,3.5673,3.5633,3.5963,0.0,0.0,0.0,0.0,0.0,0.0,0.0,0.0,0.0,0.0,0.0,0.0,0.0,0.0,0.0,0.0,0.0,0.0,0.0,0.0,0.0,0.0,0.0,0.0,0.0,0.0,0.0,0.0,0.0,0.0,0.0,0.0,0.0,0.0,0.0,0.0,0.0,0.0,0.0,0.0,0.0,0.0,0.0,0.0,0.0,0.0,0.0,0.0,0.0,0.0,0.0,0.0,0.0,0.0,0.0,0.0,0.0,0.0,0.0,0.0,0.0,0.0,0.0,0.0,0.0,0.0,0.0,0.0,0.0,0.0,0.0,0.0,0.0,0.0,0.0,0.0,0.0,0.0,0.0,0.0,0.0,0.0,0.0,0.0,0.0,0.0,0.0,0.0,0.0,0.0,0.0,0.0,0.0,0.0,0.0,0.0,0.0,0.0,0.0,0.0,0.0,0.0,0.0,0.0,0.0,0.0,0.0,0.0,0.0,0.0,0.0,0.0,3.6113,3.5992,3.6215,0.0,0.0,0.0,0.0,0.0,0.0,0.0,0.0,0.0,0.0,0.0,0.0,0.0,0.0,0.0,0.0,0.0,0.0,0.0,0.0,0.0,0.0,0.0,0.0,0.0,0.0,0.0,0.0,0.0,0.0,0.0,0.0,0.0,0.0,0.0,0.0,0.0,0.0,0.0,0.0,0.0,0.0,0.0,0.0,0.0,0.0,0.0,0.0,0.0,0.0,0.0,0.0,0.0,0.0,0.0,0.0,0.0,0.0,0.0,0.0,0.0,0.0,0.0,0.0,0.0,0.0,0.0,0.0,0.0,0.0,0.0,0.0,0.0,0.0,0.0,0.0,0.0,0.0,0.0,0.0,0.0,0.0,0.0,0.0,0.0,0.0,0.0,0.0,0.0,0.0,0.0,0.0,0.0,0.0,0.0,0.0,0.0,0.0,0.0,0.0,0.0,0.0,0.0,0.0,0.0,0.0,0.0,0.0,0.0,0.0,3.8159,3.8334,3.73,0.0,3.6735,0.0,0.0,0.0,0.0,0.0,0.0,0.0,0.0,0.0,0.0,0.0,0.0,0.0,0.0,0.0,0.0,0.0,0.0,0.0,0.0,0.0,0.0,0.0,0.0,0.0,0.0,0.0,0.0,0.0,0.0,0.0,0.0,0.0,0.0,0.0,0.0,0.0,0.0,0.0,0.0,0.0,0.0,0.0,0.0,0.0,0.0,0.0,0.0,0.0,0.0,0.0,0.0,0.0,0.0,0.0,0.0,0.0,0.0,0.0,0.0,0.0,0.0,0.0,0.0,0.0,0.0,0.0,0.0,0.0,0.0,0.0,0.0,0.0,0.0,0.0,0.0,0.0,0.0,0.0,0.0,0.0,0.0,0.0,0.0,0.0,0.0,0.0,0.0,0.0,0.0,0.0,0.0,0.0,0.0,0.0,0.0,0.0,0.0,0.0,0.0,0.0,0.0,0.0,0.0,0.0,0.0,0.0,0.0,0.0,0.0,3.8382,3.8572,3.7656,3.7144,0.0,0.0,0.0,0.0,0.0,0.0,0.0,0.0,0.0,0.0,0.0,0.0,0.0,0.0,0.0,0.0,0.0,0.0,0.0,0.0,0.0,0.0,0.0,0.0,0.0,0.0,0.0,0.0,0.0,0.0,0.0,0.0,0.0,0.0,0.0,0.0,0.0,0.0,0.0,0.0,0.0,0.0,0.0,0.0,0.0,0.0,0.0,0.0,0.0,0.0,0.0,0.0,0.0,0.0,0.0,0.0,0.0,0.0,0.0,0.0,0.0,0.0,0.0,0.0,0.0,0.0,0.0,0.0,0.0,0.0,0.0,0.0,0.0,0.0,0.0,0.0,0.0,0.0,0.0,0.0,0.0,0.0,0.0,0.0,0.0,0.0,0.0,0.0,0.0,0.0,0.0,0.0,0.0,0.0,0.0,0.0,0.0,0.0,0.0,0.0,0.0,0.0,0.0,0.0,0.0,0.0,0.0,0.0,0.0,0.0,3.9235,3.8961,3.8748,3.8181,3.7671,3.7402,0.0,0.0,0.0,0.0,0.0,0.0,0.0,0.0,0.0,0.0,0.0,0.0,0.0,0.0,0.0,0.0,0.0,0.0,0.0,0.0,0.0,0.0,0.0,0.0,0.0,0.0,0.0,0.0,0.0,0.0,0.0,0.0,0.0,0.0,0.0,0.0,0.0,0.0,0.0,0.0,0.0,0.0,0.0,0.0,0.0,0.0,0.0,0.0,0.0,0.0,0.0,0.0,0.0,0.0,0.0,0.0,0.0,0.0,0.0,0.0,0.0,0.0,0.0,0.0,0.0,0.0,0.0,0.0,0.0,0.0,0.0,0.0,0.0,0.0,0.0,0.0,0.0,0.0,0.0,0.0,0.0,0.0,0.0,0.0,0.0,0.0,0.0,0.0,0.0,0.0,0.0,0.0,0.0,0.0,0.0,0.0,0.0,0.0,0.0,0.0,0.0,0.0,0.0,0.0,0.0,0.0,0.0,0.0,4.137,4.1037,4.0303,3.9241,3.9182,3.8664,0.0,0.0,0.0,0.0,0.0,0.0,0.0,0.0,0.0,0.0,0.0,0.0,0.0,0.0,0.0,0.0,0.0,0.0,0.0,0.0,0.0,0.0,0.0,0.0,0.0,0.0,0.0,0.0,0.0,0.0,0.0,0.0,0.0,0.0,0.0,0.0,0.0,0.0,0.0,0.0,0.0,0.0,0.0,0.0,0.0,0.0,0.0,0.0,0.0,0.0,0.0,0.0,0.0,0.0,0.0,0.0,0.0,0.0,0.0,0.0,0.0,0.0,0.0,0.0,0.0,0.0,0.0,0.0,0.0,0.0,0.0,0.0,0.0,0.0,0.0,0.0,0.0,0.0,0.0,0.0,0.0,0.0,0.0,0.0,0.0,0.0,0.0,0.0,0.0,0.0,0.0,0.0,0.0,0.0,0.0,0.0,0.0,0.0,0.0,0.0,0.0,0.0,0.0,0.0,0.0,0.0,0.0,0.0,0.0,4.173,4.1762,4.1289,4.051,4.0018,3.9426,0.0,0.0,0.0,0.0,0.0,0.0,0.0,0.0,0.0,0.0,0.0,0.0,0.0,0.0,0.0,0.0,0.0,0.0,0.0,0.0,0.0,0.0,0.0,0.0,0.0,0.0,0.0,0.0,0.0,0.0,0.0,0.0,0.0,0.0,0.0,0.0,0.0,0.0,0.0,0.0,0.0,0.0,0.0,0.0,0.0,0.0,0.0,0.0,0.0,0.0,0.0,0.0,0.0,0.0,0.0,0.0,0.0,0.0,0.0,0.0,0.0,0.0,0.0,0.0,0.0,0.0,0.0,0.0,0.0,0.0,0.0,0.0,0.0,0.0,0.0,0.0,0.0,0.0,0.0,0.0,0.0,0.0,0.0,0.0,0.0,0.0,0.0,0.0,0.0,0.0,0.0,0.0,0.0,0.0,0.0,0.0,0.0,0.0,0.0,0.0,0.0,0.0,0.0,0.0,0.0,0.0,0.0,0.0,0.0,4.2571,0.0,4.2394,4.174,4.0955,4.0247,0.0,0.0,0.0,0.0,0.0,0.0,0.0,0.0,0.0,0.0,0.0,0.0,0.0,0.0,0.0,0.0,0.0,0.0,0.0,0.0,0.0,0.0,0.0,0.0,0.0,0.0,0.0,0.0,0.0,0.0,0.0,0.0,0.0,0.0,0.0,0.0,0.0,0.0,0.0,0.0,0.0,0.0,0.0,0.0,0.0,0.0,0.0,0.0,0.0,0.0,0.0,0.0,0.0,0.0,0.0,0.0,0.0,0.0,0.0,0.0,0.0,0.0,0.0,0.0,0.0,0.0,0.0,0.0,0.0,0.0,0.0,0.0,0.0,0.0,0.0,0.0,0.0,0.0,0.0,0.0,0.0,0.0,0.0,0.0,0.0,0.0,0.0,0.0,0.0,0.0,0.0,0.0,0.0,0.0,0.0,0.0,0.0,0.0,0.0,0.0,0.0,0.0,0.0,0.0,0.0,0.0,0.0,0.0,4.4579,4.4004,4.3949,4.3676,4.2856,4.1976,4.1146,0.0,0.0,0.0,0.0,0.0,0.0,0.0,0.0,0.0,0.0,0.0,0.0,0.0,0.0,0.0,0.0,0.0,0.0,0.0,0.0,0.0,0.0,0.0,0.0,0.0,0.0,0.0,0.0,0.0,0.0,0.0,0.0,0.0,0.0,0.0,0.0,0.0,0.0,0.0,0.0,0.0,0.0,0.0,0.0,0.0,0.0,0.0,0.0,0.0,0.0,0.0,0.0,0.0,0.0,0.0,0.0,0.0,0.0,0.0,0.0,0.0,0.0,0.0,0.0,0.0,0.0,0.0,0.0,0.0,0.0,0.0,0.0,0.0,0.0,0.0,0.0,0.0,0.0,0.0,0.0,0.0,0.0,0.0,0.0,0.0,0.0,0.0,0.0,0.0,0.0,0.0,0.0,0.0,0.0,0.0,0.0,0.0,0.0,0.0,0.0,0.0,0.0,0.0,0.0,0.0,0.0,0.0,0.0,0.0,4.6604,4.6522,4.6137,4.5274,4.4399,4.3268,0.0,0.0,0.0,0.0,0.0,0.0,0.0,0.0,0.0,0.0,0.0,0.0,0.0,0.0,0.0,0.0,0.0,0.0,0.0,0.0,0.0,0.0,0.0,0.0,0.0,0.0,0.0,0.0,0.0,0.0,0.0,0.0,0.0,0.0,0.0,0.0,0.0,0.0,0.0,0.0,0.0,0.0,0.0,0.0,0.0,0.0,0.0,0.0,0.0,0.0,0.0,0.0,0.0,0.0,0.0,0.0,0.0,0.0,0.0,0.0,0.0,0.0,0.0,0.0,0.0,0.0,0.0,0.0,0.0,0.0,0.0,0.0,0.0,0.0,0.0,0.0,0.0,0.0,0.0,0.0,0.0,0.0,0.0,0.0,0.0,0.0,0.0,0.0,0.0,0.0,0.0,0.0,0.0,0.0,0.0,0.0,0.0,0.0,0.0,0.0,0.0,0.0,0.0,0.0,0.0,0.0,0.0,0.0,0.0,5.1794,5.0816,4.9854,4.9007,4.7734,4.6109,4.4099,0.0,0.0,0.0,0.0,0.0,0.0,0.0,0.0,0.0,0.0,0.0,0.0,0.0,0.0,0.0,0.0,0.0,0.0,0.0,0.0,0.0,0.0,0.0,0.0,0.0,0.0,0.0,0.0,0.0,0.0,0.0,0.0,0.0,0.0,0.0,0.0,0.0,0.0,0.0,0.0,0.0,0.0,0.0,0.0,0.0,0.0,0.0,0.0,0.0,0.0,0.0,0.0,0.0,0.0,0.0,0.0,0.0,0.0,0.0,0.0,0.0,0.0,0.0,0.0,0.0,0.0,0.0,0.0,0.0,0.0,0.0,0.0,0.0,0.0,0.0,0.0,0.0,0.0,0.0,0.0,0.0,0.0,0.0,0.0,0.0,0.0,0.0,0.0,0.0,0.0,0.0,0.0,0.0,0.0,0.0,0.0,0.0,0.0,0.0,0.0,0.0,0.0,0.0,0.0,0.0,0.0,0.0,0.0,5.9023,5.6731,5.4959,5.3633,5.1836,4.952,0.0,0.0,0.0,0.0,0.0,0.0,0.0,0.0,0.0,0.0,0.0,0.0,0.0,0.0,0.0,0.0,0.0,0.0,0.0,0.0,0.0,0.0,0.0,0.0,0.0,0.0,0.0,0.0,0.0,0.0,0.0,0.0,0.0,0.0,0.0,0.0,0.0,0.0,0.0,0.0,0.0,0.0,0.0,0.0,0.0,0.0,0.0,0.0,0.0,0.0,0.0,0.0,0.0,0.0,0.0,0.0,0.0,0.0,0.0,0.0,0.0,0.0,0.0,0.0,0.0,0.0,0.0,0.0,0.0,0.0,0.0,0.0,0.0,0.0,0.0,0.0,0.0,0.0,0.0,0.0,0.0,0.0,0.0,0.0,0.0,0.0,0.0,0.0,0.0,0.0,0.0,0.0,0.0,0.0,0.0,0.0,0.0,0.0,0.0,0.0,0.0,0.0,0.0,0.0,0.0,0.0,0.0,0.0,0.0,6.4228,6.5453,6.3493,5.8309,5.5242,5.2551,0.0,0.0,0.0,0.0,0.0,0.0,0.0,0.0,0.0,0.0,0.0,0.0,0.0,0.0,0.0,0.0,0.0,0.0,0.0,0.0,0.0,0.0,0.0,0.0,0.0,0.0,0.0,0.0,0.0,0.0,0.0,0.0,0.0,0.0,0.0,0.0,0.0,0.0,0.0,0.0,0.0,0.0,0.0,0.0,0.0,0.0,0.0,0.0,0.0,0.0,0.0,0.0,0.0,0.0,0.0,0.0,0.0,0.0,0.0,0.0,0.0,0.0,0.0,0.0,0.0,0.0,0.0,0.0,0.0,0.0,0.0,0.0,0.0,0.0,0.0,0.0,0.0,0.0,0.0,0.0,0.0,0.0,0.0,0.0,0.0,0.0,0.0,0.0,0.0,0.0,0.0,0.0,0.0,0.0,0.0,0.0,0.0,0.0,0.0,0.0,0.0,0.0,0.0,0.0,0.0,0.0,0.0,0.0,6.5807,6.8262,7.0798,7.0061,6.5812,6.0606,5.6543,0.0,0.0,0.0,0.0,0.0,0.0,0.0,0.0,0.0,0.0,0.0,0.0,0.0,0.0,0.0,0.0,0.0,0.0,0.0,0.0,0.0,0.0,0.0,0.0,0.0,0.0,0.0,0.0,0.0,0.0,0.0,0.0,0.0,0.0,0.0,0.0,0.0,0.0,0.0,0.0,0.0,0.0,0.0,0.0,0.0,0.0,0.0,0.0,0.0,0.0,0.0,0.0,0.0,0.0,0.0,0.0,0.0,0.0,0.0,0.0,0.0,0.0,0.0,0.0,0.0,0.0,0.0,0.0,0.0,0.0,0.0,0.0,0.0,0.0,0.0,0.0,0.0,0.0,0.0,0.0,0.0,0.0,0.0,0.0,0.0,0.0,0.0,0.0,0.0,0.0,0.0,0.0,0.0,0.0,0.0,0.0,0.0,0.0,0.0,0.0,0.0,0.0,0.0,0.0,0.0,0.0,0.0,0.0,6.8981,7.1477,7.4004,7.495,7.3997,6.6668,6.0864,0.0,0.0,0.0,0.0,0.0,0.0,0.0,0.0,0.0,0.0,0.0,0.0,0.0,0.0,0.0,0.0,0.0,0.0,0.0,0.0,0.0,0.0,0.0,0.0,0.0,0.0,0.0,0.0,0.0,0.0,0.0,0.0,0.0,0.0,0.0,0.0,0.0,0.0,0.0,0.0,0.0,0.0,0.0,0.0,0.0,0.0,0.0,0.0,0.0,0.0,0.0,0.0,0.0,0.0,0.0,0.0,0.0,0.0,0.0,0.0,0.0,0.0,0.0,0.0,0.0,0.0,0.0,0.0,0.0,0.0,0.0,0.0,0.0,0.0,0.0,0.0,0.0,0.0,0.0,0.0,0.0,0.0,0.0,0.0,0.0,0.0,0.0,0.0,0.0,0.0,0.0,0.0,0.0,0.0,0.0,0.0,0.0,0.0,0.0,0.0,0.0,0.0,0.0,0.0,0.0,0.0,0.0,0.0,7.2069,7.4038,7.6574,7.7183,7.5841,6.9533,6.451,0.0,0.0,0.0,0.0,0.0,0.0,0.0,0.0,0.0,0.0,0.0,0.0,0.0,0.0,0.0,0.0,0.0,0.0,0.0,0.0,0.0,0.0,0.0,0.0,0.0,0.0,0.0,0.0,0.0,0.0,0.0,0.0,0.0,0.0,0.0,0.0,0.0,0.0,0.0,0.0,0.0,0.0,0.0,0.0,0.0,0.0,0.0,0.0,5.0849,0.0,0.0,0.0,0.0,0.0,0.0,0.0,0.0,0.0,0.0,0.0,0.0,0.0,0.0,0.0,0.0,0.0,0.0,0.0,0.0,0.0,0.0,0.0,0.0,0.0,0.0,0.0,0.0,0.0,0.0,0.0,0.0,0.0,0.0,0.0,0.0,0.0,0.0,0.0,0.0,0.0,0.0,0.0,0.0,0.0,0.0,0.0,0.0,0.0,0.0,0.0,0.0,0.0,0.0,0.0,0.0,0.0,0.0,0.0,7.4191,7.7049,7.8506,7.9028,7.8431,7.3893,6.8965,0.0,0.0,0.0,0.0,0.0,0.0,0.0,0.0,0.0,0.0,0.0,0.0,0.0,0.0,0.0,0.0,0.0,0.0,0.0,0.0,0.0,0.0,0.0,0.0,0.0,0.0,0.0,0.0,0.0,0.0,0.0,0.0,0.0,0.0,0.0,0.0,0.0,0.0,0.0,0.0,0.0,0.0,0.0,0.0,0.0,0.0,0.0,0.0,0.0,0.0,0.0,0.0,0.0,0.0,0.0,0.0,0.0,0.0,0.0,0.0,0.0,0.0,0.0,0.0,0.0,0.0,0.0,0.0,0.0,0.0,0.0,0.0,0.0,0.0,0.0,0.0,0.0,0.0,0.0,0.0,0.0,0.0,0.0,0.0,0.0,0.0,0.0,0.0,0.0,0.0,0.0,0.0,0.0,0.0,0.0,0.0,0.0,0.0,0.0,0.0,0.0,0.0,0.0,0.0,0.0,0.0,0.0,7.1936,7.5632,7.9594,7.9953,8.0404,8.1038,7.7858,7.2955,6.6349,0.0,0.0,0.0,0.0,0.0,0.0,0.0,0.0,0.0,0.0,0.0,0.0,0.0,0.0,0.0,0.0,0.0,0.0,0.0,0.0,0.0,0.0,0.0,0.0,0.0,0.0,0.0,0.0,0.0,0.0,0.0,0.0,0.0,0.0,0.0,0.0,0.0,0.0,5.1723,5.3107,0.0,0.0,0.0,0.0,0.0,0.0,0.0,0.0,5.3338,0.0,0.0,0.0,0.0,0.0,0.0,0.0,0.0,0.0,0.0,0.0,0.0,0.0,0.0,0.0,0.0,0.0,0.0,0.0,0.0,0.0,0.0,0.0,0.0,0.0,0.0,0.0,0.0,0.0,0.0,0.0,0.0,0.0,0.0,0.0,0.0,0.0,0.0,0.0,0.0,0.0,0.0,0.0,0.0,0.0,0.0,0.0,0.0,0.0,0.0,0.0,0.0,0.0,0.0,0.0,0.0,7.0636,7.3154,7.6494,8.0713,8.0893,8.0984,8.1038,7.7841,7.3712,6.8629,0.0,0.0,0.0,0.0,0.0,0.0,0.0,0.0,0.0,0.0,0.0,0.0,0.0,0.0,0.0,0.0,0.0,0.0,0.0,0.0,0.0,0.0,0.0,0.0,0.0,0.0,0.0,0.0,0.0,0.0,0.0,0.0,0.0,0.0,0.0,0.0,0.0,0.0,0.0,5.5432,5.5949,0.0,0.0,0.0,0.0,0.0,0.0,0.0,0.0,5.5746,0.0,0.0,0.0,0.0,0.0,0.0,0.0,0.0,0.0,0.0,0.0,0.0,0.0,0.0,0.0,0.0,0.0,0.0,0.0,0.0,0.0,0.0,0.0,0.0,0.0,0.0,0.0,0.0,0.0,0.0,0.0,0.0,0.0,0.0,0.0,0.0,0.0,0.0,0.0,0.0,0.0,0.0,0.0,0.0,0.0,0.0,0.0,0.0,0.0,0.0,0.0,0.0,0.0,0.0,0.0,7.2739,7.5344,7.8493,8.2124,8.1925,8.1925,8.2287,7.8565,7.4417,0.0,0.0,0.0,0.0,0.0,0.0,0.0,0.0,0.0,0.0,0.0,0.0,0.0,0.0,0.0,0.0,0.0,0.0,0.0,0.0,0.0,0.0,0.0,0.0,0.0,0.0,0.0,0.0,0.0,0.0,0.0,0.0,0.0,0.0,0.0,0.0,0.0,0.0,0.0,0.0,5.7237,5.7965,5.8282,0.0,0.0,0.0,0.0,0.0,0.0,5.6824,5.652,0.0,0.0,0.0,0.0,0.0,0.0,0.0,0.0,0.0,0.0,0.0,0.0,0.0,0.0,0.0,0.0,0.0,0.0,0.0,0.0,0.0,0.0,0.0,0.0,0.0,0.0,0.0,0.0,0.0,0.0,0.0,0.0,0.0,0.0,0.0,0.0,0.0,0.0,0.0,0.0,0.0,0.0,0.0,0.0,0.0,0.0,0.0,0.0,0.0,0.0,0.0,0.0,0.0,0.0,0.0,7.4466,7.7088,8.0099,8.3301,8.2885,8.2885,8.3392,7.9288,7.4993,0.0,0.0,0.0,0.0,0.0,0.0,0.0,0.0,0.0,0.0,0.0,0.0,0.0,0.0,0.0,0.0,0.0,0.0,0.0,0.0,0.0,0.0,0.0,0.0,0.0,0.0,0.0,0.0,0.0,0.0,0.0,0.0,0.0,0.0,0.0,0.0,0.0,0.0,0.0,0.0,0.0,5.9737,6.0191,6.045,0.0,0.0,0.0,0.0,5.793,5.8015,0.0,0.0,0.0,0.0,0.0,0.0,0.0,0.0,0.0,0.0,0.0,0.0,0.0,0.0,0.0,0.0,0.0,0.0,0.0,0.0,0.0,0.0,0.0,0.0,0.0,0.0,0.0,0.0,0.0,0.0,0.0,0.0,0.0,0.0,0.0,0.0,0.0,0.0,0.0,0.0,0.0,0.0,0.0,0.0,0.0,0.0,0.0,0.0,0.0,0.0,0.0,0.0,0.0,0.0,0.0,0.0,7.4448,7.716,8.0099,8.3301,8.3392,8.3392,8.3465,7.927,7.5191,0.0,0.0,0.0,0.0,0.0,0.0,0.0,0.0,0.0,0.0,0.0,0.0,0.0,0.0,0.0,0.0,0.0,0.0,0.0,0.0,0.0,0.0,0.0,0.0,0.0,0.0,0.0,0.0,0.0,0.0,0.0,0.0,0.0,0.0,0.0,0.0,0.0,0.0,0.0,0.0,0.0,6.0774,6.2082,6.1838,6.1374,0.0,0.0,6.2105,6.2058,6.2743,0.0,0.0,0.0,0.0,0.0,0.0,0.0,0.0,0.0,0.0,0.0,0.0,0.0,0.0,0.0,0.0,0.0,0.0,0.0,0.0,0.0,0.0,0.0,0.0,0.0,0.0,0.0,0.0,0.0,0.0,0.0,0.0,0.0,0.0,0.0,0.0,0.0,0.0,0.0,0.0,0.0,0.0,0.0,0.0,0.0,0.0,0.0,0.0,0.0,0.0,0.0,0.0,0.0,0.0,0.0,7.1641,7.5257,7.8872,8.1635,8.3611,8.4119,8.4174,8.3755,7.9846,7.6195,0.0,0.0,0.0,0.0,0.0,0.0,0.0,0.0,0.0,0.0,0.0,0.0,0.0,0.0,0.0,0.0,0.0,0.0,0.0,0.0,0.0,0.0,0.0,0.0,0.0,0.0,0.0,0.0,0.0,0.0,0.0,0.0,0.0,0.0,0.0,0.0,0.0,0.0,0.0,0.0,0.0,0.0,6.3897,6.46,0.0,0.0,0.0,6.3866,6.2964,0.0,0.0,0.0,0.0,0.0,0.0,0.0,0.0,0.0,0.0,0.0,0.0,0.0,0.0,0.0,0.0,0.0,0.0,0.0,0.0,0.0,0.0,0.0,0.0,0.0,0.0,0.0,0.0,0.0,0.0,0.0,0.0,0.0,0.0,0.0,0.0,0.0,0.0,0.0,0.0,0.0,0.0,0.0,0.0,0.0,0.0,0.0,0.0,0.0,0.0,0.0,0.0,0.0,0.0,0.0,0.0,0.0,7.6191,8.0496,8.3084,8.3864,8.4882,8.5117,8.4367,8.0925,0.0,0.0,0.0,0.0,0.0,0.0,0.0,0.0,0.0,0.0,0.0,0.0,0.0,0.0,0.0,0.0,0.0,0.0,0.0,0.0,0.0,0.0,0.0,0.0,0.0,0.0,0.0,5.2444,0.0,0.0,0.0,0.0,0.0,0.0,0.0,0.0,0.0,0.0,0.0,0.0,0.0,0.0,6.5327,6.564,6.6873,6.7554,0.0,0.0,6.5545,6.4517,6.4897,6.4677,0.0,0.0,0.0,0.0,0.0,0.0,0.0,0.0,0.0,0.0,0.0,0.0,0.0,0.0,0.0,0.0,0.0,0.0,0.0,0.0,0.0,0.0,0.0,0.0,0.0,0.0,0.0,0.0,0.0,0.0,0.0,0.0,0.0,0.0,0.0,0.0,0.0,0.0,0.0,0.0,0.0,0.0,0.0,0.0,0.0,0.0,0.0,0.0,0.0,0.0,0.0,0.0,0.0,0.0,7.3729,7.7103,8.1612,8.3896,8.406,8.5714,8.6185,8.5398,8.2966,7.9747,0.0,0.0,0.0,0.0,0.0,0.0,0.0,0.0,0.0,0.0,0.0,0.0,0.0,0.0,0.0,0.0,0.0,0.0,0.0,0.0,0.0,0.0,0.0,0.0,0.0,0.0,0.0,0.0,0.0,0.0,0.0,0.0,0.0,0.0,0.0,0.0,0.0,0.0,0.0,0.0,0.0,6.6459,6.7264,6.7533,6.7994,0.0,6.8054,6.776,6.8408,6.8495,6.7747,6.5398,0.0,0.0,0.0,0.0,0.0,0.0,0.0,0.0,0.0,0.0,0.0,0.0,0.0,0.0,0.0,0.0,0.0,0.0,0.0,0.0,0.0,0.0,0.0,0.0,0.0,0.0,0.0,0.0,0.0,0.0,0.0,0.0,0.0,0.0,0.0,0.0,0.0,0.0,0.0,0.0,0.0,0.0,0.0,0.0,0.0,0.0,0.0,0.0,0.0,0.0,0.0,0.0,0.0,7.587,7.7933,8.206,8.4468,8.5101,8.6373,8.6747,8.5983,8.4419,8.1712,0.0,0.0,0.0,0.0,0.0,0.0,0.0,0.0,0.0,0.0,0.0,0.0,0.0,0.0,0.0,0.0,0.0,0.0,0.0,0.0,0.0,0.0,0.0,0.0,0.0,0.0,0.0,0.0,5.9647,6.0419,6.0722,0.0,0.0,0.0,0.0,0.0,0.0,0.0,0.0,0.0,0.0,6.9048,7.0392,7.1036,0.0,0.0,7.0389,6.9655,6.9009,6.8935,6.8128,6.5692,6.5031,0.0,0.0,0.0,0.0,0.0,0.0,0.0,0.0,0.0,0.0,0.0,0.0,0.0,0.0,0.0,0.0,0.0,0.0,0.0,0.0,0.0,0.0,0.0,0.0,0.0,0.0,0.0,0.0,0.0,0.0,0.0,0.0,0.0,0.0,0.0,0.0,0.0,0.0,0.0,0.0,0.0,0.0,0.0,0.0,0.0,0.0,0.0,0.0,0.0,0.0,0.0,0.0,7.7505,7.8903,8.2864,8.521,8.5916,8.6966,8.7222,8.6793,8.5787,8.3643,0.0,0.0,0.0,0.0,0.0,0.0,0.0,0.0,0.0,0.0,0.0,0.0,0.0,0.0,0.0,0.0,0.0,0.0,0.0,0.0,0.0,0.0,0.0,0.0,0.0,0.0,0.0,0.0,6.2173,6.2957,6.3506,0.0,0.0,0.0,0.0,0.0,0.0,0.0,0.0,0.0,0.0,7.1757,7.2738,7.334,7.3413,7.2606,7.1637,7.061,6.9729,6.9215,6.8334,6.6646,0.0,0.0,0.0,0.0,0.0,0.0,0.0,0.0,0.0,0.0,0.0,0.0,0.0,0.0,0.0,0.0,0.0,0.0,0.0,0.0,0.0,0.0,0.0,0.0,0.0,0.0,0.0,6.3099,0.0,0.0,6.093,0.0,0.0,0.0,0.0,0.0,0.0,0.0,0.0,0.0,0.0,0.0,0.0,0.0,0.0,0.0,0.0,0.0,0.0,0.0,0.0,0.0,0.0,7.7985,8.0154,8.4141,8.6262,8.6352,8.7253,8.7858,8.7957,8.7214,8.5692,8.3419,0.0,0.0,0.0,0.0,0.0,0.0,0.0,0.0,0.0,0.0,0.0,0.0,0.0,0.0,0.0,0.0,0.0,0.0,0.0,0.0,0.0,0.0,0.0,0.0,0.0,0.0,6.2236,6.3593,6.5272,0.0,0.0,0.0,0.0,0.0,0.0,0.0,0.0,0.0,7.0938,7.3252,7.45,7.378,7.3707,7.3487,7.2679,7.1211,7.0403,7.1123,6.9949,6.8862,0.0,0.0,0.0,0.0,0.0,0.0,0.0,0.0,0.0,0.0,0.0,0.0,0.0,0.0,0.0,0.0,0.0,0.0,0.0,0.0,0.0,0.0,0.0,0.0,0.0,0.0,0.0,6.4918,6.5689,0.0,0.0,0.0,0.0,0.0,0.0,0.0,0.0,0.0,0.0,0.0,7.1621,7.1888,0.0,0.0,0.0,0.0,0.0,0.0,0.0,0.0,0.0,0.0,0.0,0.0,8.0135,8.1614,8.4829,8.6751,8.7269,8.7836,8.8155,8.8217,8.8025,8.6355,8.309,0.0,0.0,0.0,0.0,0.0,0.0,0.0,0.0,0.0,0.0,0.0,0.0,0.0,0.0,0.0,0.0,0.0,0.0,0.0,0.0,0.0,0.0,0.0,0.0,0.0,6.5914,0.0,0.0,0.0,0.0,0.0,0.0,0.0,0.0,0.0,0.0,7.1085,7.2797,7.422,7.4705,7.516,7.5968,7.5616,7.5175,0.0,0.0,0.0,0.0,0.0,0.0,0.0,0.0,0.0,0.0,0.0,0.0,0.0,0.0,6.3414,6.2789,6.2967,6.3215,6.3109,0.0,0.0,0.0,0.0,0.0,0.0,0.0,0.0,0.0,0.0,0.0,0.0,0.0,0.0,6.8449,6.9227,6.8629,0.0,0.0,0.0,0.0,0.0,0.0,0.0,0.0,7.3047,7.4047,7.4868,7.5424,7.5924,0.0,7.5811,7.4545,0.0,0.0,0.0,0.0,0.0,0.0,0.0,0.0,8.1545,8.2552,8.559,8.7496,8.8062,8.8263,8.8414,8.8473,8.8562,8.716,8.399,8.0425,7.6652,0.0,0.0,0.0,0.0,0.0,0.0,0.0,0.0,0.0,0.0,0.0,0.0,0.0,0.0,0.0,0.0,0.0,0.0,0.0,0.0,0.0,0.0,0.0,6.9566,0.0,0.0,0.0,0.0,0.0,0.0,0.0,0.0,0.0,7.2695,7.3823,7.5363,7.6775,7.6717,7.6775,7.7215,0.0,0.0,0.0,0.0,0.0,0.0,0.0,6.976,6.9082,6.8454,6.7959,6.7611,6.6879,6.6186,6.583,0.0,0.0,6.4461,6.4676,6.4861,6.4785,6.4826,6.4821,6.4894,6.5015,6.5341,0.0,0.0,0.0,0.0,0.0,0.0,0.0,0.0,7.2456,7.2766,0.0,7.2843,0.0,0.0,0.0,0.0,7.3053,7.3264,0.0,0.0,7.7107,7.8116,7.8602,7.981,8.0298,7.9987,7.9683,7.9339,7.861,7.5937,0.0,0.0,0.0,0.0,0.0,0.0,8.2431,8.3304,8.664,8.8443,8.8578,8.8593,8.8606,8.8766,8.878,8.7945,8.6142,8.3334,8.0548,7.7784,7.3995,0.0,0.0,0.0,0.0,0.0,0.0,0.0,0.0,0.0,0.0,0.0,0.0,0.0,0.0,0.0,0.0,0.0,0.0,0.0,0.0,7.238,0.0,0.0,0.0,0.0,0.0,0.0,0.0,0.0,0.0,7.7609,7.5126,7.6317,7.7656,7.8479,0.0,0.0,0.0,0.0,7.6481,7.4221,7.2445,7.1476,7.1476,7.0643,7.0322,7.1183,0.0,0.0,7.0155,6.8201,6.6759,6.6756,6.6633,6.6119,6.5506,6.5359,6.5307,6.5174,6.5134,6.5088,6.5101,6.5314,6.5605,7.7744,0.0,0.0,0.0,0.0,7.5253,7.6016,7.6655,7.7224,7.7605,7.7805,7.7005,0.0,0.0,0.0,0.0,0.0,0.0,7.8407,7.8791,7.9609,8.0333,8.0948,8.1093,8.1398,8.1795,8.1422,8.1486,8.1829,8.1307,8.0154,7.8511,0.0,0.0,0.0,0.0,8.5714,8.6923,8.8992,8.9875,8.9429,8.9533,8.9365,8.8922,8.8936,8.834,8.7211,8.5779,8.3344,7.9821,7.8552,0.0,0.0,0.0,0.0,0.0,0.0,0.0,0.0,0.0,0.0,0.0,0.0,0.0,0.0,0.0,0.0,0.0,0.0,0.0,7.3407,7.5003,7.565,0.0,0.0,0.0,0.0,0.0,0.0,0.0,0.0,0.0,7.7594,7.839,7.914,0.0,0.0,7.7876,7.7362,7.6741,7.624,7.6182,7.479,0.0,7.4482,7.3003,7.1814,7.2151,7.1596,7.0879,7.0229,6.9953,6.9631,6.9196,6.9082,6.8853,6.8564,6.7442,6.6701,6.6573,6.6573,6.6573,6.6573,6.6614,6.6729,8.5543,8.1653,7.9304,7.8525,7.8803,8.0117,8.0789,8.1165,8.1784,8.2038,8.1987,8.1283,8.0788,8.0506,8.003,0.0,0.0,0.0,8.2189,8.2342,8.3005,8.3553,8.4152,8.4319,8.4499,8.4716,8.4416,8.4459,8.4759,8.4893,8.429,8.2956,0.0,8.2486,8.3809,8.5627,8.7306,8.8659,9.0132,9.0744,9.0444,9.0532,9.0394,8.9968,8.9667,8.9175,8.864,8.7515,8.5625,8.2943,8.2353,8.0311,0.0,0.0,0.0,0.0,0.0,0.0,0.0,0.0,0.0,0.0,0.0,6.6119,6.7148,0.0,0.0,0.0,7.4383,7.5729,7.6637,7.7605,0.0,0.0,0.0,0.0,0.0,0.0,0.0,7.6555,7.7652,7.8443,7.861,7.9008,7.9449,7.9743,7.8919,7.817,7.7876,0.0,7.649,7.6637,7.5626,7.4952,7.5391,7.4029,7.2798,7.2446,7.1977,7.1537,7.1183,7.1126,7.1024,7.0669,7.033,7.0082,6.9998,6.9093,6.8191,6.7786,6.7684,6.7626,6.7247,6.7303,6.7418,9.271,9.1573,8.5974,8.3557,8.3698,8.5195,8.6026,8.6144,8.6165,8.6165,8.6043,8.5555,8.5197,8.5013,8.5054,0.0,8.5379,8.5399,8.5637,8.608,8.6996,8.753,8.7627,8.8634,8.8746,8.8014,8.8106,8.7935,8.7472,8.7279,8.7738,8.8571,8.5984,8.5011,8.5676,8.6723,8.7958,8.9447,9.0634,9.1313,9.162,9.1559,9.1484,9.1484,9.0719,9.0329,9.0254,8.8903,8.7585,8.656,8.5484,8.3777,8.1134,0.0,0.0,0.0,0.0,0.0,0.0,0.0,0.0,0.0,0.0,0.0,0.0,0.0,0.0,7.6445,7.9161,0.0,7.989,7.9816,0.0,0.0,0.0,7.7289,7.7289,7.7273,7.7273,7.7289,0.0,0.0,7.8479,7.8568,7.8862,7.9596,7.9669,7.9302,7.8626,7.7714,7.7053,7.6378,7.5586,7.5072,7.5262,7.4469,7.3633,7.2915,7.2621,7.2796,7.2737,7.2135,7.1606,7.1621,7.0886,7.0386,7.0372,7.0372,6.9995,6.895,6.8645,6.8325,6.7755,6.7794,6.8257,9.6279,9.5899,9.3835,9.1675,8.9582,8.996,8.9883,8.9449,8.9529,8.9257,8.8726,8.8741,8.8732,8.8711,8.8855,8.9059,8.9208,8.9439,8.9654,8.9978,9.0181,9.0,8.9528,9.0445,9.0191,8.891,8.9568,8.9691,8.9126,8.9212,8.9495,8.9827,8.9301,8.9243,8.9784,9.0074,9.1102,9.3098,9.2965,9.272,9.2432,9.186,9.1484,9.1484,9.1334,9.1169,9.1169,9.0794,8.9879,8.8424,8.8129,8.6673,8.3837,8.1268,0.0,0.0,0.0,0.0,0.0,0.0,0.0,0.0,0.0,7.2061,7.2569,0.0,7.6826,0.0,8.0087,8.1139,8.0047,7.9895,0.0,0.0,7.7436,7.7289,7.7289,7.7181,7.7165,7.7273,7.7401,7.7532,7.7567,7.8293,7.8765,7.8877,7.8332,7.7803,7.7656,7.7343,7.7118,7.6914,7.671,7.6606,7.649,7.6145,7.5382,7.4647,7.463,7.473,7.473,7.4066,7.3476,7.3476,7.2886,7.2369,7.2295,7.2295,7.1973,7.108,7.0253,6.9645,6.9499,6.9991,7.0602,10.0133,10.0086,9.9778,9.8467,9.637,9.4677,9.3605,9.3247,9.3133,9.2812,9.2425,9.2385,9.245,9.2533,9.2759,9.2921,9.3042,9.3161,9.3134,9.2905,9.2983,9.2583,9.1852,9.2479,9.2353,9.1473,9.2097,9.2222,9.1957,9.2149,9.2411,9.2595,9.2604,9.2794,9.298,9.2,9.2258,9.3791,9.4046,9.4188,9.428,9.3904,9.3335,9.2536,9.2057,9.1364,9.0179,8.9856,8.9161,8.7973,8.7914,8.7003,8.5154,8.2598,8.0925,0.0,0.0,0.0,0.0,0.0,0.0,0.0,0.0,0.0,0.0,0.0,7.9007,7.9533,8.1243,8.1649,8.0217,7.9713,7.8915,7.7664,7.7441,7.7396,7.7469,7.7258,7.7196,7.7273,7.7273,7.7304,7.7469,7.8283,7.8875,7.8784,7.8695,7.8443,7.7999,7.7629,7.7378,7.7365,7.7396,7.7249,7.694,7.6663,7.6191,7.5453,7.5377,7.5434,7.5434,7.5064,7.4695,7.4695,7.4326,7.4104,7.403,7.403,7.3882,7.3411,7.2872,7.1964,7.0611,7.0679,7.1102,10.4012,10.4088,10.4241,10.3838,10.2931,9.9394,9.7601,9.7171,9.6774,9.6548,9.6493,9.6225,9.6209,9.6374,9.6652,9.668,9.6575,9.6648,9.621,9.5446,9.5623,9.5262,9.453,9.4774,9.4777,9.4649,9.4908,9.5092,9.5125,9.5189,9.538,9.5534,9.5477,9.5403,9.5328,9.3248,9.2587,9.3509,9.4435,9.5233,9.5938,9.5866,9.5102,9.3464,9.2639,9.1206,8.8964,8.8344,8.7722,8.7008,8.6897,8.6597,8.6012,8.368,8.2214,0.0,8.0196,0.0,0.0,0.0,0.0,0.0,0.0,0.0,0.0,7.989,8.0493,8.1612,8.2246,8.192,8.0399,7.9497,7.867,7.7931,7.774,7.765,7.7635,7.7441,7.735,7.735,7.756,7.765,7.765,7.8448,7.9069,7.9024,7.9645,7.9837,7.9185,7.8476,7.8137,7.8138,7.8153,7.802,7.7444,7.7119,7.6778,7.6127,7.5948,7.5786,7.5888,7.5726,7.5578,7.5578,7.5444,7.5356,7.5416,7.543,7.543,7.5296,7.5208,7.4367,7.2109,7.1605,7.1545,10.7354,10.7488,10.6869,10.6662,10.6599,10.478,10.2404,9.9866,9.9975,9.9857,9.9651,9.9784,9.9859,9.9901,9.9943,9.9703,9.9261,9.9281,9.8923,9.8329,9.8369,9.7948,9.7234,9.7841,9.7493,9.6337,9.7134,9.7248,9.6842,9.6374,9.6271,9.6351,9.57,9.5403,9.5403,0.0,0.0,0.0,9.5082,9.4883,9.4495,9.3367,9.2561,9.2021,9.1711,0.0,9.0478,9.0555,9.0228,8.9386,8.889,0.0,0.0,0.0,0.0,0.0,0.0,0.0,0.0,0.0,0.0,0.0,8.2207,8.154,8.0219,8.0842,8.1748,8.2653,8.2147,8.1375,8.0548,7.9557,7.867,7.7931,7.7754,7.774,7.774,7.7769,7.7681,7.7695,7.771,7.7813,7.7887,7.8625,7.9187,7.9246,7.9823,8.0341,8.0311,7.9986,7.9763,7.9867,7.9734,7.9719,7.9645,7.9083,7.8638,7.8519,7.8099,7.7784,7.771,7.7191,7.6833,7.6819,7.6239,7.578,7.578,7.572,7.5841,7.5706,7.578,7.5503,7.4677,7.5088,7.5676,11.0059,11.0145,10.9711,10.9389,0.0,10.8703,10.7301,10.5392,10.3751,10.3084,10.3074,10.329,10.3242,10.3002,10.3107,10.2832,10.2299,10.2226,10.1917,10.1186,10.1069,10.0588,9.9853,10.0122,9.9622,9.854,9.9198,9.9186,9.8485,9.8406,9.8361,9.8449,9.8003,9.7855,9.7855,9.7941,9.7397,9.6132,9.6132,9.6182,9.6175,9.5661,9.4913,9.3872,9.3673,0.0,0.0,0.0,0.0,0.0,0.0,0.0,0.0,8.7247,0.0,8.6668,8.568,8.4935,8.4867,8.5016,8.5029,8.4582,8.4267,8.3436,8.1881,8.228,8.2842,8.3287,8.2415,8.1718,8.1345,8.0413,7.9644,7.9274,7.9201,7.9157,7.9157,7.9084,7.9054,7.9054,7.9113,7.9157,7.9157,8.0044,8.0813,8.1184,8.1985,8.2652,8.2933,8.1585,8.0445,8.0444,8.0474,8.0474,8.0474,8.0221,7.9997,7.9922,7.9683,7.9502,7.9516,7.9145,7.8922,7.8847,7.8179,7.7658,7.7584,7.7361,7.705,7.7064,7.705,7.705,7.688,7.6657,7.6374,11.2823,11.2767,11.247,11.2199,11.1867,11.1989,11.1766,11.1024,10.7608,0.0,0.0,10.656,10.6334,10.5861,10.6121,10.5841,10.5263,10.5189,10.4839,10.4026,10.3682,10.3141,10.2438,10.2132,10.1664,10.0963,10.1319,10.1162,10.0628,10.0832,10.0939,10.0901,10.0678,10.0473,10.0377,10.0552,9.9601,9.7455,9.7301,9.764,9.8238,9.8193,9.7384,9.5834,9.5708,9.4445,9.1767,9.1711,9.123,9.0136,8.9801,8.9512,8.9111,8.8199,8.7588,8.7144,8.6699,8.6397,8.6387,8.6485,8.6541,8.6391,8.5749,8.4801,8.355,8.356,8.363,8.363,8.2757,8.2226,8.2226,8.1354,8.0748,8.0734,8.0605,8.0503,8.0503,8.04,8.0341,8.04,8.0444,8.0532,8.0561,8.1331,8.2353,8.3301,8.3926,8.5027,8.5473,8.3378,8.1479,8.1432,8.1446,8.1297,8.1223,8.1074,8.1,8.1014,8.0865,8.0776,8.0776,8.0776,8.0776,8.0581,8.0181,7.9823,7.9749,7.9242,7.8856,7.8782,7.8782,7.8884,7.883,7.7822,7.6875,11.6007,11.5767,11.5284,11.5202,11.5332,11.4875,11.4528,11.392,11.0744,10.935,10.9416,10.9014,10.8853,10.8821,10.8841,10.8439,10.772,10.772,10.7277,10.6464,10.576,10.5291,10.4963,10.4259,10.3696,10.3407,10.363,10.3756,10.3879,10.3351,10.3242,10.326,10.2015,10.1121,10.0627,10.0742,10.0677,10.027,9.8633,9.7752,9.7826,9.6,9.4903,9.4556,9.4503,9.4044,9.3419,9.3032,9.2662,9.2476,9.1363,9.0972,9.1611,9.0849,9.0422,9.0421,9.0244,8.9486,8.8037,8.7781,8.7426,8.6749,8.6404,8.5593,8.3931,8.3781,8.3794,8.372,8.2984,8.2365,8.229,8.1657,8.1187,8.1038,8.0837,8.0662,8.0811,8.0856,8.0842,8.0931,8.0648,8.0868,8.1205,8.1769,8.2584,8.3471,8.4722,8.5245,8.5783,8.5142,8.4054,8.3382,8.3233,8.3159,8.3056,8.2561,8.2174,8.2202,8.1577,8.1265,8.1265,8.1265,8.1265,8.1143,8.1055,8.098,8.0905,8.0858,8.0607,8.0593,8.0519,8.062,8.0586,8.0274,7.9826,11.849,11.8281,11.7471,11.732,11.7522,11.7327,11.7187,11.7014,11.5282,11.3638,11.2372,11.2143,11.1847,11.1527,11.1083,11.0532,10.9912,10.9467,10.9023,10.8632,10.8023,10.7713,10.7537,10.7016,10.6544,10.6123,10.6256,10.6035,10.5439,10.5188,10.5024,10.4782,10.4146,10.3713,10.3445,10.3618,10.3704,10.3629,10.0952,9.9598,9.9598,9.8717,9.8013,9.7591,9.7525,9.7052,9.6335,9.604,9.5745,9.5373,9.431,9.3692,9.3553,9.2854,9.2247,9.1774,9.1673,9.1243,9.028,8.9668,8.8985,8.8082,8.7656,8.6851,8.5502,8.5333,8.5293,8.5293,8.4795,8.4474,8.4474,8.405,8.3699,8.3702,8.3556,8.3483,8.3395,8.3366,8.341,8.3423,8.3126,8.2886,8.3116,8.3056,8.356,8.4835,8.6191,8.7071,8.7057,8.6682,8.6102,8.5138,8.4573,8.4349,8.4274,8.3602,8.314,8.3079,8.278,8.2556,8.2481,8.2481,8.2481,8.2481,8.2182,8.1883,8.1883,8.1435,8.1286,8.1211,8.1211,8.1238,8.1319,8.1438,8.1229,12.0763,12.0636,11.976,11.9612,11.9889,11.9629,11.9673,11.9779,11.9006,11.7567,11.5714,11.5058,11.4382,11.3733,11.314,11.2554,11.2101,11.1526,11.1189,11.1036,11.0585,11.0179,10.9875,10.9466,10.8908,10.834,10.8431,10.7949,10.7057,10.7063,10.6902,10.6417,10.6353,10.631,10.6103,10.6127,10.6063,10.5913,10.3589,10.209,10.1715,10.1544,10.1161,10.0729,10.0684,10.0171,9.907,9.8823,9.8362,9.7622,9.6789,9.6044,9.5362,9.4755,9.3997,9.3012,9.2835,9.2555,9.194,9.1216,9.0559,8.9921,8.9384,8.8705,8.7997,8.7776,8.7305,8.6664,8.6343,8.6288,8.6185,8.6149,8.6082,8.5981,8.5968,8.5656,8.5685,8.5655,8.57,8.576,8.5342,8.4982,8.5035,8.4629,8.4909,8.641,8.8171,8.8841,8.8241,8.809,8.7679,8.6865,8.5957,8.5297,8.5209,8.476,8.4386,8.4297,8.4087,8.3951,8.3937,8.3848,8.3848,8.3787,8.3338,8.3053,8.2964,8.2441,8.208,8.2094,8.2094,8.2059,8.2191,8.2385,8.2285,12.3078,12.2864,12.2305,12.2572,12.2963,12.2099,12.1755,12.1622,12.0527,11.9972,11.9314,11.7119,11.5699,11.4903,11.4754,11.4701,11.4626,11.4552,11.4301,11.3988,11.3407,11.2542,11.1636,11.0814,11.0023,10.9452,10.942,10.9542,10.9373,10.9413,10.9239,10.8876,10.8496,10.7924,10.721,10.6672,10.6306,10.6306,10.5931,10.5105,10.3528,10.2118,10.1387,10.1467,10.1709,10.1406,10.0582,9.9966,9.929,9.847,9.7712,9.7168,9.7105,9.7016,9.6271,9.4679,9.4487,9.366,9.2167,9.1838,9.1803,9.1846,9.1603,9.1399,9.1208,9.1162,8.982,8.7531,8.6575,8.6636,8.6486,8.6438,8.6429,8.6448,8.6248,8.5924,8.5983,8.5909,8.5849,8.5924,8.6055,8.6035,8.6102,8.6055,8.6485,8.7496,8.9039,8.9893,8.9217,8.8917,8.8855,8.8438,8.7448,8.6459,8.6309,8.6323,8.5982,8.5995,8.5558,8.5231,8.4993,8.4631,8.4207,8.4877,8.4556,8.4256,8.4569,8.4446,8.3845,8.3832,8.3845,8.3898,8.4028,8.4167,8.4029,12.5297,12.527,12.4298,12.382,12.3787,12.3516,12.3609,12.3724,12.3323,12.2651,12.1765,12.0535,11.9314,11.8028,11.6938,11.6409,11.6335,11.5464,11.4895,11.4614,11.4243,11.3821,11.3335,11.2945,11.266,11.2489,11.251,11.2095,11.1407,11.0696,11.0237,11.0107,11.0096,10.999,10.9708,10.9384,10.9268,10.9193,10.8292,10.7466,10.664,10.5138,10.3867,10.3198,10.32,10.2675,10.1702,10.1258,10.1026,10.073,9.9531,9.8773,9.8773,9.785,9.7029,9.6334,9.6139,9.5577,9.4314,9.3785,9.3345,9.2881,9.2378,9.2099,9.194,9.186,9.1059,8.9799,8.8992,8.8541,8.809,8.7899,8.7904,8.7806,8.7677,8.7576,8.7473,8.7473,8.7503,8.753,8.7214,8.7014,8.7215,8.7632,8.8035,8.8616,8.9893,9.0808,9.0508,9.0043,8.9785,8.9704,8.8829,8.7961,8.7442,8.6814,8.6588,8.6513,8.6213,8.5988,8.6001,8.5837,8.5687,8.5988,8.5639,8.5564,8.5899,8.5918,8.5594,8.5607,8.5748,8.5812,8.5864,8.5977,8.5862,12.7213,12.7104,12.6269,12.5587,12.5102,12.5134,12.5249,12.5399,12.5261,12.4546,12.3701,12.3481,12.263,12.1056,11.9061,11.8064,11.7895,11.6793,11.6169,11.5926,11.5883,11.5576,11.5099,11.5047,11.4931,11.475,11.4644,11.4112,11.3181,11.2398,11.201,11.2048,11.2191,11.2144,11.1972,11.1746,11.1521,11.1221,11.0019,10.9493,10.9343,10.8292,10.669,10.4941,10.4763,10.4227,10.3021,10.2778,10.2639,10.2569,10.1205,10.0448,10.0372,9.9276,9.8443,9.7948,9.7439,9.6855,9.6285,9.5631,9.5053,9.4523,9.3756,9.3161,9.2949,9.2641,9.2353,9.1738,9.1245,9.0569,8.9818,8.9667,8.9625,8.9587,8.9483,8.9382,8.9279,8.9264,8.9159,8.9111,8.8644,8.819,8.8288,8.9142,9.0043,8.9968,9.1377,9.2443,9.2232,9.1809,9.1503,9.1525,9.086,8.9916,8.8829,8.8316,8.7762,8.7913,8.809,8.7878,8.755,8.74,8.7174,8.7391,8.7037,8.6798,8.6913,8.6992,8.6716,8.6818,8.6895,8.6996,8.6845,8.7133,8.7342,12.8824,12.8428,12.8604,12.8284,12.7824,12.7313,12.6743,12.6314,12.5708,12.5365,12.5291,12.5195,12.4696,12.3515,12.0973,11.9773,11.9678,11.9263,11.9006,11.8941,11.8862,11.827,11.7037,11.6963,11.6328,11.5477,11.5423,11.5126,11.487,11.4942,11.5235,11.5224,11.4684,11.4194,11.3606,11.2948,11.2122,11.1671,11.1371,11.1221,11.1146,11.1071,10.9343,10.6673,10.6354,10.6074,10.5127,10.4515,10.3988,10.3305,10.2502,10.1972,10.1987,10.1963,10.1143,9.9683,9.8162,9.7328,9.7172,9.7088,9.7003,9.6914,9.6063,9.555,9.5172,9.4519,9.376,9.2761,9.2822,9.2371,9.1695,9.1245,9.1169,9.1155,9.1115,9.0953,9.1013,9.0848,9.0698,9.0218,8.9944,8.9653,8.9156,9.1094,9.1738,9.1917,9.3506,9.4782,9.4194,9.4081,9.3999,9.3876,9.3286,9.2442,9.0995,8.9948,9.0413,9.0338,8.9619,9.0227,8.9876,8.9499,8.9184,8.8718,8.8227,8.7925,8.7964,8.7688,8.7235,8.7135,8.7159,8.7221,8.7182,8.7362,8.7642,13.0382,12.9781,12.9713,12.9341,12.8885,12.8821,12.8476,12.7857,12.7647,12.703,12.6294,12.6039,12.5485,12.4611,12.337,12.1933,12.0449,11.9995,11.9569,11.935,11.9503,11.9272,11.8762,11.8765,11.8649,11.8213,11.8139,11.7544,11.6525,11.5741,11.5364,11.5578,11.5564,11.5376,11.524,11.5051,11.4675,11.4375,11.3399,11.2798,11.2723,11.1822,11.062,10.9569,10.8493,10.739,10.6134,10.5896,10.5705,10.5558,10.438,10.3697,10.3636,10.2782,10.2019,10.1371,10.0337,9.9428,9.8857,9.8367,9.785,9.7319,9.6896,9.6595,9.638,9.6073,9.5627,9.5179,9.506,9.491,9.4324,9.2822,9.1484,9.147,9.1427,9.1459,9.1398,9.1398,9.1248,9.1037,9.1076,9.0859,9.0422,9.1244,9.2216,9.2682,9.3854,9.5075,9.5781,9.5597,9.544,9.5207,9.4719,9.4141,9.4372,9.1931,9.0706,9.048,9.0253,9.0555,9.0493,9.0897,9.0733,9.0533,8.9853,8.9413,8.9439,8.8583,8.8066,8.7963,8.7985,8.7729,8.7385,8.7851,8.8063,13.1704,13.1448,13.1017,13.0646,13.024,13.0129,12.9741,12.9176,12.9199,12.8467,12.7457,12.7178,12.6429,12.536,12.4899,12.3755,12.1836,12.14,12.1029,12.06,12.0842,12.0589,12.01,12.0229,12.0166,11.9943,11.9943,11.9253,11.8213,11.7243,11.6945,11.7222,11.7059,11.7025,11.6967,11.6778,11.6478,11.6027,11.5051,11.4525,11.4375,11.3474,11.2572,11.1972,11.0995,10.9545,10.7783,10.7472,10.7284,10.7066,10.6012,10.5301,10.4981,10.3828,10.2976,10.2639,10.1957,10.1274,10.0668,9.9834,9.9125,9.8464,9.7812,9.7356,9.7214,9.6829,9.6531,9.6441,9.6411,9.6411,9.6036,9.4399,9.2972,9.2747,9.2461,9.231,9.231,9.231,9.225,9.2006,9.1776,9.1408,9.1251,9.2086,9.3183,9.4191,9.5276,9.6663,9.7734,9.779,9.7303,9.7172,9.6593,9.6166,9.5902,9.4207,9.3473,9.3158,9.2148,9.2047,9.1656,9.2122,9.2122,9.206,9.1682,9.1241,9.0537,8.9616,8.9185,8.9014,8.9009,8.8828,8.868,8.8618,8.876,13.2739,13.3428,13.2864,13.2273,13.1865,13.1267,13.0611,13.0048,12.9996,12.9474,12.8677,12.8729,12.7568,12.6063,12.5801,12.507,12.4192,12.3919,12.3607,12.3208,12.3119,12.2422,12.1386,12.1408,12.0984,12.0315,12.0018,11.9943,11.9795,11.954,11.9695,12.0075,11.9428,11.897,11.8655,11.8055,11.7229,11.6628,11.6327,11.6177,11.6177,11.5877,11.5069,11.3942,11.3567,11.2457,11.0204,10.9379,10.8791,10.8198,10.7539,10.6798,10.6068,10.5176,10.4315,10.3686,10.2866,10.2336,10.217,10.1488,10.0812,10.0369,9.9169,9.8346,9.8214,9.7373,9.6802,9.6877,9.6712,9.6561,9.6637,9.6261,9.575,9.5225,9.4413,9.4038,9.4038,9.3963,9.3721,9.3008,9.2401,9.1853,9.2175,9.3086,9.4473,9.6237,9.7728,9.9145,10.0067,10.0378,10.0489,9.9745,9.8657,9.7899,9.7319,9.6637,9.6713,9.6486,9.5234,9.445,9.3327,9.3264,9.2607,9.2393,9.1723,9.1217,9.0799,8.9949,8.9541,8.9418,8.9627,8.9466,8.9087,8.8869,8.9454,13.3364,13.4135,13.3601,13.3063,13.2663,13.2557,13.1857,13.0662,13.0588,13.0142,12.945,12.9215,12.8756,12.8074,12.7391,12.6924,12.6698,12.6204,12.5259,12.4358,12.4247,12.4017,12.3637,12.3585,12.3213,12.2396,12.1801,12.1281,12.0782,12.0389,12.0245,12.0414,12.0444,12.034,12.0383,12.0157,11.9632,11.8806,11.8205,11.7679,11.7003,11.6478,11.6024,11.568,11.5623,11.4772,11.3027,11.1545,11.0465,10.9798,10.9141,10.8236,10.7143,10.6613,10.6158,10.5368,10.4534,10.3658,10.2952,10.2256,10.1731,10.142,10.082,10.0564,10.0353,9.9448,9.8905,9.8829,9.8439,9.8138,9.8079,9.7628,9.7027,9.6111,9.5826,9.56,9.5465,9.5238,9.4649,9.3968,9.3759,9.3504,9.3118,9.37,9.4826,9.6718,9.7756,9.8843,10.1054,10.1536,10.1578,10.082,9.9986,9.8862,9.7979,9.7045,9.6704,9.6312,9.5528,9.4845,9.4111,9.3453,9.2958,9.2311,9.1727,9.1231,9.0733,9.0388,8.9889,8.9401,8.9152,8.8913,8.8759,8.9113,8.9704,13.4482,13.4889,13.426,13.3974,13.3802,13.37,13.2904,13.1861,13.1716,13.1001,13.0138,12.9704,12.9437,12.9019,12.8432,12.8234,12.8303,12.7809,12.7115,12.612,12.5405,12.5123,12.4848,12.4774,12.4551,12.4031,12.351,12.3034,12.2599,12.2206,12.2063,12.203,12.1815,12.1673,12.1659,12.1303,12.0852,12.0308,11.9876,11.9181,11.8449,11.7903,11.7485,11.7066,11.6986,11.6446,11.5315,11.41,11.28,11.1421,11.052,10.9508,10.8385,10.793,10.7415,10.6642,10.5992,10.5238,10.4317,10.3412,10.2704,10.2252,10.1845,10.1586,10.1389,10.0829,10.0632,10.0482,10.009,9.979,9.9731,9.943,9.8829,9.8379,9.7087,9.6517,9.6426,9.6139,9.5818,9.5329,9.5193,9.4848,9.4549,9.416,9.4983,9.6802,9.7319,9.785,10.0213,10.082,10.0516,10.0089,9.9067,9.8322,9.8183,9.7426,9.6603,9.5755,9.4818,9.4223,9.3563,9.3131,9.2623,9.195,9.1289,9.0879,9.0468,9.0197,8.9849,8.9294,8.9314,8.9485,8.9817,8.9697,9.012,13.5653,13.572,13.4889,13.483,13.5037,13.442,13.3751,13.3252,13.2986,13.2074,13.0817,13.05,12.9861,12.9246,12.9024,12.8974,12.895,12.8777,12.8773,12.832,12.7267,12.6044,12.5495,12.5294,12.5071,12.4848,12.4796,12.4831,12.4632,12.4664,12.4908,12.4286,12.3692,12.3117,12.2692,12.1829,12.1603,12.1303,12.1228,12.0777,11.997,12.0043,11.9511,11.804,11.8123,11.7825,11.7069,11.6556,11.527,11.2654,11.1568,11.072,10.9962,10.9143,10.837,10.7568,10.7237,10.6632,10.5816,10.4939,10.4047,10.3229,10.258,10.1706,10.179,10.1608,10.1458,10.1458,10.1308,10.1233,10.1217,10.1142,10.1082,10.0932,9.8814,9.7388,9.7011,9.7055,9.7186,9.7096,9.6601,9.6188,9.6383,9.5816,9.6347,9.7408,9.8001,9.8697,9.9531,10.0213,9.8773,9.8371,9.8526,9.7895,9.768,9.6514,9.5762,9.5229,9.4304,9.3642,9.3033,9.2588,9.2166,9.1492,9.1373,9.0797,9.0612,9.0678,9.0829,9.0923,9.0929,9.0933,9.1021,9.1039,9.1141,13.5768,13.5918,13.5614,13.5214,13.4779,13.4736,13.4345,13.368,13.3531,13.2915,13.2052,13.188,13.1263,13.0401,12.9984,12.9689,12.9492,12.9099,12.9045,12.9185,12.8811,12.8084,12.7404,12.6854,12.626,12.5911,12.5969,12.5653,12.5144,12.5589,12.5647,12.547,12.5331,12.4905,12.4288,12.3987,12.3236,12.226,12.211,12.1735,12.1114,12.1019,12.0749,12.0125,12.0025,11.9371,11.8233,11.7508,11.6296,11.425,11.269,11.1826,11.1339,11.0567,10.9764,10.8899,10.8157,10.7459,10.661,10.617,10.5531,10.4634,10.4183,10.391,10.3185,10.2584,10.2359,10.2209,10.1833,10.1517,10.1442,10.1458,10.1458,10.1292,10.0466,9.9718,9.9434,9.9479,9.9474,9.907,9.8802,9.8719,9.8594,9.847,9.8697,9.991,10.0062,9.9986,10.0289,10.0544,9.9571,9.9196,9.9047,9.7972,9.6982,9.5734,9.4902,9.4468,9.3804,9.3152,9.2465,9.1778,9.1354,9.0775,9.169,9.1656,9.1872,9.2087,9.2321,9.2275,9.2401,9.2363,9.2727,9.2905,9.2849,13.6301,13.6064,13.5954,13.5561,13.5136,13.5244,13.4904,13.4316,13.4092,13.3599,13.2983,13.2734,13.2363,13.1848,13.1237,13.0868,13.0669,13.0057,12.991,13.0079,13.0021,12.9517,12.8964,12.8415,12.8014,12.7755,12.7791,12.7519,12.7137,12.724,12.7009,12.6531,12.6556,12.6165,12.5414,12.5339,12.4814,12.3706,12.3464,12.3127,12.2034,12.2124,12.185,12.1455,12.1245,12.0674,11.948,11.8253,11.6864,11.5323,11.3976,11.2989,11.2375,11.1679,11.0951,11.0327,10.9491,10.8657,10.7747,10.7289,10.6605,10.5847,10.5588,10.5363,10.4912,10.4387,10.4086,10.3636,10.3185,10.281,10.2493,10.2434,10.2418,10.2493,10.2418,10.2004,10.1182,10.1061,10.0996,10.079,10.0537,10.0365,10.0289,9.9834,9.991,10.0137,9.9455,9.9683,10.0137,10.0406,10.0321,9.949,9.9087,9.8122,9.7434,9.6474,9.5933,9.5345,9.4408,9.3535,9.3087,9.2312,9.2049,9.2091,9.2414,9.2715,9.2975,9.3158,9.3034,9.314,9.3419,9.3668,9.3873,9.4219,9.4235,13.7048,13.6246,13.6127,13.5945,13.5788,13.572,13.5383,13.5074,13.4746,13.4227,13.3512,13.3156,13.3088,13.317,13.2338,13.2165,13.204,13.1378,13.1384,13.1436,13.1281,13.0844,13.0324,12.965,12.954,12.9623,12.9966,12.973,12.9335,12.9461,12.8836,12.7983,12.7667,12.7066,12.6391,12.624,12.579,12.5136,12.4876,12.4331,12.3387,12.3267,12.288,12.2211,12.1798,12.1351,12.0282,11.904,11.7656,11.6053,11.5162,11.4324,11.3345,11.2482,11.1996,11.1645,11.0775,10.9956,10.9262,10.8468,10.7558,10.6865,10.6565,10.6339,10.6114,10.5889,10.5663,10.5138,10.5213,10.4687,10.4237,10.407,10.407,10.4086,10.407,10.348,10.2659,10.2237,10.222,10.2341,10.1701,10.1426,10.0895,10.0062,9.9228,10.0744,9.9986,9.9834,9.9951,9.9777,9.9401,9.8567,9.835,9.8216,9.7741,9.7353,9.7093,9.6756,9.5664,9.4866,9.4877,9.4363,9.4011,9.391,9.3915,9.3878,9.3974,9.4004,9.4072,9.4138,9.4606,9.4466,9.4339,9.4825,9.5076,13.747,13.718,13.6171,13.5824,13.5909,13.5351,13.5147,13.5341,13.5214,13.4673,13.4112,13.407,13.375,13.3057,13.3092,13.2971,13.2716,13.2521,13.2702,13.3136,13.291,13.2753,13.208,13.0954,13.0122,13.0182,13.0414,13.0554,13.0531,13.0506,13.0234,12.9374,12.8944,12.8493,12.7292,12.7066,12.6714,12.6098,12.5554,12.529,12.4945,12.4266,12.3658,12.2991,12.2223,12.138,12.0683,12.0137,11.9103,11.7635,11.6631,11.586,11.4743,11.3955,11.3226,11.2446,11.1625,11.0989,11.0672,10.9903,10.9118,10.8367,10.7691,10.7015,10.6339,10.6414,10.6339,10.6039,10.6039,10.5889,10.5588,10.5739,10.5588,10.5513,10.5588,10.5579,10.5337,10.4499,10.3701,10.3334,10.3175,10.2866,10.226,10.1957,10.1426,10.135,10.0895,10.0365,9.9977,9.9678,9.9492,9.9201,9.9046,9.9214,9.8815,9.8414,9.7936,9.7697,9.6855,9.6535,9.6546,9.5964,9.5468,9.5278,9.5165,9.5204,9.5185,9.5981,9.6218,9.6041,9.5863,9.5949,9.6032,9.6128,9.6227,13.7844,13.7557,13.6975,13.6488,13.611,13.5809,13.5606,13.5421,13.5374,13.5154,13.4814,13.4873,13.4626,13.4053,13.3818,13.3597,13.3498,13.3313,13.3398,13.3703,13.3701,13.3938,13.3977,13.3021,13.221,13.1583,13.1741,13.173,13.1557,13.151,13.1197,13.0371,12.9995,12.9395,12.8493,12.8138,12.7561,12.704,12.6551,12.6345,12.6039,12.5266,12.4326,12.3608,12.2688,12.1861,12.1451,12.0999,12.0116,11.9026,11.8367,11.7407,11.5981,11.5286,11.4614,11.3717,11.2873,11.2197,11.1822,11.1146,11.0395,10.9944,10.9193,10.8592,10.7991,10.7749,10.7241,10.7015,10.6865,10.679,10.6339,10.6264,10.6339,10.6264,10.6339,10.6389,10.6337,10.5869,10.5407,10.5195,10.5281,10.5188,10.4761,10.37,10.3321,10.3094,10.1957,10.144,10.1513,10.1303,10.1357,10.109,10.068,10.0407,10.0007,9.9465,9.8615,9.832,9.788,9.8096,9.8455,9.7651,9.6779,9.6722,9.6664,9.6462,9.6603,9.7473,9.8005,9.7791,9.7688,9.7779,9.779,9.7789,9.7968,13.807,13.7686,13.7937,13.738,13.6493,13.6551,13.6348,13.5888,13.5594,13.5668,13.5521,13.5521,13.5254,13.5154,13.464,13.4273,13.4259,13.4282,13.4316,13.4343,13.4616,13.4803,13.4913,13.4747,13.4256,13.3276,13.3314,13.3057,13.2657,13.2398,13.2023,13.1272,13.0596,13.0221,12.9845,12.923,12.8673,12.819,12.7908,12.7476,12.6947,12.6174,12.5347,12.4142,12.3277,12.26,12.2205,12.1641,12.0927,12.0157,11.997,11.8768,11.7342,11.6366,11.5972,11.5147,11.4228,11.3553,11.2877,11.2087,11.1446,11.1446,11.0695,11.0227,10.9927,10.9493,10.8968,10.8517,10.8217,10.7841,10.7015,10.694,10.694,10.694,10.6865,10.6715,10.6915,10.701,10.7006,10.6496,10.6102,10.5811,10.5642,10.4989,10.4913,10.4624,10.3487,10.2694,10.2845,10.2826,10.2715,10.2537,10.2115,10.1788,10.1465,10.0899,10.0048,9.9566,9.9125,9.9273,9.9728,9.8721,9.7914,9.8221,9.8182,9.8035,9.8039,9.8503,9.894,9.9197,9.9048,9.8687,9.8917,9.9362,9.9474,13.8238,13.8154,13.7831,13.7646,13.7643,13.7298,13.721,13.7283,13.6568,13.6402,13.6301,13.5714,13.5467,13.5421,13.5301,13.5227,13.5261,13.5388,13.5597,13.5551,13.5629,13.5719,13.5876,13.5711,13.5317,13.509,13.476,13.4159,13.3504,13.3225,13.2849,13.2173,13.1798,13.1422,13.0807,13.0157,12.9808,12.9531,12.9173,12.857,12.8059,12.7344,12.6363,12.4986,12.399,12.3294,12.2655,12.2335,12.181,12.0984,12.0156,11.948,11.8711,11.7643,11.6688,11.5788,11.5132,11.4551,11.4119,11.3084,11.248,11.2122,11.1521,11.1146,11.0995,11.092,11.047,11.032,10.9869,10.9476,10.9401,10.8742,10.8818,10.8951,10.8818,10.8592,10.9002,10.8836,10.8086,10.7204,10.6678,10.6358,10.6447,10.6277,10.5898,10.5671,10.4989,10.4405,10.4329,10.4146,10.3883,10.363,10.3308,10.3123,10.2934,10.2356,10.1657,10.1349,10.0917,10.0286,10.0288,9.9393,9.9045,9.9988,10.016,9.9974,9.9977,9.9986,9.9983,10.0194,9.9893,9.951,9.9884,10.0256,10.0186,13.8715,13.8311,13.825,13.8052,13.7791,13.7716,13.7477,13.7253,13.6887,13.6667,13.6594,13.6302,13.6155,13.6183,13.6321,13.6239,13.6216,13.6362,13.6428,13.6265,13.6173,13.6537,13.6864,13.6601,13.6498,13.6367,13.6111,13.5348,13.4276,13.4201,13.3675,13.2999,13.2549,13.2085,13.1736,13.1159,13.0793,13.0513,12.9984,12.9569,12.9192,12.8548,12.7316,12.6205,12.4964,12.4138,12.3743,12.3045,12.2481,12.1692,12.1086,12.0539,11.9846,11.8948,11.7715,11.6743,11.6107,11.5788,11.5412,11.4414,11.3831,11.3681,11.2723,11.1972,11.1822,11.1596,11.1371,11.1221,11.1071,11.0695,11.062,11.0244,11.0395,11.047,11.0244,11.0244,11.0487,11.033,10.9462,10.8392,10.8355,10.8221,10.7916,10.7566,10.7036,10.6581,10.6353,10.6103,10.5966,10.5605,10.5254,10.5002,10.4756,10.4406,10.4304,10.3924,10.3443,10.3123,10.2776,10.2154,10.1914,10.1547,10.187,10.255,10.249,10.1873,10.1641,10.15,10.134,10.1254,10.1165,10.1159,10.1078,10.1071,10.1216,13.9005,13.8311,13.8613,13.8472,13.795,13.8141,13.7922,13.7382,13.7192,13.7119,13.7018,13.6828,13.6755,13.6885,13.7067,13.7054,13.687,13.7165,13.7062,13.6978,13.711,13.7481,13.7806,13.7911,13.7771,13.7419,13.7355,13.6604,13.5327,13.5027,13.4501,13.3976,13.3149,13.2973,13.2986,13.2709,13.189,13.14,13.089,13.0698,13.0073,12.9068,12.8043,12.7272,12.5825,12.496,12.4565,12.3862,12.3088,12.2355,12.1765,12.1324,12.0652,11.9906,11.8885,11.7809,11.7267,11.6875,11.6368,11.5633,11.5126,11.5051,11.3831,11.3231,11.2873,11.2497,11.1897,11.1746,11.1596,11.1521,11.1521,11.1371,11.1371,11.1446,11.1371,11.1296,11.1371,11.129,11.1218,11.059,11.0423,11.0006,10.9553,10.8855,10.8248,10.8173,10.7945,10.7967,10.7728,10.7278,10.688,10.6515,10.6141,10.5777,10.5675,10.558,10.5251,10.5127,10.4692,10.4234,10.4225,10.43,10.4633,10.4816,10.4087,10.3563,10.325,10.3081,10.2917,10.2828,10.2808,10.2791,10.2785,10.2847,10.2989,13.9005,13.8383,13.8613,13.8763,13.8647,13.8913,13.9059,13.8812,13.8155,13.7922,13.7762,13.7135,13.6887,13.7046,13.723,13.7493,13.765,13.7921,13.8041,13.7986,13.8269,13.8497,13.8795,13.8813,13.8587,13.8266,13.8256,13.7355,13.6325,13.5949,13.5402,13.4802,13.4919,13.5303,13.4647,13.4431,13.453,13.3684,13.2871,13.1714,13.0082,12.8533,12.7742,12.7232,12.6381,12.5436,12.4891,12.426,12.3613,12.292,12.1989,12.1491,12.1193,12.0522,11.9825,11.8885,11.792,11.7081,11.695,11.6461,11.6084,11.5916,11.509,11.4807,11.4303,11.3853,11.3327,11.3399,11.293,11.2555,11.2405,11.1822,11.1822,11.1897,11.1972,11.2047,11.2122,11.2139,11.207,11.1955,11.1567,11.1321,11.0886,11.025,10.9613,10.9613,10.9567,10.959,10.9215,10.8488,10.7973,10.7457,10.759,10.7315,10.7112,10.7017,10.6961,10.6892,10.6523,10.616,10.5996,10.6071,10.6712,10.6568,10.5854,10.5309,10.5217,10.4969,10.4569,10.4231,10.3975,10.4189,10.4562,10.4621,10.4444,13.9729,13.8932,13.865,13.8493,13.8565,13.8643,13.8776,13.8703,13.8412,13.8194,13.8122,13.7801,13.7745,13.7908,13.8271,13.8338,13.8282,13.8512,13.8597,13.8673,13.8858,13.9141,13.9448,13.9285,13.8991,13.9123,13.8728,13.8364,13.7462,13.6893,13.6228,13.5595,13.5529,13.564,13.5768,13.5686,13.5386,13.4592,13.3586,13.2253,13.1053,12.9695,12.8658,12.8481,12.7159,12.6308,12.564,12.4481,12.3982,12.3343,12.2504,12.1994,12.1897,12.1479,12.0876,12.0638,11.981,11.8917,11.8075,11.7324,11.6911,11.6556,11.5994,11.5413,11.5283,11.5021,11.4777,11.4944,11.4644,11.4249,11.3964,11.3624,11.3323,11.3098,11.2873,11.2873,11.3023,11.2891,11.2903,11.2792,11.2767,11.2451,11.2187,11.1765,11.1129,11.0917,11.0688,11.0408,10.9755,10.8802,10.8436,10.8093,10.8444,10.8853,10.8638,10.852,10.8475,10.8329,10.8257,10.7817,10.7364,10.7525,10.8173,10.8191,10.7484,10.7176,10.7175,10.6522,10.5775,10.5378,10.5133,10.5416,10.5698,10.5149,10.5208,14.0526,13.9729,13.8715,13.8353,13.8353,13.8353,13.828,13.828,13.8311,13.828,13.8353,13.8311,13.8523,13.8852,13.9103,13.9057,13.8958,13.9154,13.9226,13.9232,13.9298,13.9759,14.0173,13.9957,13.9814,13.9983,13.9341,13.8976,13.8814,13.8383,13.7664,13.6548,13.6556,13.6331,13.6496,13.6483,13.6163,13.4933,13.3372,13.2358,13.1593,13.0446,12.9723,12.9074,12.8105,12.7007,12.6423,12.5367,12.4493,12.3557,12.3184,12.2716,12.2408,12.2192,12.1752,12.144,12.0813,12.0318,11.9272,11.843,11.7812,11.7211,11.6611,11.5975,11.5561,11.5559,11.5597,11.5638,11.5564,11.5451,11.5356,11.511,11.4846,11.4414,11.415,11.4074,11.3999,11.3717,11.3562,11.3452,11.3413,11.3503,11.3319,11.3158,11.2705,11.2281,11.1871,11.1363,11.0661,10.981,10.9927,10.9939,10.9947,11.0433,11.0395,11.0188,11.0056,10.993,10.9781,10.9649,10.9359,10.9296,10.9703,10.9479,10.9174,10.9082,10.9058,10.7939,10.6903,10.721,10.7352,10.6851,10.6599,10.6126,10.6347,14.1323,14.0495,13.9005,13.8353,13.8353,13.8353,13.8353,13.8353,13.8353,13.8353,13.8353,13.8311,13.8613,13.9102,13.9278,13.9524,14.0017,14.0073,14.0237,14.056,14.0872,14.0873,14.1118,14.1102,14.0937,14.0787,14.0157,13.991,13.9919,13.9894,13.9051,13.7981,13.7955,13.7644,13.7557,13.7524,13.6483,13.5023,13.3307,13.218,13.1422,13.048,12.9777,12.9291,12.8407,12.7372,12.6411,12.582,12.5137,12.3947,12.3566,12.3237,12.2812,12.2672,12.2308,12.1839,12.1698,12.1127,12.025,11.9338,11.87,11.7989,11.7222,11.6436,11.5984,11.5744,11.5653,11.5877,11.6101,11.5918,11.5882,11.5826,11.5787,11.5467,11.5072,11.4976,11.4675,11.43,11.4163,11.4037,11.4208,11.4452,11.4389,11.4247,11.3767,11.3267,11.2795,11.2347,11.242,11.186,11.2296,11.2322,11.2076,11.2155,11.213,11.1923,11.1637,11.1599,11.1537,11.1578,11.1527,11.1541,11.1448,11.1447,11.1358,11.119,11.0871,11.0168,10.9694,10.9747,10.941,10.8609,10.8444,10.8439,10.8726,14.1757,14.1323,14.0236,13.9222,13.8353,13.8353,13.8353,13.8353,13.8353,13.8353,13.8353,13.8353,13.8595,13.8984,13.9249,13.9539,13.9894,14.0285,14.064,14.0962,14.1204,14.1593,14.1763,14.1798,14.1437,14.1516,14.1124,14.0585,14.0333,14.0889,14.0639,13.9999,13.9597,13.941,13.9112,13.8316,13.6989,13.5698,13.4019,13.2774,13.2357,13.1031,12.9986,12.9229,12.8865,12.7879,12.7011,12.6305,12.5665,12.5019,12.4192,12.3641,12.3142,12.2982,12.2556,12.2195,12.2129,12.1736,12.0895,11.9954,11.888,11.7974,11.7426,11.6973,11.6566,11.6675,11.6756,11.689,11.6801,11.6676,11.6477,11.6537,11.6519,11.6144,11.5936,11.5784,11.5501,11.5126,11.4994,11.5003,11.5363,11.5701,11.5566,11.5351,11.4765,11.4192,11.3736,11.3437,11.3418,11.3441,11.3698,11.375,11.3351,11.3253,11.3239,11.3187,11.3065,11.3027,11.3062,11.3092,11.3041,11.3509,11.3416,11.3485,11.3412,11.3181,11.2876,11.2644,11.2077,11.1094,11.0451,10.9894,11.0048,11.043,11.055,14.212,14.183,14.1323,14.0309,13.9077,13.9005,13.9005,13.9005,13.9077,13.9005,13.9005,13.9097,13.9194,13.9348,13.9672,13.9772,14.0024,14.034,14.0694,14.1041,14.1433,14.2115,14.2507,14.2691,14.2722,14.2807,14.2415,14.1896,14.1445,14.1883,14.1934,14.1598,14.1012,14.0953,13.9967,13.871,13.7191,13.6261,13.4676,13.3525,13.3183,13.2264,13.1003,13.0019,12.9502,12.8663,12.7688,12.6929,12.626,12.5688,12.5063,12.4236,12.3705,12.3323,12.2897,12.2632,12.244,12.2174,12.1335,12.0228,11.9052,11.8218,11.7966,11.7639,11.7449,11.7375,11.7297,11.7433,11.7494,11.7426,11.7029,11.7206,11.7304,11.71,11.6686,11.6553,11.6403,11.6102,11.5952,11.5931,11.6255,11.6456,11.6364,11.6167,11.5588,11.4998,11.4556,11.4346,11.4415,11.4487,11.4413,11.4465,11.4283,11.4198,11.4184,11.3901,11.3625,11.3695,11.3806,11.4047,11.4141,11.461,11.4689,11.4293,11.4297,11.4786,11.4549,11.3914,11.2861,11.1722,11.1336,11.1183,11.1247,11.1544,11.142,14.2627,14.1902,14.1902,14.1395,14.0671,14.064,14.0495,14.0381,14.0423,14.0454,14.0412,14.0761,14.07,14.0518,14.0708,14.0761,14.0586,14.0698,14.0949,14.1342,14.1687,14.2586,14.3349,14.3832,14.3932,14.4629,14.4266,14.3648,14.3159,14.3451,14.3439,14.325,14.2852,14.215,14.0843,13.8146,13.6759,13.6301,13.4634,13.3942,13.3645,13.325,13.2339,13.1575,13.0607,12.9689,12.8535,12.7575,12.6906,12.6186,12.5925,12.5203,12.4245,12.3854,12.3333,12.2736,12.2417,12.2247,12.2098,12.0708,11.9688,11.887,11.8606,11.8362,11.7672,11.7449,11.747,11.7553,11.7437,11.752,11.765,11.785,11.7878,11.7847,11.7437,11.736,11.721,11.7153,11.7003,11.7058,11.6875,11.6833,11.6969,11.6848,11.6425,11.5924,11.5434,11.5393,11.5552,11.5763,11.5842,11.5741,11.5648,11.5485,11.5382,11.4604,11.4263,11.4342,11.4626,11.5022,11.5106,11.5273,11.5188,11.4945,11.5275,11.5762,11.5432,11.5022,11.4065,11.3268,11.295,11.2788,11.2766,11.2809,11.2841,14.2916,14.2699,14.2699,14.2554,14.212,14.1178,14.0743,14.0671,14.0671,14.0743,14.0733,14.1082,14.127,14.1379,14.1658,14.184,14.1967,14.1633,14.1827,14.207,14.2212,14.2834,14.3744,14.4375,14.4872,14.5554,14.5612,14.5392,14.4844,14.499,14.469,14.4483,14.3801,14.2588,14.1183,13.947,13.8776,13.7412,13.603,13.5114,13.4792,13.4126,13.3434,13.2911,13.1864,13.0714,12.9381,12.8541,12.7649,12.6832,12.6669,12.6029,12.5368,12.5032,12.3873,12.3436,12.3191,12.23,12.2225,12.1578,12.0909,11.9996,11.9402,11.9105,11.8341,11.8192,11.7969,11.7598,11.7598,11.7681,11.752,11.7704,11.783,11.8047,11.7941,11.8131,11.8131,11.8111,11.8073,11.8165,11.8231,11.8051,11.8042,11.7854,11.7442,11.7353,11.7076,11.696,11.7094,11.7409,11.7604,11.7502,11.7332,11.708,11.6658,11.6122,11.5846,11.5992,11.6122,11.6373,11.6311,11.6314,11.6486,11.663,11.6647,11.6652,11.6653,11.6487,11.5696,11.4978,11.4729,11.4314,11.4207,11.4395,11.465,14.3061,14.3061,14.3061,14.3061,14.2916,14.1975,14.154,14.154,14.154,14.1602,14.1757,14.2064,14.2178,14.2359,14.2694,14.2715,14.3071,14.2935,14.2826,14.3093,14.2934,14.3775,14.4489,14.4941,14.5774,14.6537,14.6947,14.6803,14.6177,14.6394,14.5771,14.4862,14.4483,14.3573,14.2148,14.0851,13.9983,13.875,13.7685,13.5971,13.553,13.4838,13.4218,13.3595,13.2791,13.1884,13.0621,12.9507,12.8467,12.7724,12.7204,12.6906,12.6609,12.6238,12.4974,12.4603,12.3252,12.2317,12.2059,12.1963,12.1296,12.0811,12.0474,11.9922,11.9253,11.9105,11.8807,11.851,11.8213,11.8044,11.7937,11.8049,11.8178,11.8378,11.8369,11.858,11.875,11.8655,11.8729,11.8971,11.9095,11.9084,11.9158,11.8849,11.8568,11.8646,11.8734,11.8695,11.8573,11.8659,11.8804,11.869,11.852,11.8191,11.8,11.7804,11.7605,11.7653,11.7686,11.7725,11.804,11.8121,11.8224,11.8244,11.8315,11.8319,11.8346,11.8035,11.7318,11.683,11.6582,11.6159,11.5728,11.5664,11.5754,14.3061,14.3061,14.3061,14.3061,14.3061,14.2916,14.2989,14.2989,14.302,14.3177,14.3488,14.3751,14.3614,14.3486,14.3959,14.3946,14.3522,14.3788,14.3952,14.4016,14.3902,14.4917,14.5625,14.6141,14.6674,14.7508,14.797,14.7911,14.7419,14.7288,14.6454,14.5468,14.5317,14.4559,14.3284,14.2025,14.1273,14.0429,13.9178,13.7494,13.6587,13.5616,13.5068,13.4368,13.3637,13.3023,13.1884,13.0844,12.9507,12.8764,12.8392,12.7947,12.7798,12.8021,12.6758,12.5034,12.3001,12.2377,12.1724,12.1701,12.1769,12.143,12.1331,12.0696,12.024,11.9848,11.9699,11.9551,11.9328,11.903,11.8829,11.8793,11.8808,11.8806,11.8704,11.8842,11.905,11.9087,11.9236,11.9363,11.9578,11.9799,12.0084,11.996,11.9982,12.0289,12.0379,12.0278,12.0003,11.9248,11.938,11.9316,11.9223,11.9137,11.8957,11.8938,11.8758,11.8573,11.8894,11.8999,11.9383,11.9472,11.9273,11.9292,11.9742,11.983,11.9467,11.9251,11.9093,11.868,11.8253,11.742,11.6824,11.6296,11.6235,14.3061,14.3061,14.3061,14.3061,14.3061,14.3061,14.3061,14.3165,14.3353,14.354,14.3664,14.4138,14.4217,14.4218,14.4824,14.5015,14.4977,14.4904,14.5103,14.5191,14.5193,14.5431,14.6032,14.6947,14.7475,14.8133,14.8701,14.8998,14.8839,14.85,14.7667,14.6757,14.5923,14.5392,14.4555,14.3391,14.2811,14.1979,14.0651,13.9167,13.7741,13.6692,13.6118,13.5442,13.4556,13.3965,13.3296,13.2107,13.077,12.9655,12.9358,12.9061,12.9135,12.8381,12.7056,12.4626,12.3573,12.2986,12.1883,12.1565,12.161,12.1701,12.163,12.1405,12.0972,12.0665,12.0516,12.0389,12.024,11.9922,11.972,11.9644,11.9628,11.9553,11.9527,11.9722,11.9913,12.0045,12.0119,12.0282,12.0496,12.0791,12.1135,12.139,12.1413,12.1857,12.2039,12.1786,12.1511,12.0756,12.0504,12.0517,12.0424,12.0503,12.0037,11.9872,11.9603,11.9405,11.9879,12.0042,11.9987,12.0083,12.0028,12.02,12.0599,12.0515,12.0206,12.0059,12.0066,12.0097,11.9743,11.8754,11.7919,11.7552,11.7351,14.3061,14.3061,14.3061,14.3061,14.3061,14.3061,14.3197,14.3353,14.3467,14.3664,14.3878,14.4288,14.4672,14.4918,14.5373,14.5734,14.5933,14.6435,14.6725,14.6807,14.6733,14.7469,14.7921,14.8233,14.8813,14.9297,14.9562,14.9838,14.9617,14.9203,14.8445,14.7351,14.6381,14.6002,14.5432,14.4631,14.3971,14.3195,14.2103,14.0765,13.926,13.7693,13.6943,13.6091,13.5178,13.4931,13.4485,13.3148,13.1959,13.0621,13.0324,12.9832,12.974,12.8889,12.8036,12.5875,12.4327,12.3495,12.2443,12.1536,12.1482,12.1473,12.1679,12.1681,12.168,12.1492,12.1312,12.1132,12.0984,12.0761,12.0559,12.0421,12.0448,12.0489,12.0574,12.0732,12.0887,12.1115,12.1246,12.1409,12.1694,12.1987,12.2295,12.2534,12.2632,12.2649,12.2753,12.2775,12.2728,12.2418,12.2256,12.2281,12.22,12.2124,12.1579,12.116,12.1187,12.1134,12.1068,12.1171,12.0892,12.0917,12.1239,12.1354,12.1383,12.1372,12.1351,12.1117,12.1032,12.1062,12.094,12.0037,11.9431,11.9284,11.909,14.3061,14.3061,14.3061,14.3061,14.3061,14.3061,14.325,14.3633,14.3664,14.3848,14.4108,14.4437,14.4905,14.5305,14.5697,14.5999,14.6572,14.7291,14.7898,14.8498,14.8797,14.9281,14.973,15.0522,15.027,15.0559,15.0651,15.0354,14.9865,14.9547,14.8964,14.7906,14.8093,14.7618,14.6291,14.5814,14.5061,14.4176,14.3071,14.1746,13.9814,13.8244,13.6888,13.5594,13.5401,13.5475,13.4806,13.3989,13.3073,13.1959,13.1146,13.0458,13.0003,12.9736,12.8951,12.7747,12.5759,12.4264,12.3137,12.2158,12.1494,12.1365,12.1427,12.1605,12.1755,12.1968,12.1854,12.178,12.1631,12.1482,12.1302,12.1356,12.1363,12.146,12.1566,12.1764,12.1958,12.2149,12.2391,12.2552,12.2816,12.3089,12.3288,12.3525,12.376,12.3502,12.3648,12.3882,12.3959,12.3967,12.3855,12.3816,12.3438,12.3283,12.3319,12.3064,12.3159,12.3019,12.2662,12.2378,12.2184,12.2285,12.2528,12.2344,12.215,12.2674,12.2734,12.2334,12.2075,12.2182,12.1908,12.1245,12.0872,12.0802,12.0442,14.3061,14.3061,14.3061,14.3061,14.3061,14.3061,14.3322,14.3633,14.3909,14.4138,14.4437,14.476,14.5106,14.5576,14.5808,14.6108,14.6678,14.7919,14.8449,14.9148,14.9888,15.0638,15.0778,15.1466,15.1294,15.1029,15.085,15.0608,15.0118,14.9895,14.9918,14.9465,14.9293,14.8402,14.7565,14.7069,14.5807,14.4855,14.3877,14.2692,14.0942,13.9486,13.8226,13.7175,13.6907,13.6338,13.5892,13.5621,13.4384,13.3148,13.2563,13.1731,13.0845,13.0548,12.9636,12.8332,12.7278,12.5685,12.4191,12.3041,12.2282,12.1494,12.1435,12.1593,12.1769,12.2103,12.23,12.23,12.2225,12.2077,12.2067,12.2164,12.2278,12.2356,12.2449,12.2667,12.2861,12.3126,12.346,12.3711,12.3955,12.4159,12.4281,12.4518,12.4751,12.4965,12.5292,12.5476,12.5613,12.5607,12.516,12.4979,12.4302,12.421,12.4465,12.4507,12.4379,12.4334,12.4062,12.3775,12.3552,12.3381,12.3262,12.2965,12.2901,12.3506,12.372,12.3316,12.3127,12.3228,12.303,12.2443,12.2321,12.2261,12.1653,14.3061,14.3061,14.3061,14.3061,14.3093,14.3291,14.354,14.3878,14.4138,14.4525,14.4934,14.5135,14.5362,14.567,14.5972,14.6323,14.6915,14.8422,14.9298,15.0064,15.1074,15.1991,15.2404,15.2591,15.262,15.2297,15.1473,15.1021,15.0526,15.0244,15.0208,15.0285,14.9847,14.9391,14.8877,14.7546,14.6322,14.5308,14.4608,14.3381,14.2059,14.0896,13.9308,13.8379,13.7693,13.71,13.641,13.6139,13.5425,13.4143,13.3332,13.1708,13.0793,13.0469,13.0195,12.9358,12.8352,12.7299,12.5684,12.4362,12.3408,12.2525,12.1974,12.2326,12.1679,12.2015,12.2278,12.23,12.23,12.2151,12.228,12.2429,12.2618,12.2771,12.2998,12.3254,12.3465,12.369,12.3928,12.4125,12.4478,12.4991,12.5246,12.5726,12.6033,12.6734,12.697,12.7077,12.7228,12.7157,12.6722,12.6295,12.5759,12.5488,12.5743,12.563,12.53,12.5263,12.5297,12.4775,12.4411,12.4186,12.3996,12.3893,12.3949,12.4409,12.4542,12.4281,12.4086,12.4035,12.3913,12.364,12.3594,12.3467,12.2857,14.3061,14.3061,14.3061,14.3093,14.3228,14.3478,14.3848,14.4138,14.4407,14.4876,14.5362,14.5548,14.5697,14.5972,14.6243,14.6719,14.7551,14.9098,15.0066,15.1102,15.2657,15.3175,15.3767,15.4255,15.3869,15.3356,15.2622,15.192,15.1331,15.1046,15.0836,15.0813,15.0529,15.0094,14.9315,14.8231,14.714,14.5895,14.4867,14.3942,14.304,14.2198,14.039,13.9135,13.823,13.774,13.6751,13.6088,13.6019,13.4887,13.3655,13.183,13.0766,13.0364,13.046,12.9942,12.9281,12.8473,12.7446,12.6051,12.4876,12.3824,12.3348,12.2843,12.227,12.2148,12.2435,12.2374,12.2374,12.2386,12.2493,12.2663,12.2851,12.3172,12.3417,12.3783,12.4011,12.429,12.4565,12.4759,12.5262,12.579,12.6303,12.6841,12.7376,12.8152,12.8466,12.8623,12.8635,12.8437,12.804,12.7855,12.7535,12.7395,12.7341,12.6851,12.6529,12.6481,12.6436,12.5774,12.5267,12.4937,12.4878,12.5079,12.5296,12.5371,12.5503,12.5387,12.5191,12.4996,12.481,12.4608,12.4316,12.4187,12.3816,14.3061,14.3061,14.3061,14.3218,14.3509,14.3602,14.3897,14.4407,14.4525,14.4876,14.5418,14.5753,14.5972,14.6243,14.6535,14.6974,14.7828,14.9472,15.0337,15.1046,15.3016,15.3958,15.4439,15.4821,15.4536,15.4107,15.3558,15.293,15.2207,15.1843,15.167,15.1707,15.1107,15.0886,15.0894,14.9657,14.8076,14.661,14.5405,14.4524,14.3412,14.2447,14.1351,14.0148,13.9047,13.8277,13.7512,13.7005,13.6415,13.538,13.3754,13.1999,13.0933,13.0434,13.0481,13.0455,12.9868,12.9281,12.8326,12.7592,12.6418,12.5366,12.4874,12.4247,12.3744,12.3223,12.32,12.2671,12.264,12.2599,12.2653,12.2788,12.2995,12.3448,12.3762,12.4105,12.4422,12.5018,12.5516,12.5952,12.6493,12.706,12.7588,12.788,12.8078,12.8714,12.9006,12.9145,12.9343,12.9347,12.9422,12.9337,12.9235,12.9193,12.9147,12.8402,12.799,12.7853,12.7583,12.6943,12.6276,12.5594,12.5597,12.6056,12.6038,12.6027,12.6151,12.6507,12.6309,12.6117,12.5779,12.5577,12.5202,12.4901,12.4606]}]]